<?xml version="1.0" encoding="UTF-8" standalone="no" ?>
<gpx xmlns="http://www.topografix.com/GPX/1/1" xmlns:xsi="http://www.w3.org/2001/XMLSchema-instance" xsi:schemaLocation="http://www.topografix.com/GPX/1/1 http://www.topografix.com/GPX/1/1/gpx.xsd" version="1.1" creator="VisuGPX - https://www.visugpx.com">
  <metadata>
    <name>Garlaban: petit tour depuis Chateau Gombert</name>
    <desc><![CDATA[Quelques courts passages où il faudra porter, après le Puits de l\'Aroumi]]></desc>
  </metadata>
  <trk>
    <name><![CDATA[110206-Garlaban]]></name>
    <trkseg>
      <trkpt lat="43.35145" lon="5.4443">
        <ele>141.02562</ele>
        <time>2011-02-06T08:49:26Z</time>
      </trkpt>
      <trkpt lat="43.35158" lon="5.44447">
        <ele>142.608612</ele>
        <time>2011-02-06T08:50:07Z</time>
      </trkpt>
      <trkpt lat="43.3516" lon="5.44448">
        <ele>142.792892</ele>
        <time>2011-02-06T08:50:09Z</time>
      </trkpt>
      <trkpt lat="43.35175" lon="5.44447">
        <ele>143.456177</ele>
        <time>2011-02-06T08:50:26Z</time>
      </trkpt>
      <trkpt lat="43.35192" lon="5.44438">
        <ele>144.083908</ele>
        <time>2011-02-06T08:50:30Z</time>
      </trkpt>
      <trkpt lat="43.35215" lon="5.44428">
        <ele>145.402786</ele>
        <time>2011-02-06T08:50:37Z</time>
      </trkpt>
      <trkpt lat="43.35227" lon="5.44443">
        <ele>147.187546</ele>
        <time>2011-02-06T08:50:41Z</time>
      </trkpt>
      <trkpt lat="43.35235" lon="5.44472">
        <ele>149.383926</ele>
        <time>2011-02-06T08:50:45Z</time>
      </trkpt>
      <trkpt lat="43.35245" lon="5.44518">
        <ele>151.792542</ele>
        <time>2011-02-06T08:50:54Z</time>
      </trkpt>
      <trkpt lat="43.35247" lon="5.44543">
        <ele>152.561768</ele>
        <time>2011-02-06T08:50:58Z</time>
      </trkpt>
      <trkpt lat="43.3525" lon="5.44567">
        <ele>153.037552</ele>
        <time>2011-02-06T08:51:02Z</time>
      </trkpt>
      <trkpt lat="43.35257" lon="5.44595">
        <ele>153.572418</ele>
        <time>2011-02-06T08:51:07Z</time>
      </trkpt>
      <trkpt lat="43.35267" lon="5.44617">
        <ele>153.881683</ele>
        <time>2011-02-06T08:51:11Z</time>
      </trkpt>
      <trkpt lat="43.3528" lon="5.44648">
        <ele>153.511063</ele>
        <time>2011-02-06T08:51:17Z</time>
      </trkpt>
      <trkpt lat="43.35297" lon="5.44692">
        <ele>153.001556</ele>
        <time>2011-02-06T08:51:25Z</time>
      </trkpt>
      <trkpt lat="43.35323" lon="5.44765">
        <ele>151.662277</ele>
        <time>2011-02-06T08:51:38Z</time>
      </trkpt>
      <trkpt lat="43.3533" lon="5.44788">
        <ele>151.365616</ele>
        <time>2011-02-06T08:51:42Z</time>
      </trkpt>
      <trkpt lat="43.3535" lon="5.44852">
        <ele>151.204758</ele>
        <time>2011-02-06T08:51:50Z</time>
      </trkpt>
      <trkpt lat="43.35358" lon="5.44868">
        <ele>151.24559</ele>
        <time>2011-02-06T08:51:52Z</time>
      </trkpt>
      <trkpt lat="43.35368" lon="5.44885">
        <ele>151.478683</ele>
        <time>2011-02-06T08:51:55Z</time>
      </trkpt>
      <trkpt lat="43.35377" lon="5.44902">
        <ele>151.674728</ele>
        <time>2011-02-06T08:51:57Z</time>
      </trkpt>
      <trkpt lat="43.35383" lon="5.44918">
        <ele>151.83371</ele>
        <time>2011-02-06T08:51:59Z</time>
      </trkpt>
      <trkpt lat="43.35393" lon="5.44948">
        <ele>152.526123</ele>
        <time>2011-02-06T08:52:03Z</time>
      </trkpt>
      <trkpt lat="43.3541" lon="5.44972">
        <ele>153.661423</ele>
        <time>2011-02-06T08:52:07Z</time>
      </trkpt>
      <trkpt lat="43.35423" lon="5.44987">
        <ele>154.505432</ele>
        <time>2011-02-06T08:52:12Z</time>
      </trkpt>
      <trkpt lat="43.35503" lon="5.45078">
        <ele>157.975677</ele>
        <time>2011-02-06T08:52:35Z</time>
      </trkpt>
      <trkpt lat="43.35565" lon="5.45147">
        <ele>159.607834</ele>
        <time>2011-02-06T08:52:52Z</time>
      </trkpt>
      <trkpt lat="43.35575" lon="5.45168">
        <ele>159.930405</ele>
        <time>2011-02-06T08:52:56Z</time>
      </trkpt>
      <trkpt lat="43.35573" lon="5.45193">
        <ele>159.708023</ele>
        <time>2011-02-06T08:53:00Z</time>
      </trkpt>
      <trkpt lat="43.35573" lon="5.45227">
        <ele>159.772369</ele>
        <time>2011-02-06T08:53:05Z</time>
      </trkpt>
      <trkpt lat="43.35587" lon="5.4525">
        <ele>160.807388</ele>
        <time>2011-02-06T08:53:09Z</time>
      </trkpt>
      <trkpt lat="43.35603" lon="5.4528">
        <ele>162.449402</ele>
        <time>2011-02-06T08:53:15Z</time>
      </trkpt>
      <trkpt lat="43.35615" lon="5.45302">
        <ele>163.398575</ele>
        <time>2011-02-06T08:53:19Z</time>
      </trkpt>
      <trkpt lat="43.35632" lon="5.4534">
        <ele>164.06131</ele>
        <time>2011-02-06T08:53:26Z</time>
      </trkpt>
      <trkpt lat="43.35643" lon="5.45362">
        <ele>164.716858</ele>
        <time>2011-02-06T08:53:30Z</time>
      </trkpt>
      <trkpt lat="43.35653" lon="5.45383">
        <ele>165.206985</ele>
        <time>2011-02-06T08:53:34Z</time>
      </trkpt>
      <trkpt lat="43.35668" lon="5.45415">
        <ele>165.76828</ele>
        <time>2011-02-06T08:53:40Z</time>
      </trkpt>
      <trkpt lat="43.35675" lon="5.45438">
        <ele>165.96405</ele>
        <time>2011-02-06T08:53:44Z</time>
      </trkpt>
      <trkpt lat="43.35683" lon="5.4546">
        <ele>166.56189</ele>
        <time>2011-02-06T08:53:48Z</time>
      </trkpt>
      <trkpt lat="43.35693" lon="5.45482">
        <ele>167.27092</ele>
        <time>2011-02-06T08:53:52Z</time>
      </trkpt>
      <trkpt lat="43.35712" lon="5.45523">
        <ele>168.57457</ele>
        <time>2011-02-06T08:54:03Z</time>
      </trkpt>
      <trkpt lat="43.35723" lon="5.45542">
        <ele>169.388367</ele>
        <time>2011-02-06T08:54:07Z</time>
      </trkpt>
      <trkpt lat="43.35733" lon="5.45563">
        <ele>170.043594</ele>
        <time>2011-02-06T08:54:14Z</time>
      </trkpt>
      <trkpt lat="43.35745" lon="5.45583">
        <ele>170.657303</ele>
        <time>2011-02-06T08:54:20Z</time>
      </trkpt>
      <trkpt lat="43.35782" lon="5.4565">
        <ele>172.719391</ele>
        <time>2011-02-06T08:54:33Z</time>
      </trkpt>
      <trkpt lat="43.3579" lon="5.45677">
        <ele>172.71666</ele>
        <time>2011-02-06T08:54:37Z</time>
      </trkpt>
      <trkpt lat="43.35797" lon="5.45695">
        <ele>173.038467</ele>
        <time>2011-02-06T08:54:39Z</time>
      </trkpt>
      <trkpt lat="43.35808" lon="5.45718">
        <ele>174.100281</ele>
        <time>2011-02-06T08:54:43Z</time>
      </trkpt>
      <trkpt lat="43.35818" lon="5.45742">
        <ele>175.221436</ele>
        <time>2011-02-06T08:54:48Z</time>
      </trkpt>
      <trkpt lat="43.35833" lon="5.45783">
        <ele>176.851547</ele>
        <time>2011-02-06T08:54:56Z</time>
      </trkpt>
      <trkpt lat="43.3584" lon="5.45812">
        <ele>177.39682</ele>
        <time>2011-02-06T08:55:00Z</time>
      </trkpt>
      <trkpt lat="43.3585" lon="5.45847">
        <ele>177.311661</ele>
        <time>2011-02-06T08:55:07Z</time>
      </trkpt>
      <trkpt lat="43.35863" lon="5.4587">
        <ele>177.864609</ele>
        <time>2011-02-06T08:55:11Z</time>
      </trkpt>
      <trkpt lat="43.35887" lon="5.45907">
        <ele>178.683289</ele>
        <time>2011-02-06T08:55:20Z</time>
      </trkpt>
      <trkpt lat="43.35902" lon="5.4592">
        <ele>179.253067</ele>
        <time>2011-02-06T08:55:24Z</time>
      </trkpt>
      <trkpt lat="43.3592" lon="5.45933">
        <ele>180.57666</ele>
        <time>2011-02-06T08:55:28Z</time>
      </trkpt>
      <trkpt lat="43.35935" lon="5.45945">
        <ele>181.567047</ele>
        <time>2011-02-06T08:55:33Z</time>
      </trkpt>
      <trkpt lat="43.35943" lon="5.45965">
        <ele>181.285812</ele>
        <time>2011-02-06T08:55:37Z</time>
      </trkpt>
      <trkpt lat="43.35948" lon="5.45993">
        <ele>180.005234</ele>
        <time>2011-02-06T08:55:41Z</time>
      </trkpt>
      <trkpt lat="43.35942" lon="5.4601">
        <ele>178.632431</ele>
        <time>2011-02-06T08:55:43Z</time>
      </trkpt>
      <trkpt lat="43.35925" lon="5.46032">
        <ele>177.21048</ele>
        <time>2011-02-06T08:55:46Z</time>
      </trkpt>
      <trkpt lat="43.35915" lon="5.46052">
        <ele>176.527344</ele>
        <time>2011-02-06T08:55:50Z</time>
      </trkpt>
      <trkpt lat="43.3593" lon="5.46078">
        <ele>177.16449</ele>
        <time>2011-02-06T08:55:56Z</time>
      </trkpt>
      <trkpt lat="43.35972" lon="5.46153">
        <ele>178.779388</ele>
        <time>2011-02-06T08:56:13Z</time>
      </trkpt>
      <trkpt lat="43.36013" lon="5.4623">
        <ele>181.525101</ele>
        <time>2011-02-06T08:56:30Z</time>
      </trkpt>
      <trkpt lat="43.36033" lon="5.46265">
        <ele>183.241104</ele>
        <time>2011-02-06T08:56:39Z</time>
      </trkpt>
      <trkpt lat="43.36045" lon="5.46282">
        <ele>184.717606</ele>
        <time>2011-02-06T08:56:43Z</time>
      </trkpt>
      <trkpt lat="43.36075" lon="5.46328">
        <ele>186.394699</ele>
        <time>2011-02-06T08:56:54Z</time>
      </trkpt>
      <trkpt lat="43.36085" lon="5.46343">
        <ele>186.971054</ele>
        <time>2011-02-06T08:56:58Z</time>
      </trkpt>
      <trkpt lat="43.36085" lon="5.46363">
        <ele>187.196426</ele>
        <time>2011-02-06T08:57:04Z</time>
      </trkpt>
      <trkpt lat="43.36072" lon="5.46383">
        <ele>187.153427</ele>
        <time>2011-02-06T08:57:11Z</time>
      </trkpt>
      <trkpt lat="43.36062" lon="5.46397">
        <ele>187.433502</ele>
        <time>2011-02-06T08:57:15Z</time>
      </trkpt>
      <trkpt lat="43.3592" lon="5.4658">
        <ele>176.613434</ele>
        <time>2011-02-06T08:57:46Z</time>
      </trkpt>
      <trkpt lat="43.35908" lon="5.466">
        <ele>175.130417</ele>
        <time>2011-02-06T08:57:48Z</time>
      </trkpt>
      <trkpt lat="43.359" lon="5.4662">
        <ele>173.896362</ele>
        <time>2011-02-06T08:57:50Z</time>
      </trkpt>
      <trkpt lat="43.3589" lon="5.46637">
        <ele>173.752426</ele>
        <time>2011-02-06T08:57:52Z</time>
      </trkpt>
      <trkpt lat="43.35885" lon="5.46662">
        <ele>173.972458</ele>
        <time>2011-02-06T08:57:56Z</time>
      </trkpt>
      <trkpt lat="43.35903" lon="5.4667">
        <ele>174.917648</ele>
        <time>2011-02-06T08:58:00Z</time>
      </trkpt>
      <trkpt lat="43.35932" lon="5.46678">
        <ele>176.62851</ele>
        <time>2011-02-06T08:58:07Z</time>
      </trkpt>
      <trkpt lat="43.35947" lon="5.46683">
        <ele>178.059875</ele>
        <time>2011-02-06T08:58:11Z</time>
      </trkpt>
      <trkpt lat="43.35965" lon="5.46693">
        <ele>179.858154</ele>
        <time>2011-02-06T08:58:15Z</time>
      </trkpt>
      <trkpt lat="43.3597" lon="5.46722">
        <ele>180.945038</ele>
        <time>2011-02-06T08:58:21Z</time>
      </trkpt>
      <trkpt lat="43.35968" lon="5.46745">
        <ele>181.238113</ele>
        <time>2011-02-06T08:58:26Z</time>
      </trkpt>
      <trkpt lat="43.35967" lon="5.46778">
        <ele>183.293472</ele>
        <time>2011-02-06T08:58:32Z</time>
      </trkpt>
      <trkpt lat="43.35965" lon="5.46803">
        <ele>184.857651</ele>
        <time>2011-02-06T08:58:36Z</time>
      </trkpt>
      <trkpt lat="43.35963" lon="5.4683">
        <ele>186.555176</ele>
        <time>2011-02-06T08:58:43Z</time>
      </trkpt>
      <trkpt lat="43.3596" lon="5.4688">
        <ele>189.287582</ele>
        <time>2011-02-06T08:58:56Z</time>
      </trkpt>
      <trkpt lat="43.35957" lon="5.46935">
        <ele>190.537369</ele>
        <time>2011-02-06T08:59:14Z</time>
      </trkpt>
      <trkpt lat="43.35955" lon="5.46963">
        <ele>189.577454</ele>
        <time>2011-02-06T08:59:20Z</time>
      </trkpt>
      <trkpt lat="43.35952" lon="5.47025">
        <ele>187.887131</ele>
        <time>2011-02-06T08:59:29Z</time>
      </trkpt>
      <trkpt lat="43.35943" lon="5.47127">
        <ele>188.105286</ele>
        <time>2011-02-06T08:59:42Z</time>
      </trkpt>
      <trkpt lat="43.35932" lon="5.47147">
        <ele>187.78009</ele>
        <time>2011-02-06T08:59:46Z</time>
      </trkpt>
      <trkpt lat="43.35927" lon="5.47168">
        <ele>188.286758</ele>
        <time>2011-02-06T08:59:50Z</time>
      </trkpt>
      <trkpt lat="43.35927" lon="5.47197">
        <ele>189.086365</ele>
        <time>2011-02-06T08:59:56Z</time>
      </trkpt>
      <trkpt lat="43.35925" lon="5.47248">
        <ele>189.828781</ele>
        <time>2011-02-06T09:00:07Z</time>
      </trkpt>
      <trkpt lat="43.35925" lon="5.4727">
        <ele>189.756058</ele>
        <time>2011-02-06T09:00:11Z</time>
      </trkpt>
      <trkpt lat="43.35925" lon="5.47328">
        <ele>187.473404</ele>
        <time>2011-02-06T09:00:19Z</time>
      </trkpt>
      <trkpt lat="43.35905" lon="5.47348">
        <ele>185.398026</ele>
        <time>2011-02-06T09:00:23Z</time>
      </trkpt>
      <trkpt lat="43.3589" lon="5.47358">
        <ele>185.070435</ele>
        <time>2011-02-06T09:00:28Z</time>
      </trkpt>
      <trkpt lat="43.35868" lon="5.47373">
        <ele>184.624176</ele>
        <time>2011-02-06T09:00:36Z</time>
      </trkpt>
      <trkpt lat="43.35852" lon="5.47383">
        <ele>184.382401</ele>
        <time>2011-02-06T09:00:43Z</time>
      </trkpt>
      <trkpt lat="43.3583" lon="5.47395">
        <ele>183.532013</ele>
        <time>2011-02-06T09:00:53Z</time>
      </trkpt>
      <trkpt lat="43.35798" lon="5.47413">
        <ele>182.575409</ele>
        <time>2011-02-06T09:00:59Z</time>
      </trkpt>
      <trkpt lat="43.35785" lon="5.47417">
        <ele>181.978149</ele>
        <time>2011-02-06T09:01:02Z</time>
      </trkpt>
      <trkpt lat="43.3575" lon="5.47422">
        <ele>180.895813</ele>
        <time>2011-02-06T09:01:06Z</time>
      </trkpt>
      <trkpt lat="43.35713" lon="5.47428">
        <ele>179.988434</ele>
        <time>2011-02-06T09:01:10Z</time>
      </trkpt>
      <trkpt lat="43.35697" lon="5.47432">
        <ele>179.781754</ele>
        <time>2011-02-06T09:01:12Z</time>
      </trkpt>
      <trkpt lat="43.35683" lon="5.47437">
        <ele>179.502823</ele>
        <time>2011-02-06T09:01:14Z</time>
      </trkpt>
      <trkpt lat="43.35652" lon="5.47445">
        <ele>177.68515</ele>
        <time>2011-02-06T09:01:18Z</time>
      </trkpt>
      <trkpt lat="43.35628" lon="5.47448">
        <ele>175.848022</ele>
        <time>2011-02-06T09:01:23Z</time>
      </trkpt>
      <trkpt lat="43.35607" lon="5.4743">
        <ele>172.454758</ele>
        <time>2011-02-06T09:01:27Z</time>
      </trkpt>
      <trkpt lat="43.35595" lon="5.4742">
        <ele>170.631119</ele>
        <time>2011-02-06T09:01:29Z</time>
      </trkpt>
      <trkpt lat="43.35565" lon="5.47422">
        <ele>166.726349</ele>
        <time>2011-02-06T09:01:33Z</time>
      </trkpt>
      <trkpt lat="43.3555" lon="5.47422">
        <ele>165.031799</ele>
        <time>2011-02-06T09:01:35Z</time>
      </trkpt>
      <trkpt lat="43.35523" lon="5.47425">
        <ele>163.030045</ele>
        <time>2011-02-06T09:01:37Z</time>
      </trkpt>
      <trkpt lat="43.3549" lon="5.47432">
        <ele>161.090073</ele>
        <time>2011-02-06T09:01:42Z</time>
      </trkpt>
      <trkpt lat="43.35462" lon="5.4744">
        <ele>160.351685</ele>
        <time>2011-02-06T09:01:46Z</time>
      </trkpt>
      <trkpt lat="43.3544" lon="5.47455">
        <ele>158.906677</ele>
        <time>2011-02-06T09:01:50Z</time>
      </trkpt>
      <trkpt lat="43.3542" lon="5.47475">
        <ele>156.985321</ele>
        <time>2011-02-06T09:01:54Z</time>
      </trkpt>
      <trkpt lat="43.35407" lon="5.47493">
        <ele>156.039688</ele>
        <time>2011-02-06T09:01:56Z</time>
      </trkpt>
      <trkpt lat="43.35387" lon="5.47512">
        <ele>154.74588</ele>
        <time>2011-02-06T09:02:01Z</time>
      </trkpt>
      <trkpt lat="43.35363" lon="5.47523">
        <ele>153.374756</ele>
        <time>2011-02-06T09:02:05Z</time>
      </trkpt>
      <trkpt lat="43.35328" lon="5.47543">
        <ele>152.155792</ele>
        <time>2011-02-06T09:02:11Z</time>
      </trkpt>
      <trkpt lat="43.353" lon="5.47562">
        <ele>151.242065</ele>
        <time>2011-02-06T09:02:15Z</time>
      </trkpt>
      <trkpt lat="43.35287" lon="5.47573">
        <ele>150.865326</ele>
        <time>2011-02-06T09:02:17Z</time>
      </trkpt>
      <trkpt lat="43.35267" lon="5.4759">
        <ele>150.285629</ele>
        <time>2011-02-06T09:02:19Z</time>
      </trkpt>
      <trkpt lat="43.3525" lon="5.47593">
        <ele>149.617554</ele>
        <time>2011-02-06T09:02:22Z</time>
      </trkpt>
      <trkpt lat="43.35235" lon="5.47595">
        <ele>148.99292</ele>
        <time>2011-02-06T09:02:24Z</time>
      </trkpt>
      <trkpt lat="43.35218" lon="5.47595">
        <ele>148.266434</ele>
        <time>2011-02-06T09:02:26Z</time>
      </trkpt>
      <trkpt lat="43.3519" lon="5.47595">
        <ele>147.031403</ele>
        <time>2011-02-06T09:02:32Z</time>
      </trkpt>
      <trkpt lat="43.35187" lon="5.47618">
        <ele>147.295044</ele>
        <time>2011-02-06T09:02:38Z</time>
      </trkpt>
      <trkpt lat="43.35187" lon="5.47643">
        <ele>147.668625</ele>
        <time>2011-02-06T09:02:43Z</time>
      </trkpt>
      <trkpt lat="43.35188" lon="5.47668">
        <ele>148.053452</ele>
        <time>2011-02-06T09:02:47Z</time>
      </trkpt>
      <trkpt lat="43.35207" lon="5.4795">
        <ele>153.334885</ele>
        <time>2011-02-06T09:03:27Z</time>
      </trkpt>
      <trkpt lat="43.3521" lon="5.4798">
        <ele>154.399124</ele>
        <time>2011-02-06T09:03:31Z</time>
      </trkpt>
      <trkpt lat="43.35218" lon="5.4801">
        <ele>155.378143</ele>
        <time>2011-02-06T09:03:35Z</time>
      </trkpt>
      <trkpt lat="43.35223" lon="5.48033">
        <ele>155.878708</ele>
        <time>2011-02-06T09:03:37Z</time>
      </trkpt>
      <trkpt lat="43.35238" lon="5.48095">
        <ele>156.857254</ele>
        <time>2011-02-06T09:03:46Z</time>
      </trkpt>
      <trkpt lat="43.35293" lon="5.48328">
        <ele>157.37706</ele>
        <time>2011-02-06T09:04:19Z</time>
      </trkpt>
      <trkpt lat="43.35302" lon="5.48347">
        <ele>157.93158</ele>
        <time>2011-02-06T09:04:21Z</time>
      </trkpt>
      <trkpt lat="43.35308" lon="5.48372">
        <ele>158.398163</ele>
        <time>2011-02-06T09:04:26Z</time>
      </trkpt>
      <trkpt lat="43.3532" lon="5.48392">
        <ele>158.670609</ele>
        <time>2011-02-06T09:04:30Z</time>
      </trkpt>
      <trkpt lat="43.35332" lon="5.4841">
        <ele>158.941986</ele>
        <time>2011-02-06T09:04:34Z</time>
      </trkpt>
      <trkpt lat="43.35348" lon="5.48427">
        <ele>159.088943</ele>
        <time>2011-02-06T09:04:38Z</time>
      </trkpt>
      <trkpt lat="43.3536" lon="5.48437">
        <ele>159</ele>
        <time>2011-02-06T09:06:26Z</time>
      </trkpt>
      <trkpt lat="43.35375" lon="5.48447">
        <ele>159</ele>
        <time>2011-02-06T09:06:30Z</time>
      </trkpt>
      <trkpt lat="43.35398" lon="5.48457">
        <ele>159</ele>
        <time>2011-02-06T09:06:37Z</time>
      </trkpt>
      <trkpt lat="43.35412" lon="5.48467">
        <ele>159</ele>
        <time>2011-02-06T09:06:41Z</time>
      </trkpt>
      <trkpt lat="43.3542" lon="5.48487">
        <ele>159</ele>
        <time>2011-02-06T09:06:45Z</time>
      </trkpt>
      <trkpt lat="43.35435" lon="5.48503">
        <ele>158.72876</ele>
        <time>2011-02-06T09:06:49Z</time>
      </trkpt>
      <trkpt lat="43.35447" lon="5.4853">
        <ele>158.874313</ele>
        <time>2011-02-06T09:06:53Z</time>
      </trkpt>
      <trkpt lat="43.3547" lon="5.4858">
        <ele>158.902344</ele>
        <time>2011-02-06T09:07:00Z</time>
      </trkpt>
      <trkpt lat="43.35488" lon="5.48602">
        <ele>158.76741</ele>
        <time>2011-02-06T09:07:04Z</time>
      </trkpt>
      <trkpt lat="43.35508" lon="5.48615">
        <ele>158.772964</ele>
        <time>2011-02-06T09:07:08Z</time>
      </trkpt>
      <trkpt lat="43.35592" lon="5.48675">
        <ele>158.675537</ele>
        <time>2011-02-06T09:07:25Z</time>
      </trkpt>
      <trkpt lat="43.35602" lon="5.48695">
        <ele>158.99234</ele>
        <time>2011-02-06T09:07:29Z</time>
      </trkpt>
      <trkpt lat="43.35617" lon="5.48705">
        <ele>159.140076</ele>
        <time>2011-02-06T09:07:31Z</time>
      </trkpt>
      <trkpt lat="43.35633" lon="5.48727">
        <ele>159.476807</ele>
        <time>2011-02-06T09:07:36Z</time>
      </trkpt>
      <trkpt lat="43.357" lon="5.4881">
        <ele>160.18129</ele>
        <time>2011-02-06T09:07:53Z</time>
      </trkpt>
      <trkpt lat="43.35707" lon="5.48832">
        <ele>160</ele>
        <time>2011-02-06T09:07:57Z</time>
      </trkpt>
      <trkpt lat="43.35715" lon="5.48853">
        <ele>160</ele>
        <time>2011-02-06T09:08:01Z</time>
      </trkpt>
      <trkpt lat="43.35722" lon="5.48875">
        <ele>160</ele>
        <time>2011-02-06T09:08:05Z</time>
      </trkpt>
      <trkpt lat="43.35725" lon="5.48893">
        <ele>160.011002</ele>
        <time>2011-02-06T09:08:07Z</time>
      </trkpt>
      <trkpt lat="43.35732" lon="5.48922">
        <ele>160.511108</ele>
        <time>2011-02-06T09:08:14Z</time>
      </trkpt>
      <trkpt lat="43.35743" lon="5.4898">
        <ele>161.69548</ele>
        <time>2011-02-06T09:08:24Z</time>
      </trkpt>
      <trkpt lat="43.35758" lon="5.49053">
        <ele>162.803925</ele>
        <time>2011-02-06T09:08:33Z</time>
      </trkpt>
      <trkpt lat="43.35767" lon="5.49082">
        <ele>163.240326</ele>
        <time>2011-02-06T09:08:37Z</time>
      </trkpt>
      <trkpt lat="43.35778" lon="5.49107">
        <ele>166.92514</ele>
        <time>2011-02-06T09:08:41Z</time>
      </trkpt>
      <trkpt lat="43.35875" lon="5.49317">
        <ele>174.101517</ele>
        <time>2011-02-06T09:09:17Z</time>
      </trkpt>
      <trkpt lat="43.35887" lon="5.49338">
        <ele>174.567657</ele>
        <time>2011-02-06T09:09:21Z</time>
      </trkpt>
      <trkpt lat="43.359" lon="5.49357">
        <ele>175.901093</ele>
        <time>2011-02-06T09:09:25Z</time>
      </trkpt>
      <trkpt lat="43.3591" lon="5.4937">
        <ele>176.861008</ele>
        <time>2011-02-06T09:09:27Z</time>
      </trkpt>
      <trkpt lat="43.35925" lon="5.49385">
        <ele>177.702667</ele>
        <time>2011-02-06T09:09:32Z</time>
      </trkpt>
      <trkpt lat="43.35942" lon="5.49397">
        <ele>178.372314</ele>
        <time>2011-02-06T09:09:36Z</time>
      </trkpt>
      <trkpt lat="43.35958" lon="5.49403">
        <ele>178.284241</ele>
        <time>2011-02-06T09:09:40Z</time>
      </trkpt>
      <trkpt lat="43.35977" lon="5.49407">
        <ele>177.554199</ele>
        <time>2011-02-06T09:09:44Z</time>
      </trkpt>
      <trkpt lat="43.35992" lon="5.4941">
        <ele>177.153488</ele>
        <time>2011-02-06T09:09:46Z</time>
      </trkpt>
      <trkpt lat="43.36018" lon="5.49413">
        <ele>176.44664</ele>
        <time>2011-02-06T09:09:52Z</time>
      </trkpt>
      <trkpt lat="43.36035" lon="5.49417">
        <ele>176.000961</ele>
        <time>2011-02-06T09:09:57Z</time>
      </trkpt>
      <trkpt lat="43.36048" lon="5.49437">
        <ele>175.735245</ele>
        <time>2011-02-06T09:10:01Z</time>
      </trkpt>
      <trkpt lat="43.36067" lon="5.4946">
        <ele>175.057495</ele>
        <time>2011-02-06T09:10:07Z</time>
      </trkpt>
      <trkpt lat="43.36078" lon="5.49475">
        <ele>176.548141</ele>
        <time>2011-02-06T09:10:11Z</time>
      </trkpt>
      <trkpt lat="43.36095" lon="5.49483">
        <ele>177.233063</ele>
        <time>2011-02-06T09:10:18Z</time>
      </trkpt>
      <trkpt lat="43.36118" lon="5.49493">
        <ele>177.905212</ele>
        <time>2011-02-06T09:10:28Z</time>
      </trkpt>
      <trkpt lat="43.36142" lon="5.49503">
        <ele>179.794968</ele>
        <time>2011-02-06T09:10:53Z</time>
      </trkpt>
      <trkpt lat="43.36155" lon="5.4951">
        <ele>181.05574</ele>
        <time>2011-02-06T09:11:00Z</time>
      </trkpt>
      <trkpt lat="43.36167" lon="5.49522">
        <ele>181.937317</ele>
        <time>2011-02-06T09:11:06Z</time>
      </trkpt>
      <trkpt lat="43.36178" lon="5.49535">
        <ele>182.823196</ele>
        <time>2011-02-06T09:11:12Z</time>
      </trkpt>
      <trkpt lat="43.3619" lon="5.49545">
        <ele>183.544647</ele>
        <time>2011-02-06T09:11:19Z</time>
      </trkpt>
      <trkpt lat="43.36208" lon="5.49557">
        <ele>184.029831</ele>
        <time>2011-02-06T09:11:27Z</time>
      </trkpt>
      <trkpt lat="43.36228" lon="5.4957">
        <ele>183.849487</ele>
        <time>2011-02-06T09:11:38Z</time>
      </trkpt>
      <trkpt lat="43.36245" lon="5.49583">
        <ele>183.595749</ele>
        <time>2011-02-06T09:11:44Z</time>
      </trkpt>
      <trkpt lat="43.36257" lon="5.49598">
        <ele>183.091782</ele>
        <time>2011-02-06T09:11:49Z</time>
      </trkpt>
      <trkpt lat="43.36268" lon="5.49615">
        <ele>182.88829</ele>
        <time>2011-02-06T09:11:53Z</time>
      </trkpt>
      <trkpt lat="43.36283" lon="5.49628">
        <ele>182.03743</ele>
        <time>2011-02-06T09:11:57Z</time>
      </trkpt>
      <trkpt lat="43.363" lon="5.49642">
        <ele>181.704086</ele>
        <time>2011-02-06T09:12:01Z</time>
      </trkpt>
      <trkpt lat="43.36313" lon="5.49648">
        <ele>181.416992</ele>
        <time>2011-02-06T09:12:05Z</time>
      </trkpt>
      <trkpt lat="43.36327" lon="5.49655">
        <ele>181.071976</ele>
        <time>2011-02-06T09:12:10Z</time>
      </trkpt>
      <trkpt lat="43.36337" lon="5.49673">
        <ele>182.005249</ele>
        <time>2011-02-06T09:12:18Z</time>
      </trkpt>
      <trkpt lat="43.36338" lon="5.49697">
        <ele>184.060211</ele>
        <time>2011-02-06T09:12:26Z</time>
      </trkpt>
      <trkpt lat="43.36337" lon="5.49718">
        <ele>185.960541</ele>
        <time>2011-02-06T09:12:37Z</time>
      </trkpt>
      <trkpt lat="43.36333" lon="5.49738">
        <ele>188.860001</ele>
        <time>2011-02-06T09:12:47Z</time>
      </trkpt>
      <trkpt lat="43.36327" lon="5.49757">
        <ele>191.462784</ele>
        <time>2011-02-06T09:12:53Z</time>
      </trkpt>
      <trkpt lat="43.3632" lon="5.4978">
        <ele>194.127808</ele>
        <time>2011-02-06T09:13:00Z</time>
      </trkpt>
      <trkpt lat="43.3631" lon="5.49812">
        <ele>195.606186</ele>
        <time>2011-02-06T09:13:08Z</time>
      </trkpt>
      <trkpt lat="43.36303" lon="5.49835">
        <ele>196.034714</ele>
        <time>2011-02-06T09:13:15Z</time>
      </trkpt>
      <trkpt lat="43.36302" lon="5.49857">
        <ele>196.796173</ele>
        <time>2011-02-06T09:13:21Z</time>
      </trkpt>
      <trkpt lat="43.36302" lon="5.49878">
        <ele>197.682449</ele>
        <time>2011-02-06T09:13:28Z</time>
      </trkpt>
      <trkpt lat="43.363" lon="5.49902">
        <ele>198.073013</ele>
        <time>2011-02-06T09:13:34Z</time>
      </trkpt>
      <trkpt lat="43.36298" lon="5.49922">
        <ele>197.987793</ele>
        <time>2011-02-06T09:13:38Z</time>
      </trkpt>
      <trkpt lat="43.36297" lon="5.49945">
        <ele>197.957703</ele>
        <time>2011-02-06T09:13:42Z</time>
      </trkpt>
      <trkpt lat="43.36293" lon="5.4998">
        <ele>198.014267</ele>
        <time>2011-02-06T09:13:48Z</time>
      </trkpt>
      <trkpt lat="43.36292" lon="5.5">
        <ele>198.354263</ele>
        <time>2011-02-06T09:13:53Z</time>
      </trkpt>
      <trkpt lat="43.36297" lon="5.5002">
        <ele>200.60968</ele>
        <time>2011-02-06T09:14:24Z</time>
      </trkpt>
      <trkpt lat="43.36298" lon="5.50043">
        <ele>201.919327</ele>
        <time>2011-02-06T09:14:33Z</time>
      </trkpt>
      <trkpt lat="43.36298" lon="5.50065">
        <ele>202.62088</ele>
        <time>2011-02-06T09:14:39Z</time>
      </trkpt>
      <trkpt lat="43.36295" lon="5.50088">
        <ele>202.478653</ele>
        <time>2011-02-06T09:14:48Z</time>
      </trkpt>
      <trkpt lat="43.36302" lon="5.5011">
        <ele>203.365845</ele>
        <time>2011-02-06T09:14:55Z</time>
      </trkpt>
      <trkpt lat="43.3631" lon="5.50132">
        <ele>203.671173</ele>
        <time>2011-02-06T09:15:01Z</time>
      </trkpt>
      <trkpt lat="43.36318" lon="5.5016">
        <ele>203.232178</ele>
        <time>2011-02-06T09:15:07Z</time>
      </trkpt>
      <trkpt lat="43.36317" lon="5.50185">
        <ele>202.505676</ele>
        <time>2011-02-06T09:15:14Z</time>
      </trkpt>
      <trkpt lat="43.36322" lon="5.50208">
        <ele>202.533859</ele>
        <time>2011-02-06T09:15:22Z</time>
      </trkpt>
      <trkpt lat="43.36332" lon="5.50222">
        <ele>204.610855</ele>
        <time>2011-02-06T09:15:31Z</time>
      </trkpt>
      <trkpt lat="43.36352" lon="5.50252">
        <ele>210.558823</ele>
        <time>2011-02-06T09:15:48Z</time>
      </trkpt>
      <trkpt lat="43.3636" lon="5.50267">
        <ele>212.040176</ele>
        <time>2011-02-06T09:15:56Z</time>
      </trkpt>
      <trkpt lat="43.36373" lon="5.5028">
        <ele>211.291168</ele>
        <time>2011-02-06T09:16:03Z</time>
      </trkpt>
      <trkpt lat="43.36387" lon="5.50293">
        <ele>210.122681</ele>
        <time>2011-02-06T09:16:09Z</time>
      </trkpt>
      <trkpt lat="43.3639" lon="5.50313">
        <ele>211.403122</ele>
        <time>2011-02-06T09:16:13Z</time>
      </trkpt>
      <trkpt lat="43.36393" lon="5.50338">
        <ele>212.500778</ele>
        <time>2011-02-06T09:16:17Z</time>
      </trkpt>
      <trkpt lat="43.36405" lon="5.50362">
        <ele>213.767487</ele>
        <time>2011-02-06T09:16:21Z</time>
      </trkpt>
      <trkpt lat="43.36415" lon="5.50375">
        <ele>218.198669</ele>
        <time>2011-02-06T09:16:26Z</time>
      </trkpt>
      <trkpt lat="43.36423" lon="5.50393">
        <ele>221.866257</ele>
        <time>2011-02-06T09:16:30Z</time>
      </trkpt>
      <trkpt lat="43.3642" lon="5.50418">
        <ele>222.838898</ele>
        <time>2011-02-06T09:16:36Z</time>
      </trkpt>
      <trkpt lat="43.36415" lon="5.5044">
        <ele>221.978149</ele>
        <time>2011-02-06T09:16:42Z</time>
      </trkpt>
      <trkpt lat="43.36412" lon="5.50463">
        <ele>220.93576</ele>
        <time>2011-02-06T09:16:48Z</time>
      </trkpt>
      <trkpt lat="43.36415" lon="5.50482">
        <ele>222.944183</ele>
        <time>2011-02-06T09:16:55Z</time>
      </trkpt>
      <trkpt lat="43.3641" lon="5.50503">
        <ele>222.583374</ele>
        <time>2011-02-06T09:17:01Z</time>
      </trkpt>
      <trkpt lat="43.364" lon="5.50523">
        <ele>219.484543</ele>
        <time>2011-02-06T09:17:10Z</time>
      </trkpt>
      <trkpt lat="43.36388" lon="5.5054">
        <ele>221.326508</ele>
        <time>2011-02-06T09:17:16Z</time>
      </trkpt>
      <trkpt lat="43.36387" lon="5.50567">
        <ele>222.924652</ele>
        <time>2011-02-06T09:17:22Z</time>
      </trkpt>
      <trkpt lat="43.36382" lon="5.5059">
        <ele>224.290359</ele>
        <time>2011-02-06T09:17:28Z</time>
      </trkpt>
      <trkpt lat="43.36373" lon="5.50617">
        <ele>226.418488</ele>
        <time>2011-02-06T09:17:37Z</time>
      </trkpt>
      <trkpt lat="43.36368" lon="5.50635">
        <ele>227.076157</ele>
        <time>2011-02-06T09:17:43Z</time>
      </trkpt>
      <trkpt lat="43.36367" lon="5.50657">
        <ele>227.673752</ele>
        <time>2011-02-06T09:17:49Z</time>
      </trkpt>
      <trkpt lat="43.36367" lon="5.50677">
        <ele>227.784607</ele>
        <time>2011-02-06T09:17:56Z</time>
      </trkpt>
      <trkpt lat="43.36367" lon="5.50698">
        <ele>227.837585</ele>
        <time>2011-02-06T09:18:02Z</time>
      </trkpt>
      <trkpt lat="43.3637" lon="5.50722">
        <ele>228.629822</ele>
        <time>2011-02-06T09:18:11Z</time>
      </trkpt>
      <trkpt lat="43.36377" lon="5.50785">
        <ele>231.322266</ele>
        <time>2011-02-06T09:18:31Z</time>
      </trkpt>
      <trkpt lat="43.36378" lon="5.50815">
        <ele>231.553711</ele>
        <time>2011-02-06T09:18:40Z</time>
      </trkpt>
      <trkpt lat="43.36382" lon="5.50838">
        <ele>231.412796</ele>
        <time>2011-02-06T09:18:47Z</time>
      </trkpt>
      <trkpt lat="43.36387" lon="5.50867">
        <ele>231.178909</ele>
        <time>2011-02-06T09:18:55Z</time>
      </trkpt>
      <trkpt lat="43.36388" lon="5.50887">
        <ele>232.330566</ele>
        <time>2011-02-06T09:19:02Z</time>
      </trkpt>
      <trkpt lat="43.3639" lon="5.50917">
        <ele>233.836334</ele>
        <time>2011-02-06T09:19:12Z</time>
      </trkpt>
      <trkpt lat="43.36395" lon="5.50948">
        <ele>237.248291</ele>
        <time>2011-02-06T09:19:22Z</time>
      </trkpt>
      <trkpt lat="43.36403" lon="5.5098">
        <ele>241.688431</ele>
        <time>2011-02-06T09:19:35Z</time>
      </trkpt>
      <trkpt lat="43.36407" lon="5.51">
        <ele>243.027435</ele>
        <time>2011-02-06T09:19:43Z</time>
      </trkpt>
      <trkpt lat="43.36408" lon="5.51033">
        <ele>243.864334</ele>
        <time>2011-02-06T09:19:51Z</time>
      </trkpt>
      <trkpt lat="43.3641" lon="5.51073">
        <ele>245.465561</ele>
        <time>2011-02-06T09:20:02Z</time>
      </trkpt>
      <trkpt lat="43.36405" lon="5.51098">
        <ele>245.613297</ele>
        <time>2011-02-06T09:20:08Z</time>
      </trkpt>
      <trkpt lat="43.364" lon="5.51123">
        <ele>245.598083</ele>
        <time>2011-02-06T09:20:14Z</time>
      </trkpt>
      <trkpt lat="43.36393" lon="5.5114">
        <ele>243.941162</ele>
        <time>2011-02-06T09:20:18Z</time>
      </trkpt>
      <trkpt lat="43.36383" lon="5.51157">
        <ele>241.912094</ele>
        <time>2011-02-06T09:20:23Z</time>
      </trkpt>
      <trkpt lat="43.36372" lon="5.51173">
        <ele>242.833282</ele>
        <time>2011-02-06T09:20:29Z</time>
      </trkpt>
      <trkpt lat="43.36358" lon="5.51185">
        <ele>245.545761</ele>
        <time>2011-02-06T09:20:35Z</time>
      </trkpt>
      <trkpt lat="43.36345" lon="5.512">
        <ele>245.855621</ele>
        <time>2011-02-06T09:20:41Z</time>
      </trkpt>
      <trkpt lat="43.36337" lon="5.51218">
        <ele>245.875473</ele>
        <time>2011-02-06T09:20:47Z</time>
      </trkpt>
      <trkpt lat="43.36323" lon="5.51248">
        <ele>247.682983</ele>
        <time>2011-02-06T09:20:56Z</time>
      </trkpt>
      <trkpt lat="43.36315" lon="5.51263">
        <ele>249.597443</ele>
        <time>2011-02-06T09:21:00Z</time>
      </trkpt>
      <trkpt lat="43.3631" lon="5.51285">
        <ele>250.739075</ele>
        <time>2011-02-06T09:21:07Z</time>
      </trkpt>
      <trkpt lat="43.36307" lon="5.51307">
        <ele>250.822144</ele>
        <time>2011-02-06T09:21:13Z</time>
      </trkpt>
      <trkpt lat="43.36313" lon="5.51327">
        <ele>250.808441</ele>
        <time>2011-02-06T09:21:22Z</time>
      </trkpt>
      <trkpt lat="43.363" lon="5.51333">
        <ele>252.242371</ele>
        <time>2011-02-06T09:21:57Z</time>
      </trkpt>
      <trkpt lat="43.36285" lon="5.51335">
        <ele>253.09314</ele>
        <time>2011-02-06T09:22:04Z</time>
      </trkpt>
      <trkpt lat="43.3627" lon="5.51335">
        <ele>255.787109</ele>
        <time>2011-02-06T09:22:10Z</time>
      </trkpt>
      <trkpt lat="43.36255" lon="5.51335">
        <ele>258.832031</ele>
        <time>2011-02-06T09:22:16Z</time>
      </trkpt>
      <trkpt lat="43.3624" lon="5.51345">
        <ele>262.633759</ele>
        <time>2011-02-06T09:22:27Z</time>
      </trkpt>
      <trkpt lat="43.36228" lon="5.51357">
        <ele>265.253784</ele>
        <time>2011-02-06T09:22:35Z</time>
      </trkpt>
      <trkpt lat="43.36215" lon="5.51368">
        <ele>265.954224</ele>
        <time>2011-02-06T09:22:46Z</time>
      </trkpt>
      <trkpt lat="43.36203" lon="5.51387">
        <ele>267.159851</ele>
        <time>2011-02-06T09:22:54Z</time>
      </trkpt>
      <trkpt lat="43.36188" lon="5.51395">
        <ele>269.467926</ele>
        <time>2011-02-06T09:23:03Z</time>
      </trkpt>
      <trkpt lat="43.36175" lon="5.51407">
        <ele>272.895844</ele>
        <time>2011-02-06T09:23:14Z</time>
      </trkpt>
      <trkpt lat="43.36167" lon="5.51423">
        <ele>275.182434</ele>
        <time>2011-02-06T09:23:25Z</time>
      </trkpt>
      <trkpt lat="43.36152" lon="5.51422">
        <ele>273.104858</ele>
        <time>2011-02-06T09:23:38Z</time>
      </trkpt>
      <trkpt lat="43.36135" lon="5.5143">
        <ele>272.862427</ele>
        <time>2011-02-06T09:23:55Z</time>
      </trkpt>
      <trkpt lat="43.36118" lon="5.51432">
        <ele>273.987671</ele>
        <time>2011-02-06T09:24:06Z</time>
      </trkpt>
      <trkpt lat="43.36103" lon="5.51435">
        <ele>274.804321</ele>
        <time>2011-02-06T09:24:15Z</time>
      </trkpt>
      <trkpt lat="43.36087" lon="5.51435">
        <ele>275.174347</ele>
        <time>2011-02-06T09:24:22Z</time>
      </trkpt>
      <trkpt lat="43.36075" lon="5.5145">
        <ele>276.913208</ele>
        <time>2011-02-06T09:24:35Z</time>
      </trkpt>
      <trkpt lat="43.36063" lon="5.51463">
        <ele>277.135742</ele>
        <time>2011-02-06T09:24:48Z</time>
      </trkpt>
      <trkpt lat="43.36073" lon="5.51448">
        <ele>276.630005</ele>
        <time>2011-02-06T09:28:19Z</time>
      </trkpt>
      <trkpt lat="43.36077" lon="5.51427">
        <ele>276.27475</ele>
        <time>2011-02-06T09:28:28Z</time>
      </trkpt>
      <trkpt lat="43.3608" lon="5.51403">
        <ele>280.387268</ele>
        <time>2011-02-06T09:28:36Z</time>
      </trkpt>
      <trkpt lat="43.36093" lon="5.5139">
        <ele>280.210388</ele>
        <time>2011-02-06T09:28:49Z</time>
      </trkpt>
      <trkpt lat="43.36107" lon="5.51385">
        <ele>278.308472</ele>
        <time>2011-02-06T09:29:00Z</time>
      </trkpt>
      <trkpt lat="43.36118" lon="5.51375">
        <ele>277.335144</ele>
        <time>2011-02-06T09:29:11Z</time>
      </trkpt>
      <trkpt lat="43.36132" lon="5.51365">
        <ele>279.431091</ele>
        <time>2011-02-06T09:29:22Z</time>
      </trkpt>
      <trkpt lat="43.36148" lon="5.51363">
        <ele>277.469452</ele>
        <time>2011-02-06T09:29:35Z</time>
      </trkpt>
      <trkpt lat="43.3616" lon="5.51348">
        <ele>280.34317</ele>
        <time>2011-02-06T09:29:46Z</time>
      </trkpt>
      <trkpt lat="43.36168" lon="5.5133">
        <ele>284.362244</ele>
        <time>2011-02-06T09:29:57Z</time>
      </trkpt>
      <trkpt lat="43.36175" lon="5.51307">
        <ele>289.558502</ele>
        <time>2011-02-06T09:30:10Z</time>
      </trkpt>
      <trkpt lat="43.36188" lon="5.51293">
        <ele>289.043976</ele>
        <time>2011-02-06T09:30:22Z</time>
      </trkpt>
      <trkpt lat="43.36202" lon="5.5128">
        <ele>288.203186</ele>
        <time>2011-02-06T09:30:35Z</time>
      </trkpt>
      <trkpt lat="43.36207" lon="5.5126">
        <ele>292.445892</ele>
        <time>2011-02-06T09:30:46Z</time>
      </trkpt>
      <trkpt lat="43.36208" lon="5.51238">
        <ele>295.447662</ele>
        <time>2011-02-06T09:30:56Z</time>
      </trkpt>
      <trkpt lat="43.36208" lon="5.51218">
        <ele>298.15033</ele>
        <time>2011-02-06T09:31:07Z</time>
      </trkpt>
      <trkpt lat="43.36208" lon="5.51198">
        <ele>300.835938</ele>
        <time>2011-02-06T09:31:15Z</time>
      </trkpt>
      <trkpt lat="43.3621" lon="5.51178">
        <ele>302.649475</ele>
        <time>2011-02-06T09:31:26Z</time>
      </trkpt>
      <trkpt lat="43.36213" lon="5.5116">
        <ele>303.51532</ele>
        <time>2011-02-06T09:31:35Z</time>
      </trkpt>
      <trkpt lat="43.36215" lon="5.51137">
        <ele>305.632874</ele>
        <time>2011-02-06T09:31:45Z</time>
      </trkpt>
      <trkpt lat="43.36217" lon="5.51113">
        <ele>306.63623</ele>
        <time>2011-02-06T09:31:57Z</time>
      </trkpt>
      <trkpt lat="43.36215" lon="5.51092">
        <ele>308.615021</ele>
        <time>2011-02-06T09:32:08Z</time>
      </trkpt>
      <trkpt lat="43.36215" lon="5.51072">
        <ele>309.801849</ele>
        <time>2011-02-06T09:32:18Z</time>
      </trkpt>
      <trkpt lat="43.36212" lon="5.5105">
        <ele>310.452972</ele>
        <time>2011-02-06T09:32:29Z</time>
      </trkpt>
      <trkpt lat="43.36208" lon="5.51025">
        <ele>310.77533</ele>
        <time>2011-02-06T09:32:39Z</time>
      </trkpt>
      <trkpt lat="43.362" lon="5.51007">
        <ele>312.026611</ele>
        <time>2011-02-06T09:32:50Z</time>
      </trkpt>
      <trkpt lat="43.36187" lon="5.50997">
        <ele>312.096558</ele>
        <time>2011-02-06T09:32:59Z</time>
      </trkpt>
      <trkpt lat="43.36172" lon="5.51003">
        <ele>316.3172</ele>
        <time>2011-02-06T09:33:09Z</time>
      </trkpt>
      <trkpt lat="43.36157" lon="5.51012">
        <ele>320.978668</ele>
        <time>2011-02-06T09:33:20Z</time>
      </trkpt>
      <trkpt lat="43.36142" lon="5.5101">
        <ele>321.643097</ele>
        <time>2011-02-06T09:33:30Z</time>
      </trkpt>
      <trkpt lat="43.36123" lon="5.51007">
        <ele>322.056213</ele>
        <time>2011-02-06T09:33:43Z</time>
      </trkpt>
      <trkpt lat="43.36108" lon="5.51005">
        <ele>322.459137</ele>
        <time>2011-02-06T09:33:52Z</time>
      </trkpt>
      <trkpt lat="43.36093" lon="5.51007">
        <ele>323.553192</ele>
        <time>2011-02-06T09:34:02Z</time>
      </trkpt>
      <trkpt lat="43.36078" lon="5.51008">
        <ele>324.728088</ele>
        <time>2011-02-06T09:34:13Z</time>
      </trkpt>
      <trkpt lat="43.36063" lon="5.5101">
        <ele>326.48349</ele>
        <time>2011-02-06T09:34:23Z</time>
      </trkpt>
      <trkpt lat="43.36047" lon="5.51012">
        <ele>329.775726</ele>
        <time>2011-02-06T09:34:34Z</time>
      </trkpt>
      <trkpt lat="43.36032" lon="5.51012">
        <ele>332.20752</ele>
        <time>2011-02-06T09:34:43Z</time>
      </trkpt>
      <trkpt lat="43.36027" lon="5.5099">
        <ele>329.316101</ele>
        <time>2011-02-06T09:34:53Z</time>
      </trkpt>
      <trkpt lat="43.3602" lon="5.50973">
        <ele>328.20636</ele>
        <time>2011-02-06T09:35:01Z</time>
      </trkpt>
      <trkpt lat="43.36007" lon="5.50977">
        <ele>329.266754</ele>
        <time>2011-02-06T09:35:10Z</time>
      </trkpt>
      <trkpt lat="43.3599" lon="5.50985">
        <ele>331.998932</ele>
        <time>2011-02-06T09:35:20Z</time>
      </trkpt>
      <trkpt lat="43.35977" lon="5.5099">
        <ele>333.862244</ele>
        <time>2011-02-06T09:35:31Z</time>
      </trkpt>
      <trkpt lat="43.35968" lon="5.51007">
        <ele>335.029785</ele>
        <time>2011-02-06T09:35:40Z</time>
      </trkpt>
      <trkpt lat="43.35963" lon="5.51027">
        <ele>338.108398</ele>
        <time>2011-02-06T09:35:51Z</time>
      </trkpt>
      <trkpt lat="43.35953" lon="5.51043">
        <ele>339.578125</ele>
        <time>2011-02-06T09:36:01Z</time>
      </trkpt>
      <trkpt lat="43.3594" lon="5.5106">
        <ele>341.015717</ele>
        <time>2011-02-06T09:36:11Z</time>
      </trkpt>
      <trkpt lat="43.35928" lon="5.51077">
        <ele>342.860352</ele>
        <time>2011-02-06T09:36:22Z</time>
      </trkpt>
      <trkpt lat="43.35925" lon="5.51097">
        <ele>347.355988</ele>
        <time>2011-02-06T09:36:31Z</time>
      </trkpt>
      <trkpt lat="43.35917" lon="5.51112">
        <ele>349.306549</ele>
        <time>2011-02-06T09:36:39Z</time>
      </trkpt>
      <trkpt lat="43.35903" lon="5.51125">
        <ele>350.007935</ele>
        <time>2011-02-06T09:36:50Z</time>
      </trkpt>
      <trkpt lat="43.35893" lon="5.5114">
        <ele>352.648132</ele>
        <time>2011-02-06T09:37:00Z</time>
      </trkpt>
      <trkpt lat="43.3588" lon="5.51145">
        <ele>352.967194</ele>
        <time>2011-02-06T09:37:09Z</time>
      </trkpt>
      <trkpt lat="43.35868" lon="5.51133">
        <ele>351.010284</ele>
        <time>2011-02-06T09:37:17Z</time>
      </trkpt>
      <trkpt lat="43.35857" lon="5.51118">
        <ele>348.061249</ele>
        <time>2011-02-06T09:37:28Z</time>
      </trkpt>
      <trkpt lat="43.35843" lon="5.51115">
        <ele>349.280548</ele>
        <time>2011-02-06T09:37:36Z</time>
      </trkpt>
      <trkpt lat="43.3583" lon="5.5112">
        <ele>352.094238</ele>
        <time>2011-02-06T09:37:45Z</time>
      </trkpt>
      <trkpt lat="43.35813" lon="5.51123">
        <ele>354.295471</ele>
        <time>2011-02-06T09:37:53Z</time>
      </trkpt>
      <trkpt lat="43.35798" lon="5.51123">
        <ele>355.304016</ele>
        <time>2011-02-06T09:38:02Z</time>
      </trkpt>
      <trkpt lat="43.35783" lon="5.51122">
        <ele>356.400238</ele>
        <time>2011-02-06T09:38:10Z</time>
      </trkpt>
      <trkpt lat="43.3577" lon="5.51128">
        <ele>359.99707</ele>
        <time>2011-02-06T09:38:17Z</time>
      </trkpt>
      <trkpt lat="43.35753" lon="5.51138">
        <ele>363.445038</ele>
        <time>2011-02-06T09:38:25Z</time>
      </trkpt>
      <trkpt lat="43.35747" lon="5.5112">
        <ele>361.611725</ele>
        <time>2011-02-06T09:38:34Z</time>
      </trkpt>
      <trkpt lat="43.35752" lon="5.51095">
        <ele>360.161377</ele>
        <time>2011-02-06T09:38:40Z</time>
      </trkpt>
      <trkpt lat="43.3576" lon="5.51075">
        <ele>361.144562</ele>
        <time>2011-02-06T09:38:47Z</time>
      </trkpt>
      <trkpt lat="43.3577" lon="5.51058">
        <ele>358.73288</ele>
        <time>2011-02-06T09:38:53Z</time>
      </trkpt>
      <trkpt lat="43.35778" lon="5.51042">
        <ele>356.331543</ele>
        <time>2011-02-06T09:38:57Z</time>
      </trkpt>
      <trkpt lat="43.35788" lon="5.51022">
        <ele>355.731476</ele>
        <time>2011-02-06T09:39:04Z</time>
      </trkpt>
      <trkpt lat="43.35797" lon="5.51">
        <ele>356.434692</ele>
        <time>2011-02-06T09:39:10Z</time>
      </trkpt>
      <trkpt lat="43.35813" lon="5.50952">
        <ele>354.788544</ele>
        <time>2011-02-06T09:39:23Z</time>
      </trkpt>
      <trkpt lat="43.35817" lon="5.50928">
        <ele>356.165192</ele>
        <time>2011-02-06T09:39:29Z</time>
      </trkpt>
      <trkpt lat="43.35817" lon="5.50907">
        <ele>355.812988</ele>
        <time>2011-02-06T09:39:34Z</time>
      </trkpt>
      <trkpt lat="43.35813" lon="5.5088">
        <ele>356.845917</ele>
        <time>2011-02-06T09:39:40Z</time>
      </trkpt>
      <trkpt lat="43.35812" lon="5.50848">
        <ele>353.868042</ele>
        <time>2011-02-06T09:39:48Z</time>
      </trkpt>
      <trkpt lat="43.358" lon="5.50838">
        <ele>355.508789</ele>
        <time>2011-02-06T09:39:56Z</time>
      </trkpt>
      <trkpt lat="43.35785" lon="5.50843">
        <ele>356.567566</ele>
        <time>2011-02-06T09:40:07Z</time>
      </trkpt>
      <trkpt lat="43.35768" lon="5.5085">
        <ele>358.938354</ele>
        <time>2011-02-06T09:40:13Z</time>
      </trkpt>
      <trkpt lat="43.35755" lon="5.50857">
        <ele>361.612396</ele>
        <time>2011-02-06T09:40:20Z</time>
      </trkpt>
      <trkpt lat="43.35742" lon="5.5087">
        <ele>364.599701</ele>
        <time>2011-02-06T09:40:28Z</time>
      </trkpt>
      <trkpt lat="43.35728" lon="5.50882">
        <ele>367.513153</ele>
        <time>2011-02-06T09:40:35Z</time>
      </trkpt>
      <trkpt lat="43.3571" lon="5.50888">
        <ele>368.202545</ele>
        <time>2011-02-06T09:40:44Z</time>
      </trkpt>
      <trkpt lat="43.35695" lon="5.50892">
        <ele>365.39447</ele>
        <time>2011-02-06T09:40:50Z</time>
      </trkpt>
      <trkpt lat="43.35682" lon="5.50905">
        <ele>366.586426</ele>
        <time>2011-02-06T09:40:57Z</time>
      </trkpt>
      <trkpt lat="43.35673" lon="5.50922">
        <ele>369.256195</ele>
        <time>2011-02-06T09:41:03Z</time>
      </trkpt>
      <trkpt lat="43.35667" lon="5.50943">
        <ele>371.723328</ele>
        <time>2011-02-06T09:41:09Z</time>
      </trkpt>
      <trkpt lat="43.35662" lon="5.50962">
        <ele>374.787537</ele>
        <time>2011-02-06T09:41:16Z</time>
      </trkpt>
      <trkpt lat="43.35648" lon="5.50972">
        <ele>376.185059</ele>
        <time>2011-02-06T09:41:22Z</time>
      </trkpt>
      <trkpt lat="43.35632" lon="5.5097">
        <ele>374.514954</ele>
        <time>2011-02-06T09:41:31Z</time>
      </trkpt>
      <trkpt lat="43.35615" lon="5.50968">
        <ele>372.765564</ele>
        <time>2011-02-06T09:41:39Z</time>
      </trkpt>
      <trkpt lat="43.35598" lon="5.50972">
        <ele>372.794373</ele>
        <time>2011-02-06T09:41:48Z</time>
      </trkpt>
      <trkpt lat="43.35583" lon="5.50978">
        <ele>374.336365</ele>
        <time>2011-02-06T09:41:58Z</time>
      </trkpt>
      <trkpt lat="43.35565" lon="5.50987">
        <ele>376.398071</ele>
        <time>2011-02-06T09:42:11Z</time>
      </trkpt>
      <trkpt lat="43.35552" lon="5.50993">
        <ele>378.06076</ele>
        <time>2011-02-06T09:42:19Z</time>
      </trkpt>
      <trkpt lat="43.35537" lon="5.51">
        <ele>379.663727</ele>
        <time>2011-02-06T09:42:30Z</time>
      </trkpt>
      <trkpt lat="43.35522" lon="5.51007">
        <ele>382.303223</ele>
        <time>2011-02-06T09:42:40Z</time>
      </trkpt>
      <trkpt lat="43.35508" lon="5.51013">
        <ele>385.492737</ele>
        <time>2011-02-06T09:42:51Z</time>
      </trkpt>
      <trkpt lat="43.35493" lon="5.51022">
        <ele>388.208801</ele>
        <time>2011-02-06T09:43:01Z</time>
      </trkpt>
      <trkpt lat="43.3548" lon="5.51012">
        <ele>386.872192</ele>
        <time>2011-02-06T09:43:10Z</time>
      </trkpt>
      <trkpt lat="43.35478" lon="5.5099">
        <ele>383.548553</ele>
        <time>2011-02-06T09:43:18Z</time>
      </trkpt>
      <trkpt lat="43.35473" lon="5.50948">
        <ele>382.849884</ele>
        <time>2011-02-06T09:43:35Z</time>
      </trkpt>
      <trkpt lat="43.35472" lon="5.50923">
        <ele>384.219635</ele>
        <time>2011-02-06T09:43:43Z</time>
      </trkpt>
      <trkpt lat="43.35472" lon="5.50903">
        <ele>384.752502</ele>
        <time>2011-02-06T09:43:52Z</time>
      </trkpt>
      <trkpt lat="43.35472" lon="5.50865">
        <ele>386.771301</ele>
        <time>2011-02-06T09:44:09Z</time>
      </trkpt>
      <trkpt lat="43.35468" lon="5.50845">
        <ele>389.161163</ele>
        <time>2011-02-06T09:44:19Z</time>
      </trkpt>
      <trkpt lat="43.3546" lon="5.50827">
        <ele>391.101654</ele>
        <time>2011-02-06T09:44:30Z</time>
      </trkpt>
      <trkpt lat="43.35453" lon="5.50805">
        <ele>392.6521</ele>
        <time>2011-02-06T09:44:40Z</time>
      </trkpt>
      <trkpt lat="43.3545" lon="5.50785">
        <ele>393.118103</ele>
        <time>2011-02-06T09:44:51Z</time>
      </trkpt>
      <trkpt lat="43.35447" lon="5.50762">
        <ele>397.241608</ele>
        <time>2011-02-06T09:45:02Z</time>
      </trkpt>
      <trkpt lat="43.35452" lon="5.5074">
        <ele>397.584564</ele>
        <time>2011-02-06T09:45:12Z</time>
      </trkpt>
      <trkpt lat="43.35458" lon="5.50722">
        <ele>397.399231</ele>
        <time>2011-02-06T09:45:23Z</time>
      </trkpt>
      <trkpt lat="43.35468" lon="5.50705">
        <ele>396.503693</ele>
        <time>2011-02-06T09:45:33Z</time>
      </trkpt>
      <trkpt lat="43.3548" lon="5.5069">
        <ele>396.561493</ele>
        <time>2011-02-06T09:45:43Z</time>
      </trkpt>
      <trkpt lat="43.35488" lon="5.50675">
        <ele>398.797729</ele>
        <time>2011-02-06T09:45:52Z</time>
      </trkpt>
      <trkpt lat="43.355" lon="5.50655">
        <ele>399.695862</ele>
        <time>2011-02-06T09:46:05Z</time>
      </trkpt>
      <trkpt lat="43.35487" lon="5.5065">
        <ele>401.25351</ele>
        <time>2011-02-06T09:46:17Z</time>
      </trkpt>
      <trkpt lat="43.35475" lon="5.50663">
        <ele>402.680786</ele>
        <time>2011-02-06T09:46:28Z</time>
      </trkpt>
      <trkpt lat="43.3546" lon="5.50672">
        <ele>402.863708</ele>
        <time>2011-02-06T09:46:38Z</time>
      </trkpt>
      <trkpt lat="43.35447" lon="5.50677">
        <ele>404.224884</ele>
        <time>2011-02-06T09:46:51Z</time>
      </trkpt>
      <trkpt lat="43.35433" lon="5.50682">
        <ele>405.327393</ele>
        <time>2011-02-06T09:47:02Z</time>
      </trkpt>
      <trkpt lat="43.35418" lon="5.50688">
        <ele>407.046417</ele>
        <time>2011-02-06T09:47:14Z</time>
      </trkpt>
      <trkpt lat="43.35407" lon="5.507">
        <ele>409.088989</ele>
        <time>2011-02-06T09:47:27Z</time>
      </trkpt>
      <trkpt lat="43.35398" lon="5.50715">
        <ele>410.181488</ele>
        <time>2011-02-06T09:47:35Z</time>
      </trkpt>
      <trkpt lat="43.35392" lon="5.50733">
        <ele>410.528595</ele>
        <time>2011-02-06T09:47:44Z</time>
      </trkpt>
      <trkpt lat="43.35388" lon="5.50753">
        <ele>412.01532</ele>
        <time>2011-02-06T09:47:52Z</time>
      </trkpt>
      <trkpt lat="43.35387" lon="5.50777">
        <ele>414.202118</ele>
        <time>2011-02-06T09:48:01Z</time>
      </trkpt>
      <trkpt lat="43.35382" lon="5.50797">
        <ele>415.102051</ele>
        <time>2011-02-06T09:52:36Z</time>
      </trkpt>
      <trkpt lat="43.35382" lon="5.5082">
        <ele>416.268585</ele>
        <time>2011-02-06T09:52:44Z</time>
      </trkpt>
      <trkpt lat="43.35383" lon="5.50843">
        <ele>417.309021</ele>
        <time>2011-02-06T09:52:53Z</time>
      </trkpt>
      <trkpt lat="43.35388" lon="5.50902">
        <ele>416.66568</ele>
        <time>2011-02-06T09:53:10Z</time>
      </trkpt>
      <trkpt lat="43.35388" lon="5.5093">
        <ele>414.821472</ele>
        <time>2011-02-06T09:53:16Z</time>
      </trkpt>
      <trkpt lat="43.35385" lon="5.50957">
        <ele>412.848297</ele>
        <time>2011-02-06T09:53:20Z</time>
      </trkpt>
      <trkpt lat="43.35385" lon="5.50978">
        <ele>411.983643</ele>
        <time>2011-02-06T09:53:25Z</time>
      </trkpt>
      <trkpt lat="43.35385" lon="5.50998">
        <ele>411.429932</ele>
        <time>2011-02-06T09:53:29Z</time>
      </trkpt>
      <trkpt lat="43.35387" lon="5.5102">
        <ele>410.900574</ele>
        <time>2011-02-06T09:53:33Z</time>
      </trkpt>
      <trkpt lat="43.35383" lon="5.51047">
        <ele>412.999176</ele>
        <time>2011-02-06T09:53:39Z</time>
      </trkpt>
      <trkpt lat="43.3538" lon="5.51078">
        <ele>416.36731</ele>
        <time>2011-02-06T09:53:48Z</time>
      </trkpt>
      <trkpt lat="43.35372" lon="5.51098">
        <ele>418.224213</ele>
        <time>2011-02-06T09:53:55Z</time>
      </trkpt>
      <trkpt lat="43.35365" lon="5.51115">
        <ele>419.926758</ele>
        <time>2011-02-06T09:54:01Z</time>
      </trkpt>
      <trkpt lat="43.35375" lon="5.5113">
        <ele>422.229065</ele>
        <time>2011-02-06T09:54:07Z</time>
      </trkpt>
      <trkpt lat="43.35385" lon="5.51148">
        <ele>424.81015</ele>
        <time>2011-02-06T09:54:16Z</time>
      </trkpt>
      <trkpt lat="43.35395" lon="5.51167">
        <ele>428.161346</ele>
        <time>2011-02-06T09:54:24Z</time>
      </trkpt>
      <trkpt lat="43.35407" lon="5.51178">
        <ele>430.465088</ele>
        <time>2011-02-06T09:54:33Z</time>
      </trkpt>
      <trkpt lat="43.35422" lon="5.51187">
        <ele>432.463379</ele>
        <time>2011-02-06T09:54:43Z</time>
      </trkpt>
      <trkpt lat="43.35437" lon="5.5119">
        <ele>433.353119</ele>
        <time>2011-02-06T09:54:56Z</time>
      </trkpt>
      <trkpt lat="43.35453" lon="5.51193">
        <ele>433.678192</ele>
        <time>2011-02-06T09:55:08Z</time>
      </trkpt>
      <trkpt lat="43.35467" lon="5.51198">
        <ele>434.305145</ele>
        <time>2011-02-06T09:55:21Z</time>
      </trkpt>
      <trkpt lat="43.35478" lon="5.5121">
        <ele>435.910828</ele>
        <time>2011-02-06T09:55:34Z</time>
      </trkpt>
      <trkpt lat="43.35487" lon="5.51227">
        <ele>436.934662</ele>
        <time>2011-02-06T09:55:46Z</time>
      </trkpt>
      <trkpt lat="43.35485" lon="5.5125">
        <ele>439.405914</ele>
        <time>2011-02-06T09:55:59Z</time>
      </trkpt>
      <trkpt lat="43.35482" lon="5.51275">
        <ele>442.440796</ele>
        <time>2011-02-06T09:56:16Z</time>
      </trkpt>
      <trkpt lat="43.35482" lon="5.51298">
        <ele>444.588837</ele>
        <time>2011-02-06T09:56:33Z</time>
      </trkpt>
      <trkpt lat="43.35485" lon="5.51318">
        <ele>445.73291</ele>
        <time>2011-02-06T09:56:46Z</time>
      </trkpt>
      <trkpt lat="43.3549" lon="5.51337">
        <ele>446.381989</ele>
        <time>2011-02-06T09:56:54Z</time>
      </trkpt>
      <trkpt lat="43.35495" lon="5.51357">
        <ele>446.486755</ele>
        <time>2011-02-06T09:57:05Z</time>
      </trkpt>
      <trkpt lat="43.355" lon="5.5138">
        <ele>446.575592</ele>
        <time>2011-02-06T09:57:15Z</time>
      </trkpt>
      <trkpt lat="43.35503" lon="5.514">
        <ele>446.790405</ele>
        <time>2011-02-06T09:57:24Z</time>
      </trkpt>
      <trkpt lat="43.355" lon="5.51422">
        <ele>445.411957</ele>
        <time>2011-02-06T09:57:32Z</time>
      </trkpt>
      <trkpt lat="43.35492" lon="5.5144">
        <ele>445.783936</ele>
        <time>2011-02-06T09:57:39Z</time>
      </trkpt>
      <trkpt lat="43.35485" lon="5.51458">
        <ele>446.14682</ele>
        <time>2011-02-06T09:57:45Z</time>
      </trkpt>
      <trkpt lat="43.35475" lon="5.51478">
        <ele>445.953094</ele>
        <time>2011-02-06T09:57:52Z</time>
      </trkpt>
      <trkpt lat="43.35467" lon="5.51497">
        <ele>445.729004</ele>
        <time>2011-02-06T09:57:58Z</time>
      </trkpt>
      <trkpt lat="43.35455" lon="5.51515">
        <ele>446.260986</ele>
        <time>2011-02-06T09:58:04Z</time>
      </trkpt>
      <trkpt lat="43.35445" lon="5.51535">
        <ele>448.334473</ele>
        <time>2011-02-06T09:58:11Z</time>
      </trkpt>
      <trkpt lat="43.35437" lon="5.51563">
        <ele>450.264526</ele>
        <time>2011-02-06T09:58:17Z</time>
      </trkpt>
      <trkpt lat="43.35438" lon="5.51588">
        <ele>449.733734</ele>
        <time>2011-02-06T09:58:24Z</time>
      </trkpt>
      <trkpt lat="43.35448" lon="5.5161">
        <ele>449.23175</ele>
        <time>2011-02-06T09:58:30Z</time>
      </trkpt>
      <trkpt lat="43.3546" lon="5.51623">
        <ele>448.526215</ele>
        <time>2011-02-06T09:58:34Z</time>
      </trkpt>
      <trkpt lat="43.35473" lon="5.51642">
        <ele>448.534637</ele>
        <time>2011-02-06T09:58:41Z</time>
      </trkpt>
      <trkpt lat="43.35488" lon="5.5166">
        <ele>447.565521</ele>
        <time>2011-02-06T09:58:47Z</time>
      </trkpt>
      <trkpt lat="43.35502" lon="5.5168">
        <ele>447.0242</ele>
        <time>2011-02-06T09:58:53Z</time>
      </trkpt>
      <trkpt lat="43.3551" lon="5.51708">
        <ele>448.065521</ele>
        <time>2011-02-06T09:58:59Z</time>
      </trkpt>
      <trkpt lat="43.35512" lon="5.51728">
        <ele>447.048187</ele>
        <time>2011-02-06T09:59:04Z</time>
      </trkpt>
      <trkpt lat="43.3551" lon="5.5175">
        <ele>446.615967</ele>
        <time>2011-02-06T09:59:08Z</time>
      </trkpt>
      <trkpt lat="43.35503" lon="5.5177">
        <ele>447.35202</ele>
        <time>2011-02-06T09:59:12Z</time>
      </trkpt>
      <trkpt lat="43.35495" lon="5.51788">
        <ele>446.822083</ele>
        <time>2011-02-06T09:59:16Z</time>
      </trkpt>
      <trkpt lat="43.35483" lon="5.51805">
        <ele>446.875763</ele>
        <time>2011-02-06T09:59:21Z</time>
      </trkpt>
      <trkpt lat="43.3547" lon="5.51817">
        <ele>447.689728</ele>
        <time>2011-02-06T09:59:25Z</time>
      </trkpt>
      <trkpt lat="43.35458" lon="5.51833">
        <ele>447.603058</ele>
        <time>2011-02-06T09:59:29Z</time>
      </trkpt>
      <trkpt lat="43.35452" lon="5.51852">
        <ele>445.971405</ele>
        <time>2011-02-06T09:59:33Z</time>
      </trkpt>
      <trkpt lat="43.35445" lon="5.51873">
        <ele>444.125732</ele>
        <time>2011-02-06T09:59:37Z</time>
      </trkpt>
      <trkpt lat="43.35437" lon="5.51892">
        <ele>443.301178</ele>
        <time>2011-02-06T09:59:42Z</time>
      </trkpt>
      <trkpt lat="43.35427" lon="5.51907">
        <ele>442.658722</ele>
        <time>2011-02-06T09:59:46Z</time>
      </trkpt>
      <trkpt lat="43.3541" lon="5.51932">
        <ele>443.677734</ele>
        <time>2011-02-06T09:59:52Z</time>
      </trkpt>
      <trkpt lat="43.35402" lon="5.5195">
        <ele>443.679504</ele>
        <time>2011-02-06T09:59:56Z</time>
      </trkpt>
      <trkpt lat="43.35395" lon="5.51977">
        <ele>442.029602</ele>
        <time>2011-02-06T10:00:00Z</time>
      </trkpt>
      <trkpt lat="43.35393" lon="5.52">
        <ele>439.257446</ele>
        <time>2011-02-06T10:00:05Z</time>
      </trkpt>
      <trkpt lat="43.35385" lon="5.52018">
        <ele>438.129333</ele>
        <time>2011-02-06T10:00:09Z</time>
      </trkpt>
      <trkpt lat="43.3537" lon="5.52025">
        <ele>439.373169</ele>
        <time>2011-02-06T10:00:13Z</time>
      </trkpt>
      <trkpt lat="43.35355" lon="5.5202">
        <ele>441.808472</ele>
        <time>2011-02-06T10:00:17Z</time>
      </trkpt>
      <trkpt lat="43.35323" lon="5.5201">
        <ele>442.803284</ele>
        <time>2011-02-06T10:00:25Z</time>
      </trkpt>
      <trkpt lat="43.35308" lon="5.5201">
        <ele>442.222565</ele>
        <time>2011-02-06T10:00:30Z</time>
      </trkpt>
      <trkpt lat="43.35292" lon="5.52015">
        <ele>441.850891</ele>
        <time>2011-02-06T10:00:36Z</time>
      </trkpt>
      <trkpt lat="43.35277" lon="5.5202">
        <ele>442.716003</ele>
        <time>2011-02-06T10:00:43Z</time>
      </trkpt>
      <trkpt lat="43.35262" lon="5.52018">
        <ele>443.528107</ele>
        <time>2011-02-06T10:00:49Z</time>
      </trkpt>
      <trkpt lat="43.35242" lon="5.52015">
        <ele>444.292786</ele>
        <time>2011-02-06T10:00:57Z</time>
      </trkpt>
      <trkpt lat="43.35227" lon="5.52013">
        <ele>444.935699</ele>
        <time>2011-02-06T10:01:04Z</time>
      </trkpt>
      <trkpt lat="43.35215" lon="5.52023">
        <ele>448.143188</ele>
        <time>2011-02-06T10:01:10Z</time>
      </trkpt>
      <trkpt lat="43.35195" lon="5.52045">
        <ele>453.278717</ele>
        <time>2011-02-06T10:01:20Z</time>
      </trkpt>
      <trkpt lat="43.3518" lon="5.5204">
        <ele>453.013947</ele>
        <time>2011-02-06T10:01:29Z</time>
      </trkpt>
      <trkpt lat="43.35177" lon="5.52017">
        <ele>450.145874</ele>
        <time>2011-02-06T10:01:35Z</time>
      </trkpt>
      <trkpt lat="43.35162" lon="5.51995">
        <ele>449.886719</ele>
        <time>2011-02-06T10:01:41Z</time>
      </trkpt>
      <trkpt lat="43.35145" lon="5.51977">
        <ele>449.432922</ele>
        <time>2011-02-06T10:01:48Z</time>
      </trkpt>
      <trkpt lat="43.35133" lon="5.51963">
        <ele>448.839478</ele>
        <time>2011-02-06T10:01:52Z</time>
      </trkpt>
      <trkpt lat="43.35122" lon="5.51945">
        <ele>446.70401</ele>
        <time>2011-02-06T10:01:56Z</time>
      </trkpt>
      <trkpt lat="43.3511" lon="5.51927">
        <ele>444.810272</ele>
        <time>2011-02-06T10:02:00Z</time>
      </trkpt>
      <trkpt lat="43.35088" lon="5.5191">
        <ele>443.775726</ele>
        <time>2011-02-06T10:02:04Z</time>
      </trkpt>
      <trkpt lat="43.35068" lon="5.51912">
        <ele>443.669067</ele>
        <time>2011-02-06T10:02:09Z</time>
      </trkpt>
      <trkpt lat="43.3503" lon="5.5192">
        <ele>443.365173</ele>
        <time>2011-02-06T10:02:17Z</time>
      </trkpt>
      <trkpt lat="43.3501" lon="5.51928">
        <ele>444.272461</ele>
        <time>2011-02-06T10:02:21Z</time>
      </trkpt>
      <trkpt lat="43.3497" lon="5.51943">
        <ele>443.084961</ele>
        <time>2011-02-06T10:02:27Z</time>
      </trkpt>
      <trkpt lat="43.34948" lon="5.51955">
        <ele>442.520752</ele>
        <time>2011-02-06T10:02:32Z</time>
      </trkpt>
      <trkpt lat="43.34925" lon="5.51968">
        <ele>441.455383</ele>
        <time>2011-02-06T10:02:36Z</time>
      </trkpt>
      <trkpt lat="43.34897" lon="5.51992">
        <ele>440.990417</ele>
        <time>2011-02-06T10:02:40Z</time>
      </trkpt>
      <trkpt lat="43.34888" lon="5.52007">
        <ele>441.919708</ele>
        <time>2011-02-06T10:02:43Z</time>
      </trkpt>
      <trkpt lat="43.3487" lon="5.5203">
        <ele>440.384308</ele>
        <time>2011-02-06T10:02:47Z</time>
      </trkpt>
      <trkpt lat="43.34857" lon="5.52052">
        <ele>445.087189</ele>
        <time>2011-02-06T10:03:05Z</time>
      </trkpt>
      <trkpt lat="43.34847" lon="5.52035">
        <ele>444.633881</ele>
        <time>2011-02-06T10:03:14Z</time>
      </trkpt>
      <trkpt lat="43.34852" lon="5.52007">
        <ele>440.991882</ele>
        <time>2011-02-06T10:03:20Z</time>
      </trkpt>
      <trkpt lat="43.34853" lon="5.51977">
        <ele>438.039948</ele>
        <time>2011-02-06T10:03:24Z</time>
      </trkpt>
      <trkpt lat="43.34853" lon="5.51953">
        <ele>437.710236</ele>
        <time>2011-02-06T10:03:29Z</time>
      </trkpt>
      <trkpt lat="43.34855" lon="5.51928">
        <ele>436.551178</ele>
        <time>2011-02-06T10:03:33Z</time>
      </trkpt>
      <trkpt lat="43.34858" lon="5.51903">
        <ele>436.559967</ele>
        <time>2011-02-06T10:03:37Z</time>
      </trkpt>
      <trkpt lat="43.34868" lon="5.51875">
        <ele>434.06424</ele>
        <time>2011-02-06T10:03:41Z</time>
      </trkpt>
      <trkpt lat="43.34878" lon="5.51852">
        <ele>432.145386</ele>
        <time>2011-02-06T10:03:46Z</time>
      </trkpt>
      <trkpt lat="43.34888" lon="5.51828">
        <ele>431.941406</ele>
        <time>2011-02-06T10:03:50Z</time>
      </trkpt>
      <trkpt lat="43.349" lon="5.51807">
        <ele>430.229645</ele>
        <time>2011-02-06T10:03:54Z</time>
      </trkpt>
      <trkpt lat="43.34935" lon="5.51743">
        <ele>426.387543</ele>
        <time>2011-02-06T10:04:05Z</time>
      </trkpt>
      <trkpt lat="43.34942" lon="5.51725">
        <ele>425.505463</ele>
        <time>2011-02-06T10:04:09Z</time>
      </trkpt>
      <trkpt lat="43.34947" lon="5.51695">
        <ele>426.773712</ele>
        <time>2011-02-06T10:04:15Z</time>
      </trkpt>
      <trkpt lat="43.34945" lon="5.51673">
        <ele>428.823792</ele>
        <time>2011-02-06T10:04:20Z</time>
      </trkpt>
      <trkpt lat="43.34943" lon="5.5165">
        <ele>427.059448</ele>
        <time>2011-02-06T10:04:24Z</time>
      </trkpt>
      <trkpt lat="43.34937" lon="5.51627">
        <ele>427.063995</ele>
        <time>2011-02-06T10:04:28Z</time>
      </trkpt>
      <trkpt lat="43.34928" lon="5.5161">
        <ele>427.395508</ele>
        <time>2011-02-06T10:04:30Z</time>
      </trkpt>
      <trkpt lat="43.3491" lon="5.51577">
        <ele>425.086914</ele>
        <time>2011-02-06T10:04:37Z</time>
      </trkpt>
      <trkpt lat="43.34897" lon="5.51555">
        <ele>422.815033</ele>
        <time>2011-02-06T10:04:41Z</time>
      </trkpt>
      <trkpt lat="43.3488" lon="5.51535">
        <ele>421.778412</ele>
        <time>2011-02-06T10:04:45Z</time>
      </trkpt>
      <trkpt lat="43.34852" lon="5.51498">
        <ele>420.317841</ele>
        <time>2011-02-06T10:04:51Z</time>
      </trkpt>
      <trkpt lat="43.34837" lon="5.5147">
        <ele>416.907959</ele>
        <time>2011-02-06T10:04:56Z</time>
      </trkpt>
      <trkpt lat="43.34827" lon="5.5144">
        <ele>412.536469</ele>
        <time>2011-02-06T10:05:00Z</time>
      </trkpt>
      <trkpt lat="43.3482" lon="5.5141">
        <ele>407.701721</ele>
        <time>2011-02-06T10:05:04Z</time>
      </trkpt>
      <trkpt lat="43.3481" lon="5.51383">
        <ele>403.546173</ele>
        <time>2011-02-06T10:05:08Z</time>
      </trkpt>
      <trkpt lat="43.34793" lon="5.51377">
        <ele>404.383484</ele>
        <time>2011-02-06T10:05:15Z</time>
      </trkpt>
      <trkpt lat="43.3478" lon="5.51382">
        <ele>405.387115</ele>
        <time>2011-02-06T10:05:19Z</time>
      </trkpt>
      <trkpt lat="43.34763" lon="5.51387">
        <ele>406.418396</ele>
        <time>2011-02-06T10:05:23Z</time>
      </trkpt>
      <trkpt lat="43.34747" lon="5.51378">
        <ele>405.240479</ele>
        <time>2011-02-06T10:05:27Z</time>
      </trkpt>
      <trkpt lat="43.3474" lon="5.51362">
        <ele>402.563873</ele>
        <time>2011-02-06T10:05:30Z</time>
      </trkpt>
      <trkpt lat="43.34717" lon="5.51308">
        <ele>396.808838</ele>
        <time>2011-02-06T10:05:36Z</time>
      </trkpt>
      <trkpt lat="43.34698" lon="5.51278">
        <ele>392.257843</ele>
        <time>2011-02-06T10:05:41Z</time>
      </trkpt>
      <trkpt lat="43.34682" lon="5.51258">
        <ele>390.06308</ele>
        <time>2011-02-06T10:05:45Z</time>
      </trkpt>
      <trkpt lat="43.34668" lon="5.51253">
        <ele>391.457977</ele>
        <time>2011-02-06T10:05:49Z</time>
      </trkpt>
      <trkpt lat="43.34653" lon="5.51263">
        <ele>396.282837</ele>
        <time>2011-02-06T10:05:58Z</time>
      </trkpt>
      <trkpt lat="43.3464" lon="5.51278">
        <ele>399.338867</ele>
        <time>2011-02-06T10:06:07Z</time>
      </trkpt>
      <trkpt lat="43.34627" lon="5.5129">
        <ele>399.561768</ele>
        <time>2011-02-06T10:06:15Z</time>
      </trkpt>
      <trkpt lat="43.34615" lon="5.51277">
        <ele>402.090546</ele>
        <time>2011-02-06T10:06:23Z</time>
      </trkpt>
      <trkpt lat="43.34618" lon="5.51253">
        <ele>401.526001</ele>
        <time>2011-02-06T10:06:32Z</time>
      </trkpt>
      <trkpt lat="43.34622" lon="5.5123">
        <ele>401.096191</ele>
        <time>2011-02-06T10:06:39Z</time>
      </trkpt>
      <trkpt lat="43.34628" lon="5.5121">
        <ele>401.203674</ele>
        <time>2011-02-06T10:06:45Z</time>
      </trkpt>
      <trkpt lat="43.34637" lon="5.51195">
        <ele>400.742126</ele>
        <time>2011-02-06T10:06:52Z</time>
      </trkpt>
      <trkpt lat="43.34647" lon="5.51182">
        <ele>400.086243</ele>
        <time>2011-02-06T10:06:58Z</time>
      </trkpt>
      <trkpt lat="43.3466" lon="5.51165">
        <ele>398.657227</ele>
        <time>2011-02-06T10:07:04Z</time>
      </trkpt>
      <trkpt lat="43.34648" lon="5.51155">
        <ele>399.881439</ele>
        <time>2011-02-06T10:07:11Z</time>
      </trkpt>
      <trkpt lat="43.34633" lon="5.51167">
        <ele>404.518555</ele>
        <time>2011-02-06T10:07:19Z</time>
      </trkpt>
      <trkpt lat="43.34618" lon="5.51172">
        <ele>406.868408</ele>
        <time>2011-02-06T10:07:30Z</time>
      </trkpt>
      <trkpt lat="43.34602" lon="5.51173">
        <ele>407.784393</ele>
        <time>2011-02-06T10:07:41Z</time>
      </trkpt>
      <trkpt lat="43.34585" lon="5.51175">
        <ele>409.259552</ele>
        <time>2011-02-06T10:07:51Z</time>
      </trkpt>
      <trkpt lat="43.34568" lon="5.51175">
        <ele>410.265991</ele>
        <time>2011-02-06T10:08:01Z</time>
      </trkpt>
      <trkpt lat="43.34552" lon="5.51178">
        <ele>411.666382</ele>
        <time>2011-02-06T10:08:12Z</time>
      </trkpt>
      <trkpt lat="43.34537" lon="5.51183">
        <ele>413.461395</ele>
        <time>2011-02-06T10:08:23Z</time>
      </trkpt>
      <trkpt lat="43.3452" lon="5.5119">
        <ele>414.720795</ele>
        <time>2011-02-06T10:08:34Z</time>
      </trkpt>
      <trkpt lat="43.34503" lon="5.51192">
        <ele>414.570099</ele>
        <time>2011-02-06T10:08:44Z</time>
      </trkpt>
      <trkpt lat="43.34488" lon="5.512">
        <ele>415.996155</ele>
        <time>2011-02-06T10:08:55Z</time>
      </trkpt>
      <trkpt lat="43.34478" lon="5.51215">
        <ele>418.153564</ele>
        <time>2011-02-06T10:09:03Z</time>
      </trkpt>
      <trkpt lat="43.34472" lon="5.51235">
        <ele>420.052643</ele>
        <time>2011-02-06T10:09:14Z</time>
      </trkpt>
      <trkpt lat="43.3447" lon="5.51255">
        <ele>421.96521</ele>
        <time>2011-02-06T10:09:23Z</time>
      </trkpt>
      <trkpt lat="43.34465" lon="5.51293">
        <ele>425.76889</ele>
        <time>2011-02-06T10:09:40Z</time>
      </trkpt>
      <trkpt lat="43.34465" lon="5.51317">
        <ele>428.939606</ele>
        <time>2011-02-06T10:09:50Z</time>
      </trkpt>
      <trkpt lat="43.34452" lon="5.51325">
        <ele>429.418701</ele>
        <time>2011-02-06T10:10:01Z</time>
      </trkpt>
      <trkpt lat="43.34438" lon="5.5132">
        <ele>427.972504</ele>
        <time>2011-02-06T10:10:09Z</time>
      </trkpt>
      <trkpt lat="43.34422" lon="5.5132">
        <ele>428.137329</ele>
        <time>2011-02-06T10:10:18Z</time>
      </trkpt>
      <trkpt lat="43.34407" lon="5.51325">
        <ele>429.178375</ele>
        <time>2011-02-06T10:10:26Z</time>
      </trkpt>
      <trkpt lat="43.34392" lon="5.51335">
        <ele>431.004059</ele>
        <time>2011-02-06T10:10:37Z</time>
      </trkpt>
      <trkpt lat="43.34373" lon="5.5135">
        <ele>433.188507</ele>
        <time>2011-02-06T10:10:49Z</time>
      </trkpt>
      <trkpt lat="43.34358" lon="5.51362">
        <ele>434.526367</ele>
        <time>2011-02-06T10:11:00Z</time>
      </trkpt>
      <trkpt lat="43.34347" lon="5.51378">
        <ele>436.396912</ele>
        <time>2011-02-06T10:11:08Z</time>
      </trkpt>
      <trkpt lat="43.34338" lon="5.51398">
        <ele>437.795013</ele>
        <time>2011-02-06T10:11:19Z</time>
      </trkpt>
      <trkpt lat="43.3433" lon="5.51417">
        <ele>438.113159</ele>
        <time>2011-02-06T10:11:27Z</time>
      </trkpt>
      <trkpt lat="43.34327" lon="5.51435">
        <ele>439.53775</ele>
        <time>2011-02-06T10:11:36Z</time>
      </trkpt>
      <trkpt lat="43.34327" lon="5.51457">
        <ele>442.230957</ele>
        <time>2011-02-06T10:11:45Z</time>
      </trkpt>
      <trkpt lat="43.3433" lon="5.51482">
        <ele>445.149353</ele>
        <time>2011-02-06T10:11:55Z</time>
      </trkpt>
      <trkpt lat="43.34333" lon="5.51508">
        <ele>447.388123</ele>
        <time>2011-02-06T10:12:08Z</time>
      </trkpt>
      <trkpt lat="43.34338" lon="5.51527">
        <ele>449.09024</ele>
        <time>2011-02-06T10:12:16Z</time>
      </trkpt>
      <trkpt lat="43.34343" lon="5.51547">
        <ele>451.537872</ele>
        <time>2011-02-06T10:12:27Z</time>
      </trkpt>
      <trkpt lat="43.34343" lon="5.51567">
        <ele>453.629425</ele>
        <time>2011-02-06T10:12:37Z</time>
      </trkpt>
      <trkpt lat="43.34328" lon="5.51572">
        <ele>454.679871</ele>
        <time>2011-02-06T10:12:47Z</time>
      </trkpt>
      <trkpt lat="43.34313" lon="5.51563">
        <ele>454.183197</ele>
        <time>2011-02-06T10:12:58Z</time>
      </trkpt>
      <trkpt lat="43.34298" lon="5.51568">
        <ele>456.006165</ele>
        <time>2011-02-06T10:13:08Z</time>
      </trkpt>
      <trkpt lat="43.34285" lon="5.51563">
        <ele>457.794159</ele>
        <time>2011-02-06T10:13:17Z</time>
      </trkpt>
      <trkpt lat="43.3428" lon="5.51545">
        <ele>455.252747</ele>
        <time>2011-02-06T10:13:25Z</time>
      </trkpt>
      <trkpt lat="43.34268" lon="5.51528">
        <ele>455.030792</ele>
        <time>2011-02-06T10:13:34Z</time>
      </trkpt>
      <trkpt lat="43.34257" lon="5.51515">
        <ele>455.712982</ele>
        <time>2011-02-06T10:13:43Z</time>
      </trkpt>
      <trkpt lat="43.34242" lon="5.51505">
        <ele>457.70166</ele>
        <time>2011-02-06T10:13:53Z</time>
      </trkpt>
      <trkpt lat="43.34227" lon="5.51492">
        <ele>458.968781</ele>
        <time>2011-02-06T10:14:03Z</time>
      </trkpt>
      <trkpt lat="43.34217" lon="5.51507">
        <ele>465.053711</ele>
        <time>2011-02-06T10:14:23Z</time>
      </trkpt>
      <trkpt lat="43.34223" lon="5.51527">
        <ele>467.03299</ele>
        <time>2011-02-06T10:14:36Z</time>
      </trkpt>
      <trkpt lat="43.34228" lon="5.51545">
        <ele>468.777985</ele>
        <time>2011-02-06T10:14:46Z</time>
      </trkpt>
      <trkpt lat="43.34238" lon="5.51562">
        <ele>468.854706</ele>
        <time>2011-02-06T10:14:59Z</time>
      </trkpt>
      <trkpt lat="43.34247" lon="5.51577">
        <ele>469.108276</ele>
        <time>2011-02-06T10:15:10Z</time>
      </trkpt>
      <trkpt lat="43.34253" lon="5.51593">
        <ele>470.487762</ele>
        <time>2011-02-06T10:15:21Z</time>
      </trkpt>
      <trkpt lat="43.34267" lon="5.51622">
        <ele>473.494629</ele>
        <time>2011-02-06T10:15:42Z</time>
      </trkpt>
      <trkpt lat="43.34272" lon="5.5164">
        <ele>476.352203</ele>
        <time>2011-02-06T10:15:53Z</time>
      </trkpt>
      <trkpt lat="43.34278" lon="5.51658">
        <ele>478.556549</ele>
        <time>2011-02-06T10:16:06Z</time>
      </trkpt>
      <trkpt lat="43.34288" lon="5.51673">
        <ele>479.80954</ele>
        <time>2011-02-06T10:16:16Z</time>
      </trkpt>
      <trkpt lat="43.343" lon="5.51688">
        <ele>481.131714</ele>
        <time>2011-02-06T10:16:29Z</time>
      </trkpt>
      <trkpt lat="43.34308" lon="5.51703">
        <ele>482.987366</ele>
        <time>2011-02-06T10:16:39Z</time>
      </trkpt>
      <trkpt lat="43.34322" lon="5.51723">
        <ele>484.821777</ele>
        <time>2011-02-06T10:16:56Z</time>
      </trkpt>
      <trkpt lat="43.34345" lon="5.51755">
        <ele>486.933777</ele>
        <time>2011-02-06T10:17:15Z</time>
      </trkpt>
      <trkpt lat="43.34355" lon="5.51768">
        <ele>487.781586</ele>
        <time>2011-02-06T10:17:25Z</time>
      </trkpt>
      <trkpt lat="43.3436" lon="5.51787">
        <ele>489.376099</ele>
        <time>2011-02-06T10:17:35Z</time>
      </trkpt>
      <trkpt lat="43.34368" lon="5.51817">
        <ele>491.771698</ele>
        <time>2011-02-06T10:17:54Z</time>
      </trkpt>
      <trkpt lat="43.34378" lon="5.5184">
        <ele>492.743713</ele>
        <time>2011-02-06T10:18:11Z</time>
      </trkpt>
      <trkpt lat="43.34383" lon="5.5186">
        <ele>494.621368</ele>
        <time>2011-02-06T10:18:24Z</time>
      </trkpt>
      <trkpt lat="43.3439" lon="5.5188">
        <ele>496.702057</ele>
        <time>2011-02-06T10:18:36Z</time>
      </trkpt>
      <trkpt lat="43.34397" lon="5.51905">
        <ele>499.342438</ele>
        <time>2011-02-06T10:18:53Z</time>
      </trkpt>
      <trkpt lat="43.34398" lon="5.51925">
        <ele>501.41922</ele>
        <time>2011-02-06T10:19:05Z</time>
      </trkpt>
      <trkpt lat="43.34403" lon="5.51945">
        <ele>503.330933</ele>
        <time>2011-02-06T10:19:18Z</time>
      </trkpt>
      <trkpt lat="43.34412" lon="5.51977">
        <ele>506.257019</ele>
        <time>2011-02-06T10:19:37Z</time>
      </trkpt>
      <trkpt lat="43.34415" lon="5.51995">
        <ele>507.944366</ele>
        <time>2011-02-06T10:19:47Z</time>
      </trkpt>
      <trkpt lat="43.34425" lon="5.5201">
        <ele>508.824463</ele>
        <time>2011-02-06T10:19:58Z</time>
      </trkpt>
      <trkpt lat="43.34432" lon="5.52027">
        <ele>509.963013</ele>
        <time>2011-02-06T10:20:09Z</time>
      </trkpt>
      <trkpt lat="43.34438" lon="5.52045">
        <ele>511.100159</ele>
        <time>2011-02-06T10:20:19Z</time>
      </trkpt>
      <trkpt lat="43.34447" lon="5.52065">
        <ele>512.288696</ele>
        <time>2011-02-06T10:20:32Z</time>
      </trkpt>
      <trkpt lat="43.34453" lon="5.52083">
        <ele>513.41803</ele>
        <time>2011-02-06T10:20:43Z</time>
      </trkpt>
      <trkpt lat="43.34462" lon="5.52102">
        <ele>514.201172</ele>
        <time>2011-02-06T10:20:53Z</time>
      </trkpt>
      <trkpt lat="43.34478" lon="5.52137">
        <ele>516.753662</ele>
        <time>2011-02-06T10:21:13Z</time>
      </trkpt>
      <trkpt lat="43.34493" lon="5.52163">
        <ele>519.247375</ele>
        <time>2011-02-06T10:21:30Z</time>
      </trkpt>
      <trkpt lat="43.34502" lon="5.52178">
        <ele>520.540405</ele>
        <time>2011-02-06T10:21:40Z</time>
      </trkpt>
      <trkpt lat="43.34508" lon="5.52195">
        <ele>522.052979</ele>
        <time>2011-02-06T10:21:48Z</time>
      </trkpt>
      <trkpt lat="43.34517" lon="5.52212">
        <ele>523.784973</ele>
        <time>2011-02-06T10:21:59Z</time>
      </trkpt>
      <trkpt lat="43.34525" lon="5.52232">
        <ele>525.767395</ele>
        <time>2011-02-06T10:22:10Z</time>
      </trkpt>
      <trkpt lat="43.3453" lon="5.52253">
        <ele>527.754028</ele>
        <time>2011-02-06T10:22:20Z</time>
      </trkpt>
      <trkpt lat="43.34538" lon="5.52278">
        <ele>529.969666</ele>
        <time>2011-02-06T10:22:33Z</time>
      </trkpt>
      <trkpt lat="43.34545" lon="5.523">
        <ele>531.31842</ele>
        <time>2011-02-06T10:22:44Z</time>
      </trkpt>
      <trkpt lat="43.34552" lon="5.52318">
        <ele>532.326416</ele>
        <time>2011-02-06T10:22:50Z</time>
      </trkpt>
      <trkpt lat="43.34552" lon="5.52338">
        <ele>532.970337</ele>
        <time>2011-02-06T10:22:59Z</time>
      </trkpt>
      <trkpt lat="43.3455" lon="5.52358">
        <ele>532.835876</ele>
        <time>2011-02-06T10:23:07Z</time>
      </trkpt>
      <trkpt lat="43.34547" lon="5.5238">
        <ele>532.817993</ele>
        <time>2011-02-06T10:23:14Z</time>
      </trkpt>
      <trkpt lat="43.34545" lon="5.52405">
        <ele>532.484375</ele>
        <time>2011-02-06T10:23:22Z</time>
      </trkpt>
      <trkpt lat="43.34537" lon="5.5242">
        <ele>532.567383</ele>
        <time>2011-02-06T10:29:25Z</time>
      </trkpt>
      <trkpt lat="43.34538" lon="5.5244">
        <ele>531.822571</ele>
        <time>2011-02-06T10:29:36Z</time>
      </trkpt>
      <trkpt lat="43.34535" lon="5.52462">
        <ele>531.494202</ele>
        <time>2011-02-06T10:29:44Z</time>
      </trkpt>
      <trkpt lat="43.3453" lon="5.5248">
        <ele>531.610352</ele>
        <time>2011-02-06T10:29:51Z</time>
      </trkpt>
      <trkpt lat="43.34522" lon="5.52512">
        <ele>532.182373</ele>
        <time>2011-02-06T10:30:01Z</time>
      </trkpt>
      <trkpt lat="43.34518" lon="5.52535">
        <ele>533.318359</ele>
        <time>2011-02-06T10:30:10Z</time>
      </trkpt>
      <trkpt lat="43.34522" lon="5.52555">
        <ele>533.633972</ele>
        <time>2011-02-06T10:30:16Z</time>
      </trkpt>
      <trkpt lat="43.34532" lon="5.52575">
        <ele>533.321411</ele>
        <time>2011-02-06T10:30:25Z</time>
      </trkpt>
      <trkpt lat="43.34543" lon="5.5259">
        <ele>534.073608</ele>
        <time>2011-02-06T10:30:33Z</time>
      </trkpt>
      <trkpt lat="43.34555" lon="5.526">
        <ele>534.90741</ele>
        <time>2011-02-06T10:30:39Z</time>
      </trkpt>
      <trkpt lat="43.34567" lon="5.52612">
        <ele>535.982544</ele>
        <time>2011-02-06T10:30:46Z</time>
      </trkpt>
      <trkpt lat="43.3458" lon="5.52628">
        <ele>537.693726</ele>
        <time>2011-02-06T10:30:54Z</time>
      </trkpt>
      <trkpt lat="43.3459" lon="5.52642">
        <ele>538.466431</ele>
        <time>2011-02-06T10:31:01Z</time>
      </trkpt>
      <trkpt lat="43.346" lon="5.52662">
        <ele>539.410034</ele>
        <time>2011-02-06T10:31:09Z</time>
      </trkpt>
      <trkpt lat="43.34607" lon="5.5268">
        <ele>540.729736</ele>
        <time>2011-02-06T10:31:15Z</time>
      </trkpt>
      <trkpt lat="43.34613" lon="5.527">
        <ele>542.52533</ele>
        <time>2011-02-06T10:31:24Z</time>
      </trkpt>
      <trkpt lat="43.3462" lon="5.52718">
        <ele>544.131714</ele>
        <time>2011-02-06T10:31:32Z</time>
      </trkpt>
      <trkpt lat="43.34628" lon="5.52743">
        <ele>546.579041</ele>
        <time>2011-02-06T10:31:45Z</time>
      </trkpt>
      <trkpt lat="43.34637" lon="5.52762">
        <ele>548.505615</ele>
        <time>2011-02-06T10:31:55Z</time>
      </trkpt>
      <trkpt lat="43.34643" lon="5.52778">
        <ele>550.144348</ele>
        <time>2011-02-06T10:32:06Z</time>
      </trkpt>
      <trkpt lat="43.34653" lon="5.52792">
        <ele>551.442017</ele>
        <time>2011-02-06T10:32:15Z</time>
      </trkpt>
      <trkpt lat="43.34667" lon="5.52797">
        <ele>552.048035</ele>
        <time>2011-02-06T10:32:27Z</time>
      </trkpt>
      <trkpt lat="43.34682" lon="5.52802">
        <ele>553.396606</ele>
        <time>2011-02-06T10:32:40Z</time>
      </trkpt>
      <trkpt lat="43.34695" lon="5.52808">
        <ele>554.780151</ele>
        <time>2011-02-06T10:32:53Z</time>
      </trkpt>
      <trkpt lat="43.3471" lon="5.52827">
        <ele>557.245605</ele>
        <time>2011-02-06T10:33:11Z</time>
      </trkpt>
      <trkpt lat="43.34725" lon="5.52847">
        <ele>560.593445</ele>
        <time>2011-02-06T10:33:30Z</time>
      </trkpt>
      <trkpt lat="43.34735" lon="5.5286">
        <ele>563.019958</ele>
        <time>2011-02-06T10:33:43Z</time>
      </trkpt>
      <trkpt lat="43.34745" lon="5.52873">
        <ele>565.350586</ele>
        <time>2011-02-06T10:33:56Z</time>
      </trkpt>
      <trkpt lat="43.34755" lon="5.52887">
        <ele>567.585388</ele>
        <time>2011-02-06T10:34:09Z</time>
      </trkpt>
      <trkpt lat="43.34767" lon="5.52907">
        <ele>570.654541</ele>
        <time>2011-02-06T10:34:26Z</time>
      </trkpt>
      <trkpt lat="43.34778" lon="5.52923">
        <ele>573.093201</ele>
        <time>2011-02-06T10:34:43Z</time>
      </trkpt>
      <trkpt lat="43.3479" lon="5.52942">
        <ele>575.120056</ele>
        <time>2011-02-06T10:35:00Z</time>
      </trkpt>
      <trkpt lat="43.34797" lon="5.52958">
        <ele>576.592834</ele>
        <time>2011-02-06T10:35:13Z</time>
      </trkpt>
      <trkpt lat="43.34802" lon="5.52977">
        <ele>579.215759</ele>
        <time>2011-02-06T10:35:26Z</time>
      </trkpt>
      <trkpt lat="43.34807" lon="5.52995">
        <ele>581.934875</ele>
        <time>2011-02-06T10:35:39Z</time>
      </trkpt>
      <trkpt lat="43.34813" lon="5.53013">
        <ele>584.386658</ele>
        <time>2011-02-06T10:35:52Z</time>
      </trkpt>
      <trkpt lat="43.34825" lon="5.53045">
        <ele>587.736145</ele>
        <time>2011-02-06T10:36:13Z</time>
      </trkpt>
      <trkpt lat="43.34833" lon="5.53063">
        <ele>589.071106</ele>
        <time>2011-02-06T10:36:26Z</time>
      </trkpt>
      <trkpt lat="43.3484" lon="5.53082">
        <ele>590.393616</ele>
        <time>2011-02-06T10:36:39Z</time>
      </trkpt>
      <trkpt lat="43.34843" lon="5.53102">
        <ele>591.83728</ele>
        <time>2011-02-06T10:36:51Z</time>
      </trkpt>
      <trkpt lat="43.34838" lon="5.53122">
        <ele>593.054443</ele>
        <time>2011-02-06T10:37:04Z</time>
      </trkpt>
      <trkpt lat="43.34832" lon="5.53138">
        <ele>594.800354</ele>
        <time>2011-02-06T10:37:15Z</time>
      </trkpt>
      <trkpt lat="43.34823" lon="5.53153">
        <ele>597.217163</ele>
        <time>2011-02-06T10:37:24Z</time>
      </trkpt>
      <trkpt lat="43.34805" lon="5.53183">
        <ele>598.84436</ele>
        <time>2011-02-06T10:37:43Z</time>
      </trkpt>
      <trkpt lat="43.34797" lon="5.53198">
        <ele>598.96759</ele>
        <time>2011-02-06T10:37:51Z</time>
      </trkpt>
      <trkpt lat="43.34785" lon="5.53213">
        <ele>599.738525</ele>
        <time>2011-02-06T10:38:01Z</time>
      </trkpt>
      <trkpt lat="43.34772" lon="5.53227">
        <ele>602.036011</ele>
        <time>2011-02-06T10:38:11Z</time>
      </trkpt>
      <trkpt lat="43.34758" lon="5.53237">
        <ele>604.022705</ele>
        <time>2011-02-06T10:38:21Z</time>
      </trkpt>
      <trkpt lat="43.34738" lon="5.53248">
        <ele>606.466064</ele>
        <time>2011-02-06T10:38:34Z</time>
      </trkpt>
      <trkpt lat="43.34723" lon="5.53258">
        <ele>607.404846</ele>
        <time>2011-02-06T10:38:45Z</time>
      </trkpt>
      <trkpt lat="43.34707" lon="5.53267">
        <ele>608.78949</ele>
        <time>2011-02-06T10:38:57Z</time>
      </trkpt>
      <trkpt lat="43.34692" lon="5.53275">
        <ele>610.358887</ele>
        <time>2011-02-06T10:39:10Z</time>
      </trkpt>
      <trkpt lat="43.34675" lon="5.53285">
        <ele>612.827087</ele>
        <time>2011-02-06T10:39:27Z</time>
      </trkpt>
      <trkpt lat="43.3466" lon="5.53288">
        <ele>616.592834</ele>
        <time>2011-02-06T10:39:40Z</time>
      </trkpt>
      <trkpt lat="43.34643" lon="5.5329">
        <ele>621.281799</ele>
        <time>2011-02-06T10:39:52Z</time>
      </trkpt>
      <trkpt lat="43.34633" lon="5.53307">
        <ele>621.620483</ele>
        <time>2011-02-06T10:40:09Z</time>
      </trkpt>
      <trkpt lat="43.34638" lon="5.53327">
        <ele>616.519287</ele>
        <time>2011-02-06T10:40:20Z</time>
      </trkpt>
      <trkpt lat="43.3464" lon="5.53348">
        <ele>614.403625</ele>
        <time>2011-02-06T10:40:31Z</time>
      </trkpt>
      <trkpt lat="43.34628" lon="5.5336">
        <ele>617.965759</ele>
        <time>2011-02-06T10:40:41Z</time>
      </trkpt>
      <trkpt lat="43.34615" lon="5.53372">
        <ele>621.929749</ele>
        <time>2011-02-06T10:40:52Z</time>
      </trkpt>
      <trkpt lat="43.34608" lon="5.53388">
        <ele>623.105835</ele>
        <time>2011-02-06T10:41:02Z</time>
      </trkpt>
      <trkpt lat="43.34605" lon="5.5341">
        <ele>623.850037</ele>
        <time>2011-02-06T10:41:13Z</time>
      </trkpt>
      <trkpt lat="43.34608" lon="5.53432">
        <ele>622.782166</ele>
        <time>2011-02-06T10:41:23Z</time>
      </trkpt>
      <trkpt lat="43.34615" lon="5.53453">
        <ele>622.256592</ele>
        <time>2011-02-06T10:41:32Z</time>
      </trkpt>
      <trkpt lat="43.34618" lon="5.53472">
        <ele>624.120361</ele>
        <time>2011-02-06T10:41:40Z</time>
      </trkpt>
      <trkpt lat="43.34622" lon="5.53493">
        <ele>627.046448</ele>
        <time>2011-02-06T10:41:50Z</time>
      </trkpt>
      <trkpt lat="43.34622" lon="5.53513">
        <ele>629.856934</ele>
        <time>2011-02-06T10:42:01Z</time>
      </trkpt>
      <trkpt lat="43.3462" lon="5.53558">
        <ele>633.805359</ele>
        <time>2011-02-06T10:42:20Z</time>
      </trkpt>
      <trkpt lat="43.34618" lon="5.53582">
        <ele>635.135559</ele>
        <time>2011-02-06T10:42:29Z</time>
      </trkpt>
      <trkpt lat="43.34618" lon="5.53603">
        <ele>636.161438</ele>
        <time>2011-02-06T10:42:37Z</time>
      </trkpt>
      <trkpt lat="43.34617" lon="5.5364">
        <ele>637.422546</ele>
        <time>2011-02-06T10:42:50Z</time>
      </trkpt>
      <trkpt lat="43.34617" lon="5.53662">
        <ele>638.082642</ele>
        <time>2011-02-06T10:42:58Z</time>
      </trkpt>
      <trkpt lat="43.34618" lon="5.53683">
        <ele>639.033325</ele>
        <time>2011-02-06T10:43:05Z</time>
      </trkpt>
      <trkpt lat="43.3462" lon="5.53707">
        <ele>639.704102</ele>
        <time>2011-02-06T10:43:13Z</time>
      </trkpt>
      <trkpt lat="43.34622" lon="5.53727">
        <ele>640.106384</ele>
        <time>2011-02-06T10:43:20Z</time>
      </trkpt>
      <trkpt lat="43.34625" lon="5.53747">
        <ele>640.805176</ele>
        <time>2011-02-06T10:43:26Z</time>
      </trkpt>
      <trkpt lat="43.3463" lon="5.53782">
        <ele>642.534058</ele>
        <time>2011-02-06T10:43:39Z</time>
      </trkpt>
      <trkpt lat="43.34632" lon="5.53802">
        <ele>643.558044</ele>
        <time>2011-02-06T10:43:45Z</time>
      </trkpt>
      <trkpt lat="43.34632" lon="5.53823">
        <ele>644.743469</ele>
        <time>2011-02-06T10:43:54Z</time>
      </trkpt>
      <trkpt lat="43.34627" lon="5.53852">
        <ele>647.029602</ele>
        <time>2011-02-06T10:44:03Z</time>
      </trkpt>
      <trkpt lat="43.34617" lon="5.53867">
        <ele>647.488953</ele>
        <time>2011-02-06T10:44:09Z</time>
      </trkpt>
      <trkpt lat="43.34602" lon="5.5388">
        <ele>647.845825</ele>
        <time>2011-02-06T10:44:18Z</time>
      </trkpt>
      <trkpt lat="43.34585" lon="5.53893">
        <ele>648.563965</ele>
        <time>2011-02-06T10:44:26Z</time>
      </trkpt>
      <trkpt lat="43.3457" lon="5.53898">
        <ele>647.529907</ele>
        <time>2011-02-06T10:44:33Z</time>
      </trkpt>
      <trkpt lat="43.34555" lon="5.53905">
        <ele>646.307495</ele>
        <time>2011-02-06T10:44:41Z</time>
      </trkpt>
      <trkpt lat="43.34552" lon="5.53925">
        <ele>647.943542</ele>
        <time>2011-02-06T10:44:47Z</time>
      </trkpt>
      <trkpt lat="43.3456" lon="5.53942">
        <ele>650.679504</ele>
        <time>2011-02-06T10:44:54Z</time>
      </trkpt>
      <trkpt lat="43.34565" lon="5.5396">
        <ele>650.559631</ele>
        <time>2011-02-06T10:45:00Z</time>
      </trkpt>
      <trkpt lat="43.34577" lon="5.53997">
        <ele>652.20813</ele>
        <time>2011-02-06T10:45:12Z</time>
      </trkpt>
      <trkpt lat="43.34582" lon="5.54018">
        <ele>651.623413</ele>
        <time>2011-02-06T10:45:21Z</time>
      </trkpt>
      <trkpt lat="43.3459" lon="5.5405">
        <ele>650.250671</ele>
        <time>2011-02-06T10:45:32Z</time>
      </trkpt>
      <trkpt lat="43.346" lon="5.54067">
        <ele>651.649719</ele>
        <time>2011-02-06T10:45:38Z</time>
      </trkpt>
      <trkpt lat="43.3461" lon="5.5408">
        <ele>653.76123</ele>
        <time>2011-02-06T10:45:45Z</time>
      </trkpt>
      <trkpt lat="43.34623" lon="5.54098">
        <ele>656.693909</ele>
        <time>2011-02-06T10:45:52Z</time>
      </trkpt>
      <trkpt lat="43.34633" lon="5.54117">
        <ele>656.201843</ele>
        <time>2011-02-06T10:45:58Z</time>
      </trkpt>
      <trkpt lat="43.34643" lon="5.54135">
        <ele>655.509033</ele>
        <time>2011-02-06T10:46:04Z</time>
      </trkpt>
      <trkpt lat="43.34652" lon="5.54158">
        <ele>656.710388</ele>
        <time>2011-02-06T10:46:13Z</time>
      </trkpt>
      <trkpt lat="43.34658" lon="5.54177">
        <ele>658.501709</ele>
        <time>2011-02-06T10:46:19Z</time>
      </trkpt>
      <trkpt lat="43.34683" lon="5.54245">
        <ele>662.307861</ele>
        <time>2011-02-06T10:46:47Z</time>
      </trkpt>
      <trkpt lat="43.3469" lon="5.54267">
        <ele>664.661682</ele>
        <time>2011-02-06T10:46:55Z</time>
      </trkpt>
      <trkpt lat="43.34697" lon="5.54288">
        <ele>667.802124</ele>
        <time>2011-02-06T10:47:08Z</time>
      </trkpt>
      <trkpt lat="43.347" lon="5.54307">
        <ele>670.546387</ele>
        <time>2011-02-06T10:47:17Z</time>
      </trkpt>
      <trkpt lat="43.34697" lon="5.54327">
        <ele>673.067078</ele>
        <time>2011-02-06T10:47:27Z</time>
      </trkpt>
      <trkpt lat="43.34683" lon="5.54335">
        <ele>672.791687</ele>
        <time>2011-02-06T10:47:35Z</time>
      </trkpt>
      <trkpt lat="43.3467" lon="5.54345">
        <ele>672.875305</ele>
        <time>2011-02-06T10:47:44Z</time>
      </trkpt>
      <trkpt lat="43.3466" lon="5.5436">
        <ele>673.779968</ele>
        <time>2011-02-06T10:47:52Z</time>
      </trkpt>
      <trkpt lat="43.34653" lon="5.54387">
        <ele>676.102234</ele>
        <time>2011-02-06T10:48:02Z</time>
      </trkpt>
      <trkpt lat="43.3465" lon="5.54405">
        <ele>677.622498</ele>
        <time>2011-02-06T10:48:11Z</time>
      </trkpt>
      <trkpt lat="43.3464" lon="5.54455">
        <ele>681.750183</ele>
        <time>2011-02-06T10:48:32Z</time>
      </trkpt>
      <trkpt lat="43.34633" lon="5.54473">
        <ele>682.900452</ele>
        <time>2011-02-06T10:48:40Z</time>
      </trkpt>
      <trkpt lat="43.34625" lon="5.54492">
        <ele>684.045166</ele>
        <time>2011-02-06T10:48:49Z</time>
      </trkpt>
      <trkpt lat="43.34615" lon="5.54507">
        <ele>684.793823</ele>
        <time>2011-02-06T10:48:57Z</time>
      </trkpt>
      <trkpt lat="43.34605" lon="5.5452">
        <ele>685.119873</ele>
        <time>2011-02-06T10:49:04Z</time>
      </trkpt>
      <trkpt lat="43.34593" lon="5.54535">
        <ele>685.410217</ele>
        <time>2011-02-06T10:49:12Z</time>
      </trkpt>
      <trkpt lat="43.34582" lon="5.54547">
        <ele>685.195984</ele>
        <time>2011-02-06T10:49:18Z</time>
      </trkpt>
      <trkpt lat="43.3457" lon="5.5456">
        <ele>684.714172</ele>
        <time>2011-02-06T10:49:27Z</time>
      </trkpt>
      <trkpt lat="43.34558" lon="5.54573">
        <ele>685.516724</ele>
        <time>2011-02-06T10:49:35Z</time>
      </trkpt>
      <trkpt lat="43.34548" lon="5.54592">
        <ele>687.336121</ele>
        <time>2011-02-06T10:49:46Z</time>
      </trkpt>
      <trkpt lat="43.34538" lon="5.54605">
        <ele>689.072876</ele>
        <time>2011-02-06T10:49:55Z</time>
      </trkpt>
      <trkpt lat="43.34552" lon="5.54618">
        <ele>688.681702</ele>
        <time>2011-02-06T10:57:13Z</time>
      </trkpt>
      <trkpt lat="43.34567" lon="5.54642">
        <ele>684.641846</ele>
        <time>2011-02-06T10:57:17Z</time>
      </trkpt>
      <trkpt lat="43.34597" lon="5.54685">
        <ele>681.593079</ele>
        <time>2011-02-06T10:57:23Z</time>
      </trkpt>
      <trkpt lat="43.3461" lon="5.547">
        <ele>680.72229</ele>
        <time>2011-02-06T10:57:25Z</time>
      </trkpt>
      <trkpt lat="43.34623" lon="5.54718">
        <ele>679.848938</ele>
        <time>2011-02-06T10:57:27Z</time>
      </trkpt>
      <trkpt lat="43.34635" lon="5.5474">
        <ele>678.660034</ele>
        <time>2011-02-06T10:57:29Z</time>
      </trkpt>
      <trkpt lat="43.34658" lon="5.54783">
        <ele>676.590027</ele>
        <time>2011-02-06T10:57:33Z</time>
      </trkpt>
      <trkpt lat="43.34673" lon="5.54798">
        <ele>676.24176</ele>
        <time>2011-02-06T10:57:35Z</time>
      </trkpt>
      <trkpt lat="43.3469" lon="5.5481">
        <ele>676.282654</ele>
        <time>2011-02-06T10:57:37Z</time>
      </trkpt>
      <trkpt lat="43.34703" lon="5.54822">
        <ele>675.358276</ele>
        <time>2011-02-06T10:57:39Z</time>
      </trkpt>
      <trkpt lat="43.3473" lon="5.54845">
        <ele>673.519775</ele>
        <time>2011-02-06T10:57:43Z</time>
      </trkpt>
      <trkpt lat="43.34747" lon="5.54848">
        <ele>673.398865</ele>
        <time>2011-02-06T10:57:47Z</time>
      </trkpt>
      <trkpt lat="43.3476" lon="5.54843">
        <ele>673.464172</ele>
        <time>2011-02-06T10:57:53Z</time>
      </trkpt>
      <trkpt lat="43.3477" lon="5.54828">
        <ele>673.936462</ele>
        <time>2011-02-06T10:57:59Z</time>
      </trkpt>
      <trkpt lat="43.3479" lon="5.54793">
        <ele>673.680542</ele>
        <time>2011-02-06T10:58:05Z</time>
      </trkpt>
      <trkpt lat="43.3481" lon="5.5477">
        <ele>671.713867</ele>
        <time>2011-02-06T10:58:09Z</time>
      </trkpt>
      <trkpt lat="43.34827" lon="5.54748">
        <ele>669.498901</ele>
        <time>2011-02-06T10:58:13Z</time>
      </trkpt>
      <trkpt lat="43.34843" lon="5.54728">
        <ele>666.821289</ele>
        <time>2011-02-06T10:58:17Z</time>
      </trkpt>
      <trkpt lat="43.34863" lon="5.54725">
        <ele>663.998657</ele>
        <time>2011-02-06T10:58:21Z</time>
      </trkpt>
      <trkpt lat="43.3488" lon="5.54735">
        <ele>662.418213</ele>
        <time>2011-02-06T10:58:25Z</time>
      </trkpt>
      <trkpt lat="43.34888" lon="5.54753">
        <ele>662.369629</ele>
        <time>2011-02-06T10:58:35Z</time>
      </trkpt>
      <trkpt lat="43.34882" lon="5.54735">
        <ele>662.253601</ele>
        <time>2011-02-06T10:59:08Z</time>
      </trkpt>
      <trkpt lat="43.34867" lon="5.54723">
        <ele>663.457214</ele>
        <time>2011-02-06T10:59:14Z</time>
      </trkpt>
      <trkpt lat="43.34862" lon="5.54702">
        <ele>663.089844</ele>
        <time>2011-02-06T10:59:26Z</time>
      </trkpt>
      <trkpt lat="43.34862" lon="5.54677">
        <ele>664.563477</ele>
        <time>2011-02-06T10:59:32Z</time>
      </trkpt>
      <trkpt lat="43.34877" lon="5.54677">
        <ele>662.888123</ele>
        <time>2011-02-06T10:59:39Z</time>
      </trkpt>
      <trkpt lat="43.34895" lon="5.54678">
        <ele>662.119873</ele>
        <time>2011-02-06T10:59:44Z</time>
      </trkpt>
      <trkpt lat="43.34915" lon="5.54677">
        <ele>662.083191</ele>
        <time>2011-02-06T10:59:51Z</time>
      </trkpt>
      <trkpt lat="43.3493" lon="5.54668">
        <ele>662.391113</ele>
        <time>2011-02-06T10:59:55Z</time>
      </trkpt>
      <trkpt lat="43.34947" lon="5.5466">
        <ele>661.066528</ele>
        <time>2011-02-06T10:59:59Z</time>
      </trkpt>
      <trkpt lat="43.34965" lon="5.5465">
        <ele>659.457825</ele>
        <time>2011-02-06T11:00:03Z</time>
      </trkpt>
      <trkpt lat="43.34982" lon="5.54632">
        <ele>659.174805</ele>
        <time>2011-02-06T11:00:07Z</time>
      </trkpt>
      <trkpt lat="43.34995" lon="5.54608">
        <ele>659.597412</ele>
        <time>2011-02-06T11:00:11Z</time>
      </trkpt>
      <trkpt lat="43.35003" lon="5.54583">
        <ele>660.693726</ele>
        <time>2011-02-06T11:00:15Z</time>
      </trkpt>
      <trkpt lat="43.35017" lon="5.54573">
        <ele>660.440125</ele>
        <time>2011-02-06T11:00:19Z</time>
      </trkpt>
      <trkpt lat="43.35032" lon="5.54585">
        <ele>659.692078</ele>
        <time>2011-02-06T11:00:23Z</time>
      </trkpt>
      <trkpt lat="43.35048" lon="5.54597">
        <ele>659.402588</ele>
        <time>2011-02-06T11:00:27Z</time>
      </trkpt>
      <trkpt lat="43.35065" lon="5.54603">
        <ele>658.924622</ele>
        <time>2011-02-06T11:00:31Z</time>
      </trkpt>
      <trkpt lat="43.3508" lon="5.54607">
        <ele>657.74353</ele>
        <time>2011-02-06T11:00:35Z</time>
      </trkpt>
      <trkpt lat="43.35102" lon="5.54603">
        <ele>657.363159</ele>
        <time>2011-02-06T11:00:39Z</time>
      </trkpt>
      <trkpt lat="43.3512" lon="5.54588">
        <ele>658.650146</ele>
        <time>2011-02-06T11:00:45Z</time>
      </trkpt>
      <trkpt lat="43.35133" lon="5.54578">
        <ele>659.242554</ele>
        <time>2011-02-06T11:00:50Z</time>
      </trkpt>
      <trkpt lat="43.35147" lon="5.54568">
        <ele>659.552429</ele>
        <time>2011-02-06T11:00:54Z</time>
      </trkpt>
      <trkpt lat="43.3514" lon="5.54588">
        <ele>657.534302</ele>
        <time>2011-02-06T11:02:30Z</time>
      </trkpt>
      <trkpt lat="43.35133" lon="5.54615">
        <ele>655.016296</ele>
        <time>2011-02-06T11:02:36Z</time>
      </trkpt>
      <trkpt lat="43.35128" lon="5.54635">
        <ele>652.826904</ele>
        <time>2011-02-06T11:02:40Z</time>
      </trkpt>
      <trkpt lat="43.3512" lon="5.54657">
        <ele>650.091309</ele>
        <time>2011-02-06T11:02:46Z</time>
      </trkpt>
      <trkpt lat="43.35103" lon="5.54667">
        <ele>648.239868</ele>
        <time>2011-02-06T11:02:50Z</time>
      </trkpt>
      <trkpt lat="43.35087" lon="5.5467">
        <ele>647.899048</ele>
        <time>2011-02-06T11:02:54Z</time>
      </trkpt>
      <trkpt lat="43.3507" lon="5.54668">
        <ele>648.220276</ele>
        <time>2011-02-06T11:02:58Z</time>
      </trkpt>
      <trkpt lat="43.35035" lon="5.54665">
        <ele>649.656311</ele>
        <time>2011-02-06T11:03:06Z</time>
      </trkpt>
      <trkpt lat="43.3502" lon="5.54668">
        <ele>649.709473</ele>
        <time>2011-02-06T11:03:10Z</time>
      </trkpt>
      <trkpt lat="43.35017" lon="5.54687">
        <ele>647.128479</ele>
        <time>2011-02-06T11:03:20Z</time>
      </trkpt>
      <trkpt lat="43.35023" lon="5.54707">
        <ele>644.677185</ele>
        <time>2011-02-06T11:03:30Z</time>
      </trkpt>
      <trkpt lat="43.35023" lon="5.54727">
        <ele>645.165527</ele>
        <time>2011-02-06T11:03:39Z</time>
      </trkpt>
      <trkpt lat="43.35033" lon="5.5474">
        <ele>644.201599</ele>
        <time>2011-02-06T11:05:26Z</time>
      </trkpt>
      <trkpt lat="43.35047" lon="5.54747">
        <ele>642.361877</ele>
        <time>2011-02-06T11:05:37Z</time>
      </trkpt>
      <trkpt lat="43.3506" lon="5.54752">
        <ele>640.503174</ele>
        <time>2011-02-06T11:06:01Z</time>
      </trkpt>
      <trkpt lat="43.35078" lon="5.54765">
        <ele>638.243103</ele>
        <time>2011-02-06T11:06:19Z</time>
      </trkpt>
      <trkpt lat="43.35095" lon="5.54773">
        <ele>637.072876</ele>
        <time>2011-02-06T11:07:06Z</time>
      </trkpt>
      <trkpt lat="43.35108" lon="5.54787">
        <ele>637.440613</ele>
        <time>2011-02-06T11:07:18Z</time>
      </trkpt>
      <trkpt lat="43.35122" lon="5.54802">
        <ele>637.058411</ele>
        <time>2011-02-06T11:07:28Z</time>
      </trkpt>
      <trkpt lat="43.3513" lon="5.54822">
        <ele>635.023926</ele>
        <time>2011-02-06T11:07:45Z</time>
      </trkpt>
      <trkpt lat="43.3513" lon="5.54845">
        <ele>633.949158</ele>
        <time>2011-02-06T11:07:53Z</time>
      </trkpt>
      <trkpt lat="43.35132" lon="5.54868">
        <ele>633.046631</ele>
        <time>2011-02-06T11:07:59Z</time>
      </trkpt>
      <trkpt lat="43.35128" lon="5.54892">
        <ele>633.251404</ele>
        <time>2011-02-06T11:08:07Z</time>
      </trkpt>
      <trkpt lat="43.35132" lon="5.5491">
        <ele>631.823547</ele>
        <time>2011-02-06T11:11:36Z</time>
      </trkpt>
      <trkpt lat="43.3513" lon="5.5493">
        <ele>631.409302</ele>
        <time>2011-02-06T11:11:42Z</time>
      </trkpt>
      <trkpt lat="43.3513" lon="5.5495">
        <ele>630.627441</ele>
        <time>2011-02-06T11:11:46Z</time>
      </trkpt>
      <trkpt lat="43.35132" lon="5.54973">
        <ele>629.463623</ele>
        <time>2011-02-06T11:11:53Z</time>
      </trkpt>
      <trkpt lat="43.35135" lon="5.54993">
        <ele>627.963257</ele>
        <time>2011-02-06T11:12:05Z</time>
      </trkpt>
      <trkpt lat="43.35133" lon="5.55015">
        <ele>627.603577</ele>
        <time>2011-02-06T11:12:13Z</time>
      </trkpt>
      <trkpt lat="43.35133" lon="5.5504">
        <ele>626.221436</ele>
        <time>2011-02-06T11:12:21Z</time>
      </trkpt>
      <trkpt lat="43.35132" lon="5.5506">
        <ele>625.528687</ele>
        <time>2011-02-06T11:12:27Z</time>
      </trkpt>
      <trkpt lat="43.35128" lon="5.55078">
        <ele>625.389282</ele>
        <time>2011-02-06T11:12:33Z</time>
      </trkpt>
      <trkpt lat="43.35115" lon="5.5509">
        <ele>628.856384</ele>
        <time>2011-02-06T11:12:41Z</time>
      </trkpt>
      <trkpt lat="43.35102" lon="5.55105">
        <ele>632.036438</ele>
        <time>2011-02-06T11:12:51Z</time>
      </trkpt>
      <trkpt lat="43.3509" lon="5.55115">
        <ele>634.477844</ele>
        <time>2011-02-06T11:12:59Z</time>
      </trkpt>
      <trkpt lat="43.3507" lon="5.55132">
        <ele>635.20813</ele>
        <time>2011-02-06T11:13:11Z</time>
      </trkpt>
      <trkpt lat="43.35057" lon="5.55135">
        <ele>635.565063</ele>
        <time>2011-02-06T11:13:17Z</time>
      </trkpt>
      <trkpt lat="43.35043" lon="5.5514">
        <ele>635.369751</ele>
        <time>2011-02-06T11:13:40Z</time>
      </trkpt>
      <trkpt lat="43.35025" lon="5.55143">
        <ele>635.011414</ele>
        <time>2011-02-06T11:13:48Z</time>
      </trkpt>
      <trkpt lat="43.35008" lon="5.55152">
        <ele>633.635071</ele>
        <time>2011-02-06T11:13:54Z</time>
      </trkpt>
      <trkpt lat="43.34993" lon="5.55162">
        <ele>631.575562</ele>
        <time>2011-02-06T11:14:00Z</time>
      </trkpt>
      <trkpt lat="43.34978" lon="5.55167">
        <ele>630.125305</ele>
        <time>2011-02-06T11:14:06Z</time>
      </trkpt>
      <trkpt lat="43.34957" lon="5.55172">
        <ele>628.272827</ele>
        <time>2011-02-06T11:14:14Z</time>
      </trkpt>
      <trkpt lat="43.34937" lon="5.55175">
        <ele>627.271362</ele>
        <time>2011-02-06T11:15:17Z</time>
      </trkpt>
      <trkpt lat="43.34922" lon="5.5518">
        <ele>626.039001</ele>
        <time>2011-02-06T11:15:23Z</time>
      </trkpt>
      <trkpt lat="43.34907" lon="5.5518">
        <ele>625.974426</ele>
        <time>2011-02-06T11:15:28Z</time>
      </trkpt>
      <trkpt lat="43.3489" lon="5.55185">
        <ele>625.445618</ele>
        <time>2011-02-06T11:15:34Z</time>
      </trkpt>
      <trkpt lat="43.34875" lon="5.55195">
        <ele>622.159851</ele>
        <time>2011-02-06T11:15:42Z</time>
      </trkpt>
      <trkpt lat="43.34857" lon="5.55205">
        <ele>618.691589</ele>
        <time>2011-02-06T11:15:48Z</time>
      </trkpt>
      <trkpt lat="43.34842" lon="5.55213">
        <ele>615.655762</ele>
        <time>2011-02-06T11:15:54Z</time>
      </trkpt>
      <trkpt lat="43.34828" lon="5.55202">
        <ele>619.601013</ele>
        <time>2011-02-06T11:16:02Z</time>
      </trkpt>
      <trkpt lat="43.34813" lon="5.55192">
        <ele>621.841003</ele>
        <time>2011-02-06T11:17:12Z</time>
      </trkpt>
      <trkpt lat="43.348" lon="5.55188">
        <ele>620.565308</ele>
        <time>2011-02-06T11:17:16Z</time>
      </trkpt>
      <trkpt lat="43.34787" lon="5.5518">
        <ele>619.020081</ele>
        <time>2011-02-06T11:17:20Z</time>
      </trkpt>
      <trkpt lat="43.34772" lon="5.55175">
        <ele>618.844482</ele>
        <time>2011-02-06T11:17:26Z</time>
      </trkpt>
      <trkpt lat="43.34775" lon="5.55193">
        <ele>617.998352</ele>
        <time>2011-02-06T11:17:36Z</time>
      </trkpt>
      <trkpt lat="43.34782" lon="5.55213">
        <ele>620.055847</ele>
        <time>2011-02-06T11:17:44Z</time>
      </trkpt>
      <trkpt lat="43.34787" lon="5.55235">
        <ele>619.702148</ele>
        <time>2011-02-06T11:17:52Z</time>
      </trkpt>
      <trkpt lat="43.34792" lon="5.55255">
        <ele>618.77179</ele>
        <time>2011-02-06T11:18:03Z</time>
      </trkpt>
      <trkpt lat="43.34792" lon="5.55277">
        <ele>621.26416</ele>
        <time>2011-02-06T11:18:15Z</time>
      </trkpt>
      <trkpt lat="43.3479" lon="5.55297">
        <ele>624.272583</ele>
        <time>2011-02-06T11:18:25Z</time>
      </trkpt>
      <trkpt lat="43.34787" lon="5.55315">
        <ele>627.349792</ele>
        <time>2011-02-06T11:18:43Z</time>
      </trkpt>
      <trkpt lat="43.34787" lon="5.55338">
        <ele>629.186462</ele>
        <time>2011-02-06T11:19:31Z</time>
      </trkpt>
      <trkpt lat="43.34787" lon="5.55363">
        <ele>631.310608</ele>
        <time>2011-02-06T11:19:41Z</time>
      </trkpt>
      <trkpt lat="43.34798" lon="5.55373">
        <ele>630.014832</ele>
        <time>2011-02-06T11:20:07Z</time>
      </trkpt>
      <trkpt lat="43.34798" lon="5.554">
        <ele>629.787415</ele>
        <time>2011-02-06T11:20:24Z</time>
      </trkpt>
      <trkpt lat="43.3481" lon="5.5541">
        <ele>628.867188</ele>
        <time>2011-02-06T11:20:34Z</time>
      </trkpt>
      <trkpt lat="43.34818" lon="5.55428">
        <ele>628.67865</ele>
        <time>2011-02-06T11:20:44Z</time>
      </trkpt>
      <trkpt lat="43.34825" lon="5.55447">
        <ele>624.723816</ele>
        <time>2011-02-06T11:20:52Z</time>
      </trkpt>
      <trkpt lat="43.34818" lon="5.55475">
        <ele>617.804932</ele>
        <time>2011-02-06T11:23:22Z</time>
      </trkpt>
      <trkpt lat="43.34807" lon="5.55487">
        <ele>614.141602</ele>
        <time>2011-02-06T11:23:40Z</time>
      </trkpt>
      <trkpt lat="43.34792" lon="5.55488">
        <ele>613.182312</ele>
        <time>2011-02-06T11:24:34Z</time>
      </trkpt>
      <trkpt lat="43.3478" lon="5.5551">
        <ele>609.558899</ele>
        <time>2011-02-06T11:26:01Z</time>
      </trkpt>
      <trkpt lat="43.3479" lon="5.55523">
        <ele>605.679443</ele>
        <time>2011-02-06T11:26:56Z</time>
      </trkpt>
      <trkpt lat="43.34805" lon="5.55538">
        <ele>598.070435</ele>
        <time>2011-02-06T11:28:03Z</time>
      </trkpt>
      <trkpt lat="43.34823" lon="5.55558">
        <ele>589.849731</ele>
        <time>2011-02-06T11:28:51Z</time>
      </trkpt>
      <trkpt lat="43.34833" lon="5.55572">
        <ele>586.724915</ele>
        <time>2011-02-06T11:29:34Z</time>
      </trkpt>
      <trkpt lat="43.34847" lon="5.55582">
        <ele>582.601074</ele>
        <time>2011-02-06T11:29:54Z</time>
      </trkpt>
      <trkpt lat="43.34857" lon="5.55597">
        <ele>577.291016</ele>
        <time>2011-02-06T11:30:07Z</time>
      </trkpt>
      <trkpt lat="43.34868" lon="5.55607">
        <ele>571.458801</ele>
        <time>2011-02-06T11:30:19Z</time>
      </trkpt>
      <trkpt lat="43.34883" lon="5.55607">
        <ele>567.385437</ele>
        <time>2011-02-06T11:30:47Z</time>
      </trkpt>
      <trkpt lat="43.349" lon="5.5561">
        <ele>561.474182</ele>
        <time>2011-02-06T11:30:55Z</time>
      </trkpt>
      <trkpt lat="43.34928" lon="5.55617">
        <ele>552.792542</ele>
        <time>2011-02-06T11:31:06Z</time>
      </trkpt>
      <trkpt lat="43.34945" lon="5.55618">
        <ele>549.00238</ele>
        <time>2011-02-06T11:31:12Z</time>
      </trkpt>
      <trkpt lat="43.3496" lon="5.55613">
        <ele>548.07373</ele>
        <time>2011-02-06T11:31:20Z</time>
      </trkpt>
      <trkpt lat="43.34973" lon="5.55602">
        <ele>548.579712</ele>
        <time>2011-02-06T11:31:26Z</time>
      </trkpt>
      <trkpt lat="43.34987" lon="5.55585">
        <ele>548.578674</ele>
        <time>2011-02-06T11:31:32Z</time>
      </trkpt>
      <trkpt lat="43.34993" lon="5.55565">
        <ele>549.98999</ele>
        <time>2011-02-06T11:31:38Z</time>
      </trkpt>
      <trkpt lat="43.35002" lon="5.5554">
        <ele>548.12616</ele>
        <time>2011-02-06T11:31:44Z</time>
      </trkpt>
      <trkpt lat="43.35002" lon="5.55517">
        <ele>549.760315</ele>
        <time>2011-02-06T11:31:48Z</time>
      </trkpt>
      <trkpt lat="43.35005" lon="5.55495">
        <ele>551.172668</ele>
        <time>2011-02-06T11:31:54Z</time>
      </trkpt>
      <trkpt lat="43.35018" lon="5.555">
        <ele>549.467102</ele>
        <time>2011-02-06T11:32:01Z</time>
      </trkpt>
      <trkpt lat="43.3503" lon="5.5551">
        <ele>546.0625</ele>
        <time>2011-02-06T11:32:07Z</time>
      </trkpt>
      <trkpt lat="43.35045" lon="5.55522">
        <ele>546.996948</ele>
        <time>2011-02-06T11:32:19Z</time>
      </trkpt>
      <trkpt lat="43.35055" lon="5.55537">
        <ele>547.136658</ele>
        <time>2011-02-06T11:32:25Z</time>
      </trkpt>
      <trkpt lat="43.3507" lon="5.55557">
        <ele>547.455627</ele>
        <time>2011-02-06T11:32:33Z</time>
      </trkpt>
      <trkpt lat="43.3509" lon="5.55582">
        <ele>544.945129</ele>
        <time>2011-02-06T11:32:43Z</time>
      </trkpt>
      <trkpt lat="43.35103" lon="5.55587">
        <ele>547.073792</ele>
        <time>2011-02-06T11:32:49Z</time>
      </trkpt>
      <trkpt lat="43.35117" lon="5.5559">
        <ele>550.048889</ele>
        <time>2011-02-06T11:32:56Z</time>
      </trkpt>
      <trkpt lat="43.35128" lon="5.556">
        <ele>549.098999</ele>
        <time>2011-02-06T11:33:02Z</time>
      </trkpt>
      <trkpt lat="43.35138" lon="5.55613">
        <ele>546.525085</ele>
        <time>2011-02-06T11:33:10Z</time>
      </trkpt>
      <trkpt lat="43.35153" lon="5.55615">
        <ele>547.324158</ele>
        <time>2011-02-06T11:33:18Z</time>
      </trkpt>
      <trkpt lat="43.35168" lon="5.55602">
        <ele>549.222961</ele>
        <time>2011-02-06T11:33:26Z</time>
      </trkpt>
      <trkpt lat="43.35175" lon="5.55585">
        <ele>548.915405</ele>
        <time>2011-02-06T11:33:32Z</time>
      </trkpt>
      <trkpt lat="43.3518" lon="5.55563">
        <ele>550.486877</ele>
        <time>2011-02-06T11:33:38Z</time>
      </trkpt>
      <trkpt lat="43.3519" lon="5.55542">
        <ele>550.748169</ele>
        <time>2011-02-06T11:33:45Z</time>
      </trkpt>
      <trkpt lat="43.35202" lon="5.55525">
        <ele>548.439758</ele>
        <time>2011-02-06T11:33:51Z</time>
      </trkpt>
      <trkpt lat="43.3521" lon="5.55503">
        <ele>548.461243</ele>
        <time>2011-02-06T11:33:57Z</time>
      </trkpt>
      <trkpt lat="43.35217" lon="5.55482">
        <ele>551.112427</ele>
        <time>2011-02-06T11:34:05Z</time>
      </trkpt>
      <trkpt lat="43.35223" lon="5.55458">
        <ele>556.364014</ele>
        <time>2011-02-06T11:34:13Z</time>
      </trkpt>
      <trkpt lat="43.35233" lon="5.55442">
        <ele>559.502502</ele>
        <time>2011-02-06T11:34:21Z</time>
      </trkpt>
      <trkpt lat="43.35247" lon="5.55448">
        <ele>559.23999</ele>
        <time>2011-02-06T11:34:29Z</time>
      </trkpt>
      <trkpt lat="43.35255" lon="5.55467">
        <ele>557.938538</ele>
        <time>2011-02-06T11:34:37Z</time>
      </trkpt>
      <trkpt lat="43.3526" lon="5.55487">
        <ele>557.470459</ele>
        <time>2011-02-06T11:34:49Z</time>
      </trkpt>
      <trkpt lat="43.35262" lon="5.55508">
        <ele>557.065613</ele>
        <time>2011-02-06T11:34:59Z</time>
      </trkpt>
      <trkpt lat="43.35262" lon="5.55528">
        <ele>555.440613</ele>
        <time>2011-02-06T11:35:10Z</time>
      </trkpt>
      <trkpt lat="43.35268" lon="5.55547">
        <ele>555.038879</ele>
        <time>2011-02-06T11:35:22Z</time>
      </trkpt>
      <trkpt lat="43.35282" lon="5.55555">
        <ele>557.17395</ele>
        <time>2011-02-06T11:36:47Z</time>
      </trkpt>
      <trkpt lat="43.35297" lon="5.55563">
        <ele>559.464844</ele>
        <time>2011-02-06T11:36:55Z</time>
      </trkpt>
      <trkpt lat="43.35315" lon="5.55575">
        <ele>560.459717</ele>
        <time>2011-02-06T11:37:08Z</time>
      </trkpt>
      <trkpt lat="43.35328" lon="5.55565">
        <ele>563.653259</ele>
        <time>2011-02-06T11:37:18Z</time>
      </trkpt>
      <trkpt lat="43.35347" lon="5.55563">
        <ele>566.123657</ele>
        <time>2011-02-06T11:37:26Z</time>
      </trkpt>
      <trkpt lat="43.3536" lon="5.55572">
        <ele>567.638367</ele>
        <time>2011-02-06T11:37:37Z</time>
      </trkpt>
      <trkpt lat="43.35372" lon="5.5559">
        <ele>568.688354</ele>
        <time>2011-02-06T11:37:45Z</time>
      </trkpt>
      <trkpt lat="43.35373" lon="5.5561">
        <ele>569.762939</ele>
        <time>2011-02-06T11:37:49Z</time>
      </trkpt>
      <trkpt lat="43.35373" lon="5.5563">
        <ele>570.458801</ele>
        <time>2011-02-06T11:37:57Z</time>
      </trkpt>
      <trkpt lat="43.35373" lon="5.5565">
        <ele>570.916443</ele>
        <time>2011-02-06T11:38:05Z</time>
      </trkpt>
      <trkpt lat="43.35373" lon="5.55678">
        <ele>570.147644</ele>
        <time>2011-02-06T11:38:13Z</time>
      </trkpt>
      <trkpt lat="43.3537" lon="5.55703">
        <ele>568.870178</ele>
        <time>2011-02-06T11:38:21Z</time>
      </trkpt>
      <trkpt lat="43.35377" lon="5.5572">
        <ele>568.032593</ele>
        <time>2011-02-06T11:38:28Z</time>
      </trkpt>
      <trkpt lat="43.35385" lon="5.55742">
        <ele>566.211487</ele>
        <time>2011-02-06T11:38:36Z</time>
      </trkpt>
      <trkpt lat="43.35392" lon="5.55762">
        <ele>564.997742</ele>
        <time>2011-02-06T11:38:42Z</time>
      </trkpt>
      <trkpt lat="43.35405" lon="5.55775">
        <ele>568.062988</ele>
        <time>2011-02-06T11:38:52Z</time>
      </trkpt>
      <trkpt lat="43.3541" lon="5.55795">
        <ele>570.823547</ele>
        <time>2011-02-06T11:39:18Z</time>
      </trkpt>
      <trkpt lat="43.35417" lon="5.55817">
        <ele>573.650085</ele>
        <time>2011-02-06T11:39:35Z</time>
      </trkpt>
      <trkpt lat="43.3542" lon="5.55838">
        <ele>575.773193</ele>
        <time>2011-02-06T11:39:53Z</time>
      </trkpt>
      <trkpt lat="43.35417" lon="5.55858">
        <ele>578.215942</ele>
        <time>2011-02-06T11:40:11Z</time>
      </trkpt>
      <trkpt lat="43.35402" lon="5.5586">
        <ele>576.17981</ele>
        <time>2011-02-06T11:40:47Z</time>
      </trkpt>
      <trkpt lat="43.35388" lon="5.55865">
        <ele>575.138367</ele>
        <time>2011-02-06T11:40:53Z</time>
      </trkpt>
      <trkpt lat="43.35375" lon="5.55875">
        <ele>576.00647</ele>
        <time>2011-02-06T11:41:02Z</time>
      </trkpt>
      <trkpt lat="43.35357" lon="5.55887">
        <ele>577.27533</ele>
        <time>2011-02-06T11:41:12Z</time>
      </trkpt>
      <trkpt lat="43.35345" lon="5.55897">
        <ele>578.250549</ele>
        <time>2011-02-06T11:41:20Z</time>
      </trkpt>
      <trkpt lat="43.35332" lon="5.55905">
        <ele>578.665222</ele>
        <time>2011-02-06T11:41:28Z</time>
      </trkpt>
      <trkpt lat="43.35317" lon="5.55912">
        <ele>578.711548</ele>
        <time>2011-02-06T11:41:38Z</time>
      </trkpt>
      <trkpt lat="43.3531" lon="5.5593">
        <ele>581.356628</ele>
        <time>2011-02-06T11:41:50Z</time>
      </trkpt>
      <trkpt lat="43.35312" lon="5.55952">
        <ele>584.981018</ele>
        <time>2011-02-06T11:42:16Z</time>
      </trkpt>
      <trkpt lat="43.35315" lon="5.55972">
        <ele>587.084961</ele>
        <time>2011-02-06T11:42:43Z</time>
      </trkpt>
      <trkpt lat="43.35325" lon="5.55988">
        <ele>589.119934</ele>
        <time>2011-02-06T11:43:03Z</time>
      </trkpt>
      <trkpt lat="43.35343" lon="5.56013">
        <ele>591.898071</ele>
        <time>2011-02-06T11:43:23Z</time>
      </trkpt>
      <trkpt lat="43.35357" lon="5.56025">
        <ele>592.635681</ele>
        <time>2011-02-06T11:43:40Z</time>
      </trkpt>
      <trkpt lat="43.3537" lon="5.56028">
        <ele>592.682312</ele>
        <time>2011-02-06T11:43:52Z</time>
      </trkpt>
      <trkpt lat="43.35383" lon="5.56017">
        <ele>591.712952</ele>
        <time>2011-02-06T11:44:04Z</time>
      </trkpt>
      <trkpt lat="43.35397" lon="5.56003">
        <ele>590.057861</ele>
        <time>2011-02-06T11:44:10Z</time>
      </trkpt>
      <trkpt lat="43.35413" lon="5.55985">
        <ele>588.674438</ele>
        <time>2011-02-06T11:44:18Z</time>
      </trkpt>
      <trkpt lat="43.35425" lon="5.55972">
        <ele>588.231201</ele>
        <time>2011-02-06T11:44:29Z</time>
      </trkpt>
      <trkpt lat="43.35438" lon="5.55955">
        <ele>587.113159</ele>
        <time>2011-02-06T11:44:37Z</time>
      </trkpt>
      <trkpt lat="43.35453" lon="5.5595">
        <ele>586.35907</ele>
        <time>2011-02-06T11:44:41Z</time>
      </trkpt>
      <trkpt lat="43.35468" lon="5.55942">
        <ele>586.238342</ele>
        <time>2011-02-06T11:44:45Z</time>
      </trkpt>
      <trkpt lat="43.35482" lon="5.55932">
        <ele>586.382446</ele>
        <time>2011-02-06T11:44:49Z</time>
      </trkpt>
      <trkpt lat="43.355" lon="5.5592">
        <ele>587.105957</ele>
        <time>2011-02-06T11:44:55Z</time>
      </trkpt>
      <trkpt lat="43.35515" lon="5.55915">
        <ele>587.715454</ele>
        <time>2011-02-06T11:45:53Z</time>
      </trkpt>
      <trkpt lat="43.35528" lon="5.55927">
        <ele>585.878906</ele>
        <time>2011-02-06T11:45:57Z</time>
      </trkpt>
      <trkpt lat="43.35545" lon="5.55943">
        <ele>583.583374</ele>
        <time>2011-02-06T11:46:04Z</time>
      </trkpt>
      <trkpt lat="43.35563" lon="5.55943">
        <ele>583.471191</ele>
        <time>2011-02-06T11:46:22Z</time>
      </trkpt>
      <trkpt lat="43.35575" lon="5.5593">
        <ele>583.596497</ele>
        <time>2011-02-06T11:46:28Z</time>
      </trkpt>
      <trkpt lat="43.35585" lon="5.55913">
        <ele>584.674377</ele>
        <time>2011-02-06T11:46:34Z</time>
      </trkpt>
      <trkpt lat="43.35598" lon="5.55897">
        <ele>585.622864</ele>
        <time>2011-02-06T11:46:40Z</time>
      </trkpt>
      <trkpt lat="43.35615" lon="5.55883">
        <ele>585.955688</ele>
        <time>2011-02-06T11:46:46Z</time>
      </trkpt>
      <trkpt lat="43.35628" lon="5.55875">
        <ele>585.974731</ele>
        <time>2011-02-06T11:46:52Z</time>
      </trkpt>
      <trkpt lat="43.35643" lon="5.55868">
        <ele>585.547668</ele>
        <time>2011-02-06T11:46:58Z</time>
      </trkpt>
      <trkpt lat="43.35665" lon="5.55857">
        <ele>585.558044</ele>
        <time>2011-02-06T11:47:07Z</time>
      </trkpt>
      <trkpt lat="43.35678" lon="5.55852">
        <ele>585.310364</ele>
        <time>2011-02-06T11:47:11Z</time>
      </trkpt>
      <trkpt lat="43.35703" lon="5.55842">
        <ele>584.276611</ele>
        <time>2011-02-06T11:47:17Z</time>
      </trkpt>
      <trkpt lat="43.35717" lon="5.55828">
        <ele>584.268677</ele>
        <time>2011-02-06T11:47:21Z</time>
      </trkpt>
      <trkpt lat="43.35725" lon="5.55813">
        <ele>584.822327</ele>
        <time>2011-02-06T11:47:25Z</time>
      </trkpt>
      <trkpt lat="43.35732" lon="5.55792">
        <ele>586.075195</ele>
        <time>2011-02-06T11:47:31Z</time>
      </trkpt>
      <trkpt lat="43.3574" lon="5.55767">
        <ele>586.809082</ele>
        <time>2011-02-06T11:47:41Z</time>
      </trkpt>
      <trkpt lat="43.35755" lon="5.55768">
        <ele>585.056335</ele>
        <time>2011-02-06T11:47:51Z</time>
      </trkpt>
      <trkpt lat="43.3577" lon="5.55777">
        <ele>582.936096</ele>
        <time>2011-02-06T11:47:59Z</time>
      </trkpt>
      <trkpt lat="43.35785" lon="5.55783">
        <ele>580.961548</ele>
        <time>2011-02-06T11:48:08Z</time>
      </trkpt>
      <trkpt lat="43.35798" lon="5.55793">
        <ele>578.422546</ele>
        <time>2011-02-06T11:48:16Z</time>
      </trkpt>
      <trkpt lat="43.35833" lon="5.55813">
        <ele>571.826294</ele>
        <time>2011-02-06T11:48:36Z</time>
      </trkpt>
      <trkpt lat="43.35865" lon="5.55833">
        <ele>567.895813</ele>
        <time>2011-02-06T11:48:48Z</time>
      </trkpt>
      <trkpt lat="43.3588" lon="5.55842">
        <ele>566.464417</ele>
        <time>2011-02-06T11:48:54Z</time>
      </trkpt>
      <trkpt lat="43.35897" lon="5.55853">
        <ele>566.199768</ele>
        <time>2011-02-06T11:49:03Z</time>
      </trkpt>
      <trkpt lat="43.35913" lon="5.55862">
        <ele>565.664185</ele>
        <time>2011-02-06T11:49:11Z</time>
      </trkpt>
      <trkpt lat="43.35927" lon="5.55865">
        <ele>564.610046</ele>
        <time>2011-02-06T11:49:17Z</time>
      </trkpt>
      <trkpt lat="43.3597" lon="5.55868">
        <ele>559.512817</ele>
        <time>2011-02-06T11:49:35Z</time>
      </trkpt>
      <trkpt lat="43.35978" lon="5.55852">
        <ele>556.648865</ele>
        <time>2011-02-06T11:49:41Z</time>
      </trkpt>
      <trkpt lat="43.35978" lon="5.5583">
        <ele>554.888245</ele>
        <time>2011-02-06T11:49:48Z</time>
      </trkpt>
      <trkpt lat="43.35975" lon="5.55812">
        <ele>553.93988</ele>
        <time>2011-02-06T11:49:54Z</time>
      </trkpt>
      <trkpt lat="43.35962" lon="5.55795">
        <ele>553.676819</ele>
        <time>2011-02-06T11:50:02Z</time>
      </trkpt>
      <trkpt lat="43.3595" lon="5.55778">
        <ele>552.335999</ele>
        <time>2011-02-06T11:50:08Z</time>
      </trkpt>
      <trkpt lat="43.3594" lon="5.55762">
        <ele>550.872314</ele>
        <time>2011-02-06T11:50:14Z</time>
      </trkpt>
      <trkpt lat="43.35933" lon="5.55738">
        <ele>548.044556</ele>
        <time>2011-02-06T11:50:20Z</time>
      </trkpt>
      <trkpt lat="43.35937" lon="5.55715">
        <ele>548.1604</ele>
        <time>2011-02-06T11:50:28Z</time>
      </trkpt>
      <trkpt lat="43.35945" lon="5.557">
        <ele>546.371948</ele>
        <time>2011-02-06T11:50:34Z</time>
      </trkpt>
      <trkpt lat="43.35962" lon="5.5569">
        <ele>541.412476</ele>
        <time>2011-02-06T11:50:42Z</time>
      </trkpt>
      <trkpt lat="43.35978" lon="5.55677">
        <ele>536.035034</ele>
        <time>2011-02-06T11:50:48Z</time>
      </trkpt>
      <trkpt lat="43.35995" lon="5.55658">
        <ele>534.227295</ele>
        <time>2011-02-06T11:50:57Z</time>
      </trkpt>
      <trkpt lat="43.3601" lon="5.55637">
        <ele>534.006897</ele>
        <time>2011-02-06T11:51:05Z</time>
      </trkpt>
      <trkpt lat="43.36022" lon="5.55623">
        <ele>532.711792</ele>
        <time>2011-02-06T11:51:11Z</time>
      </trkpt>
      <trkpt lat="43.36035" lon="5.55607">
        <ele>529.488525</ele>
        <time>2011-02-06T11:51:19Z</time>
      </trkpt>
      <trkpt lat="43.36043" lon="5.5559">
        <ele>529.363647</ele>
        <time>2011-02-06T11:51:25Z</time>
      </trkpt>
      <trkpt lat="43.36057" lon="5.5557">
        <ele>528.366455</ele>
        <time>2011-02-06T11:51:35Z</time>
      </trkpt>
      <trkpt lat="43.36068" lon="5.5556">
        <ele>525.594849</ele>
        <time>2011-02-06T11:51:43Z</time>
      </trkpt>
      <trkpt lat="43.3608" lon="5.55545">
        <ele>521.357483</ele>
        <time>2011-02-06T11:51:52Z</time>
      </trkpt>
      <trkpt lat="43.36087" lon="5.55528">
        <ele>519.905701</ele>
        <time>2011-02-06T11:52:00Z</time>
      </trkpt>
      <trkpt lat="43.36095" lon="5.55507">
        <ele>518.499451</ele>
        <time>2011-02-06T11:52:10Z</time>
      </trkpt>
      <trkpt lat="43.36103" lon="5.55488">
        <ele>515.298584</ele>
        <time>2011-02-06T11:52:20Z</time>
      </trkpt>
      <trkpt lat="43.36107" lon="5.55468">
        <ele>513.580078</ele>
        <time>2011-02-06T11:52:30Z</time>
      </trkpt>
      <trkpt lat="43.36115" lon="5.5545">
        <ele>509.494019</ele>
        <time>2011-02-06T11:53:06Z</time>
      </trkpt>
      <trkpt lat="43.36128" lon="5.5546">
        <ele>505.603424</ele>
        <time>2011-02-06T11:54:12Z</time>
      </trkpt>
      <trkpt lat="43.36143" lon="5.55468">
        <ele>501.089111</ele>
        <time>2011-02-06T11:54:22Z</time>
      </trkpt>
      <trkpt lat="43.36167" lon="5.55478">
        <ele>495.669495</ele>
        <time>2011-02-06T11:56:02Z</time>
      </trkpt>
      <trkpt lat="43.3618" lon="5.55473">
        <ele>495.137421</ele>
        <time>2011-02-06T11:56:23Z</time>
      </trkpt>
      <trkpt lat="43.36188" lon="5.55453">
        <ele>495.221466</ele>
        <time>2011-02-06T11:56:31Z</time>
      </trkpt>
      <trkpt lat="43.36193" lon="5.55432">
        <ele>491.653564</ele>
        <time>2011-02-06T11:56:39Z</time>
      </trkpt>
      <trkpt lat="43.362" lon="5.55407">
        <ele>484.965729</ele>
        <time>2011-02-06T11:56:49Z</time>
      </trkpt>
      <trkpt lat="43.36198" lon="5.55387">
        <ele>479.945068</ele>
        <time>2011-02-06T11:56:57Z</time>
      </trkpt>
      <trkpt lat="43.3619" lon="5.55372">
        <ele>476.855835</ele>
        <time>2011-02-06T11:57:04Z</time>
      </trkpt>
      <trkpt lat="43.3618" lon="5.55355">
        <ele>473.081146</ele>
        <time>2011-02-06T11:57:12Z</time>
      </trkpt>
      <trkpt lat="43.36172" lon="5.55337">
        <ele>468.384979</ele>
        <time>2011-02-06T11:57:20Z</time>
      </trkpt>
      <trkpt lat="43.36165" lon="5.55317">
        <ele>462.96283</ele>
        <time>2011-02-06T11:57:28Z</time>
      </trkpt>
      <trkpt lat="43.36157" lon="5.5529">
        <ele>458.846832</ele>
        <time>2011-02-06T11:57:38Z</time>
      </trkpt>
      <trkpt lat="43.3615" lon="5.55272">
        <ele>455.994934</ele>
        <time>2011-02-06T11:57:46Z</time>
      </trkpt>
      <trkpt lat="43.36137" lon="5.55258">
        <ele>455.709442</ele>
        <time>2011-02-06T11:57:53Z</time>
      </trkpt>
      <trkpt lat="43.36123" lon="5.55237">
        <ele>452.083038</ele>
        <time>2011-02-06T11:58:01Z</time>
      </trkpt>
      <trkpt lat="43.3611" lon="5.55218">
        <ele>448.962494</ele>
        <time>2011-02-06T11:58:07Z</time>
      </trkpt>
      <trkpt lat="43.361" lon="5.55203">
        <ele>445.491852</ele>
        <time>2011-02-06T11:58:11Z</time>
      </trkpt>
      <trkpt lat="43.36088" lon="5.5519">
        <ele>443.037506</ele>
        <time>2011-02-06T11:58:15Z</time>
      </trkpt>
      <trkpt lat="43.36073" lon="5.55173">
        <ele>444.063812</ele>
        <time>2011-02-06T11:58:21Z</time>
      </trkpt>
      <trkpt lat="43.3607" lon="5.55153">
        <ele>442.865784</ele>
        <time>2011-02-06T11:58:27Z</time>
      </trkpt>
      <trkpt lat="43.36072" lon="5.5513">
        <ele>439.572906</ele>
        <time>2011-02-06T11:58:33Z</time>
      </trkpt>
      <trkpt lat="43.36082" lon="5.5511">
        <ele>435.973236</ele>
        <time>2011-02-06T11:58:39Z</time>
      </trkpt>
      <trkpt lat="43.36088" lon="5.5509">
        <ele>433.784027</ele>
        <time>2011-02-06T11:58:45Z</time>
      </trkpt>
      <trkpt lat="43.36095" lon="5.55068">
        <ele>430.966949</ele>
        <time>2011-02-06T11:58:51Z</time>
      </trkpt>
      <trkpt lat="43.36097" lon="5.55048">
        <ele>428.63858</ele>
        <time>2011-02-06T11:58:55Z</time>
      </trkpt>
      <trkpt lat="43.361" lon="5.55022">
        <ele>425.078064</ele>
        <time>2011-02-06T11:59:02Z</time>
      </trkpt>
      <trkpt lat="43.361" lon="5.55002">
        <ele>422.976501</ele>
        <time>2011-02-06T11:59:06Z</time>
      </trkpt>
      <trkpt lat="43.361" lon="5.54982">
        <ele>419.98996</ele>
        <time>2011-02-06T11:59:10Z</time>
      </trkpt>
      <trkpt lat="43.36098" lon="5.54962">
        <ele>417.611267</ele>
        <time>2011-02-06T11:59:14Z</time>
      </trkpt>
      <trkpt lat="43.36092" lon="5.5494">
        <ele>416.445709</ele>
        <time>2011-02-06T11:59:20Z</time>
      </trkpt>
      <trkpt lat="43.36083" lon="5.54912">
        <ele>413.875885</ele>
        <time>2011-02-06T11:59:28Z</time>
      </trkpt>
      <trkpt lat="43.36078" lon="5.54892">
        <ele>411.822998</ele>
        <time>2011-02-06T11:59:34Z</time>
      </trkpt>
      <trkpt lat="43.36073" lon="5.54857">
        <ele>406.914795</ele>
        <time>2011-02-06T11:59:44Z</time>
      </trkpt>
      <trkpt lat="43.3607" lon="5.54835">
        <ele>403.864685</ele>
        <time>2011-02-06T11:59:51Z</time>
      </trkpt>
      <trkpt lat="43.36072" lon="5.54813">
        <ele>399.427307</ele>
        <time>2011-02-06T11:59:57Z</time>
      </trkpt>
      <trkpt lat="43.36072" lon="5.5479">
        <ele>395.838348</ele>
        <time>2011-02-06T12:00:03Z</time>
      </trkpt>
      <trkpt lat="43.36067" lon="5.54767">
        <ele>393.401367</ele>
        <time>2011-02-06T12:00:09Z</time>
      </trkpt>
      <trkpt lat="43.36073" lon="5.54748">
        <ele>390.988098</ele>
        <time>2011-02-06T12:02:05Z</time>
      </trkpt>
      <trkpt lat="43.3608" lon="5.54712">
        <ele>389.431152</ele>
        <time>2011-02-06T12:02:23Z</time>
      </trkpt>
      <trkpt lat="43.36087" lon="5.54695">
        <ele>388.008881</ele>
        <time>2011-02-06T12:02:31Z</time>
      </trkpt>
      <trkpt lat="43.36088" lon="5.5467">
        <ele>389.174835</ele>
        <time>2011-02-06T12:02:40Z</time>
      </trkpt>
      <trkpt lat="43.36087" lon="5.5465">
        <ele>391.068695</ele>
        <time>2011-02-06T12:02:46Z</time>
      </trkpt>
      <trkpt lat="43.36088" lon="5.54625">
        <ele>391.193298</ele>
        <time>2011-02-06T12:02:52Z</time>
      </trkpt>
      <trkpt lat="43.3609" lon="5.54597">
        <ele>390.439514</ele>
        <time>2011-02-06T12:02:58Z</time>
      </trkpt>
      <trkpt lat="43.3609" lon="5.54562">
        <ele>389.989929</ele>
        <time>2011-02-06T12:03:06Z</time>
      </trkpt>
      <trkpt lat="43.3609" lon="5.54538">
        <ele>389.480133</ele>
        <time>2011-02-06T12:03:10Z</time>
      </trkpt>
      <trkpt lat="43.36088" lon="5.54517">
        <ele>389.602783</ele>
        <time>2011-02-06T12:03:14Z</time>
      </trkpt>
      <trkpt lat="43.36083" lon="5.54488">
        <ele>390.181091</ele>
        <time>2011-02-06T12:03:20Z</time>
      </trkpt>
      <trkpt lat="43.36077" lon="5.54448">
        <ele>390.502258</ele>
        <time>2011-02-06T12:03:28Z</time>
      </trkpt>
      <trkpt lat="43.3607" lon="5.54427">
        <ele>390.741913</ele>
        <time>2011-02-06T12:03:36Z</time>
      </trkpt>
      <trkpt lat="43.36062" lon="5.54403">
        <ele>390.515839</ele>
        <time>2011-02-06T12:03:45Z</time>
      </trkpt>
      <trkpt lat="43.36053" lon="5.54385">
        <ele>391.921143</ele>
        <time>2011-02-06T12:03:51Z</time>
      </trkpt>
      <trkpt lat="43.36042" lon="5.54372">
        <ele>397.289032</ele>
        <time>2011-02-06T12:03:59Z</time>
      </trkpt>
      <trkpt lat="43.36045" lon="5.54353">
        <ele>398.392273</ele>
        <time>2011-02-06T12:04:09Z</time>
      </trkpt>
      <trkpt lat="43.36058" lon="5.54342">
        <ele>395.640259</ele>
        <time>2011-02-06T12:04:21Z</time>
      </trkpt>
      <trkpt lat="43.36062" lon="5.54323">
        <ele>396.633118</ele>
        <time>2011-02-06T12:04:31Z</time>
      </trkpt>
      <trkpt lat="43.36052" lon="5.5431">
        <ele>400.055054</ele>
        <time>2011-02-06T12:04:43Z</time>
      </trkpt>
      <trkpt lat="43.36047" lon="5.54277">
        <ele>402.993347</ele>
        <time>2011-02-06T12:05:00Z</time>
      </trkpt>
      <trkpt lat="43.36045" lon="5.54253">
        <ele>403.467987</ele>
        <time>2011-02-06T12:05:04Z</time>
      </trkpt>
      <trkpt lat="43.36045" lon="5.54213">
        <ele>402.026398</ele>
        <time>2011-02-06T12:05:16Z</time>
      </trkpt>
      <trkpt lat="43.36042" lon="5.5419">
        <ele>401.890961</ele>
        <time>2011-02-06T12:05:22Z</time>
      </trkpt>
      <trkpt lat="43.36035" lon="5.54168">
        <ele>402.545654</ele>
        <time>2011-02-06T12:05:26Z</time>
      </trkpt>
      <trkpt lat="43.3603" lon="5.54145">
        <ele>402.582367</ele>
        <time>2011-02-06T12:05:30Z</time>
      </trkpt>
      <trkpt lat="43.36028" lon="5.54123">
        <ele>401.757172</ele>
        <time>2011-02-06T12:05:34Z</time>
      </trkpt>
      <trkpt lat="43.36027" lon="5.54103">
        <ele>401.018433</ele>
        <time>2011-02-06T12:05:40Z</time>
      </trkpt>
      <trkpt lat="43.36025" lon="5.54077">
        <ele>399.768951</ele>
        <time>2011-02-06T12:05:46Z</time>
      </trkpt>
      <trkpt lat="43.36023" lon="5.54053">
        <ele>398.083923</ele>
        <time>2011-02-06T12:05:53Z</time>
      </trkpt>
      <trkpt lat="43.36015" lon="5.54032">
        <ele>398.503906</ele>
        <time>2011-02-06T12:05:59Z</time>
      </trkpt>
      <trkpt lat="43.36015" lon="5.54007">
        <ele>396.761963</ele>
        <time>2011-02-06T12:06:05Z</time>
      </trkpt>
      <trkpt lat="43.36028" lon="5.5401">
        <ele>393.438049</ele>
        <time>2011-02-06T12:06:43Z</time>
      </trkpt>
      <trkpt lat="43.3604" lon="5.54023">
        <ele>391.213959</ele>
        <time>2011-02-06T12:06:49Z</time>
      </trkpt>
      <trkpt lat="43.36053" lon="5.54037">
        <ele>389.080872</ele>
        <time>2011-02-06T12:06:55Z</time>
      </trkpt>
      <trkpt lat="43.36062" lon="5.54053">
        <ele>388.498322</ele>
        <time>2011-02-06T12:07:01Z</time>
      </trkpt>
      <trkpt lat="43.3607" lon="5.5407">
        <ele>388.125671</ele>
        <time>2011-02-06T12:07:09Z</time>
      </trkpt>
      <trkpt lat="43.36078" lon="5.54087">
        <ele>387.772064</ele>
        <time>2011-02-06T12:07:38Z</time>
      </trkpt>
      <trkpt lat="43.36088" lon="5.541">
        <ele>386.520325</ele>
        <time>2011-02-06T12:07:50Z</time>
      </trkpt>
      <trkpt lat="43.36102" lon="5.54115">
        <ele>384.687592</ele>
        <time>2011-02-06T12:07:58Z</time>
      </trkpt>
      <trkpt lat="43.36115" lon="5.54127">
        <ele>382.882141</ele>
        <time>2011-02-06T12:08:04Z</time>
      </trkpt>
      <trkpt lat="43.36133" lon="5.54145">
        <ele>381.066681</ele>
        <time>2011-02-06T12:08:12Z</time>
      </trkpt>
      <trkpt lat="43.3614" lon="5.54168">
        <ele>380.424194</ele>
        <time>2011-02-06T12:08:19Z</time>
      </trkpt>
      <trkpt lat="43.36143" lon="5.54187">
        <ele>379.930481</ele>
        <time>2011-02-06T12:08:23Z</time>
      </trkpt>
      <trkpt lat="43.36157" lon="5.54183">
        <ele>377.281799</ele>
        <time>2011-02-06T12:08:35Z</time>
      </trkpt>
      <trkpt lat="43.36163" lon="5.54165">
        <ele>375.930847</ele>
        <time>2011-02-06T12:08:41Z</time>
      </trkpt>
      <trkpt lat="43.36172" lon="5.54182">
        <ele>374.122711</ele>
        <time>2011-02-06T12:08:51Z</time>
      </trkpt>
      <trkpt lat="43.36182" lon="5.542">
        <ele>372.08197</ele>
        <time>2011-02-06T12:08:57Z</time>
      </trkpt>
      <trkpt lat="43.36198" lon="5.54205">
        <ele>368.726471</ele>
        <time>2011-02-06T12:09:04Z</time>
      </trkpt>
      <trkpt lat="43.36217" lon="5.54205">
        <ele>365.448273</ele>
        <time>2011-02-06T12:09:10Z</time>
      </trkpt>
      <trkpt lat="43.36238" lon="5.54203">
        <ele>361.555817</ele>
        <time>2011-02-06T12:09:18Z</time>
      </trkpt>
      <trkpt lat="43.36248" lon="5.5418">
        <ele>360.027863</ele>
        <time>2011-02-06T12:09:24Z</time>
      </trkpt>
      <trkpt lat="43.36257" lon="5.54153">
        <ele>359.189697</ele>
        <time>2011-02-06T12:09:30Z</time>
      </trkpt>
      <trkpt lat="43.36262" lon="5.54133">
        <ele>359.224884</ele>
        <time>2011-02-06T12:09:34Z</time>
      </trkpt>
      <trkpt lat="43.36273" lon="5.5412">
        <ele>358.699921</ele>
        <time>2011-02-06T12:09:38Z</time>
      </trkpt>
      <trkpt lat="43.36287" lon="5.54105">
        <ele>358.095673</ele>
        <time>2011-02-06T12:09:42Z</time>
      </trkpt>
      <trkpt lat="43.36303" lon="5.54098">
        <ele>357.12027</ele>
        <time>2011-02-06T12:09:48Z</time>
      </trkpt>
      <trkpt lat="43.36318" lon="5.54095">
        <ele>356.238098</ele>
        <time>2011-02-06T12:09:53Z</time>
      </trkpt>
      <trkpt lat="43.36337" lon="5.54092">
        <ele>355.154419</ele>
        <time>2011-02-06T12:09:57Z</time>
      </trkpt>
      <trkpt lat="43.36358" lon="5.54088">
        <ele>354.034851</ele>
        <time>2011-02-06T12:10:01Z</time>
      </trkpt>
      <trkpt lat="43.36378" lon="5.54085">
        <ele>353.143494</ele>
        <time>2011-02-06T12:10:05Z</time>
      </trkpt>
      <trkpt lat="43.36392" lon="5.54078">
        <ele>352.6922</ele>
        <time>2011-02-06T12:10:13Z</time>
      </trkpt>
      <trkpt lat="43.3638" lon="5.5406">
        <ele>354.688782</ele>
        <time>2011-02-06T12:13:04Z</time>
      </trkpt>
      <trkpt lat="43.36373" lon="5.5404">
        <ele>356.107483</ele>
        <time>2011-02-06T12:13:14Z</time>
      </trkpt>
      <trkpt lat="43.36372" lon="5.54018">
        <ele>358.278595</ele>
        <time>2011-02-06T12:13:24Z</time>
      </trkpt>
      <trkpt lat="43.36365" lon="5.54">
        <ele>360.359589</ele>
        <time>2011-02-06T12:13:35Z</time>
      </trkpt>
      <trkpt lat="43.36357" lon="5.53982">
        <ele>362.594788</ele>
        <time>2011-02-06T12:13:47Z</time>
      </trkpt>
      <trkpt lat="43.36343" lon="5.53968">
        <ele>364.561035</ele>
        <time>2011-02-06T12:13:59Z</time>
      </trkpt>
      <trkpt lat="43.36328" lon="5.53962">
        <ele>367.30542</ele>
        <time>2011-02-06T12:14:12Z</time>
      </trkpt>
      <trkpt lat="43.36313" lon="5.53968">
        <ele>368.749847</ele>
        <time>2011-02-06T12:14:22Z</time>
      </trkpt>
      <trkpt lat="43.36302" lon="5.5398">
        <ele>368.723114</ele>
        <time>2011-02-06T12:14:34Z</time>
      </trkpt>
      <trkpt lat="43.36288" lon="5.53988">
        <ele>369.103607</ele>
        <time>2011-02-06T12:14:42Z</time>
      </trkpt>
      <trkpt lat="43.3627" lon="5.53997">
        <ele>369.998413</ele>
        <time>2011-02-06T12:14:59Z</time>
      </trkpt>
      <trkpt lat="43.36257" lon="5.54003">
        <ele>370.548431</ele>
        <time>2011-02-06T12:15:09Z</time>
      </trkpt>
      <trkpt lat="43.36247" lon="5.53988">
        <ele>374.125671</ele>
        <time>2011-02-06T12:15:21Z</time>
      </trkpt>
      <trkpt lat="43.36257" lon="5.53972">
        <ele>375.812073</ele>
        <time>2011-02-06T12:15:34Z</time>
      </trkpt>
      <trkpt lat="43.36268" lon="5.53953">
        <ele>376.954407</ele>
        <time>2011-02-06T12:15:46Z</time>
      </trkpt>
      <trkpt lat="43.36277" lon="5.53938">
        <ele>378.105652</ele>
        <time>2011-02-06T12:15:54Z</time>
      </trkpt>
      <trkpt lat="43.36283" lon="5.53918">
        <ele>380.24939</ele>
        <time>2011-02-06T12:16:02Z</time>
      </trkpt>
      <trkpt lat="43.36292" lon="5.53897">
        <ele>381.059387</ele>
        <time>2011-02-06T12:16:11Z</time>
      </trkpt>
      <trkpt lat="43.36295" lon="5.53873">
        <ele>381.542969</ele>
        <time>2011-02-06T12:16:19Z</time>
      </trkpt>
      <trkpt lat="43.36293" lon="5.5385">
        <ele>382.702759</ele>
        <time>2011-02-06T12:16:27Z</time>
      </trkpt>
      <trkpt lat="43.36288" lon="5.5383">
        <ele>383.653564</ele>
        <time>2011-02-06T12:16:33Z</time>
      </trkpt>
      <trkpt lat="43.36285" lon="5.5381">
        <ele>384.586151</ele>
        <time>2011-02-06T12:16:39Z</time>
      </trkpt>
      <trkpt lat="43.36278" lon="5.53782">
        <ele>387.001404</ele>
        <time>2011-02-06T12:16:47Z</time>
      </trkpt>
      <trkpt lat="43.36277" lon="5.53758">
        <ele>388.663757</ele>
        <time>2011-02-06T12:16:56Z</time>
      </trkpt>
      <trkpt lat="43.3628" lon="5.53737">
        <ele>388.654816</ele>
        <time>2011-02-06T12:17:04Z</time>
      </trkpt>
      <trkpt lat="43.36285" lon="5.53708">
        <ele>387.978149</ele>
        <time>2011-02-06T12:17:16Z</time>
      </trkpt>
      <trkpt lat="43.36283" lon="5.53687">
        <ele>389.385071</ele>
        <time>2011-02-06T12:17:24Z</time>
      </trkpt>
      <trkpt lat="43.36277" lon="5.53668">
        <ele>392.420197</ele>
        <time>2011-02-06T12:17:32Z</time>
      </trkpt>
      <trkpt lat="43.36268" lon="5.53648">
        <ele>395.108337</ele>
        <time>2011-02-06T12:17:40Z</time>
      </trkpt>
      <trkpt lat="43.36267" lon="5.53628">
        <ele>395.020538</ele>
        <time>2011-02-06T12:17:49Z</time>
      </trkpt>
      <trkpt lat="43.36267" lon="5.53608">
        <ele>394.335846</ele>
        <time>2011-02-06T12:17:57Z</time>
      </trkpt>
      <trkpt lat="43.36267" lon="5.53578">
        <ele>395.026733</ele>
        <time>2011-02-06T12:18:09Z</time>
      </trkpt>
      <trkpt lat="43.3627" lon="5.53535">
        <ele>396.271362</ele>
        <time>2011-02-06T12:18:27Z</time>
      </trkpt>
      <trkpt lat="43.36272" lon="5.53513">
        <ele>398.915039</ele>
        <time>2011-02-06T12:18:36Z</time>
      </trkpt>
      <trkpt lat="43.36257" lon="5.53515">
        <ele>401.702576</ele>
        <time>2011-02-06T12:18:54Z</time>
      </trkpt>
      <trkpt lat="43.3625" lon="5.53532">
        <ele>400.620941</ele>
        <time>2011-02-06T12:19:04Z</time>
      </trkpt>
      <trkpt lat="43.36238" lon="5.53543">
        <ele>401.728943</ele>
        <time>2011-02-06T12:19:14Z</time>
      </trkpt>
      <trkpt lat="43.36225" lon="5.53557">
        <ele>404.137421</ele>
        <time>2011-02-06T12:19:26Z</time>
      </trkpt>
      <trkpt lat="43.36208" lon="5.53568">
        <ele>407.160187</ele>
        <time>2011-02-06T12:19:38Z</time>
      </trkpt>
      <trkpt lat="43.36195" lon="5.53578">
        <ele>409.780823</ele>
        <time>2011-02-06T12:19:49Z</time>
      </trkpt>
      <trkpt lat="43.3618" lon="5.53592">
        <ele>413.67157</ele>
        <time>2011-02-06T12:20:01Z</time>
      </trkpt>
      <trkpt lat="43.36163" lon="5.53592">
        <ele>417.362976</ele>
        <time>2011-02-06T12:20:11Z</time>
      </trkpt>
      <trkpt lat="43.36152" lon="5.53577">
        <ele>418.3461</ele>
        <time>2011-02-06T12:20:19Z</time>
      </trkpt>
      <trkpt lat="43.36142" lon="5.53558">
        <ele>418.356506</ele>
        <time>2011-02-06T12:20:25Z</time>
      </trkpt>
      <trkpt lat="43.36135" lon="5.53532">
        <ele>416.287933</ele>
        <time>2011-02-06T12:20:31Z</time>
      </trkpt>
      <trkpt lat="43.36125" lon="5.53508">
        <ele>413.283325</ele>
        <time>2011-02-06T12:20:37Z</time>
      </trkpt>
      <trkpt lat="43.36107" lon="5.535">
        <ele>414.502289</ele>
        <time>2011-02-06T12:20:44Z</time>
      </trkpt>
      <trkpt lat="43.36087" lon="5.53503">
        <ele>418.750397</ele>
        <time>2011-02-06T12:20:50Z</time>
      </trkpt>
      <trkpt lat="43.36072" lon="5.53498">
        <ele>421.101715</ele>
        <time>2011-02-06T12:20:54Z</time>
      </trkpt>
      <trkpt lat="43.36063" lon="5.53483">
        <ele>419.689697</ele>
        <time>2011-02-06T12:20:58Z</time>
      </trkpt>
      <trkpt lat="43.36058" lon="5.53465">
        <ele>416.877869</ele>
        <time>2011-02-06T12:21:02Z</time>
      </trkpt>
      <trkpt lat="43.3605" lon="5.5344">
        <ele>416.270416</ele>
        <time>2011-02-06T12:21:08Z</time>
      </trkpt>
      <trkpt lat="43.36045" lon="5.53422">
        <ele>415.774994</ele>
        <time>2011-02-06T12:21:12Z</time>
      </trkpt>
      <trkpt lat="43.36037" lon="5.53398">
        <ele>413.803436</ele>
        <time>2011-02-06T12:21:18Z</time>
      </trkpt>
      <trkpt lat="43.3602" lon="5.53393">
        <ele>412.200867</ele>
        <time>2011-02-06T12:21:24Z</time>
      </trkpt>
      <trkpt lat="43.36008" lon="5.53407">
        <ele>414.328094</ele>
        <time>2011-02-06T12:21:28Z</time>
      </trkpt>
      <trkpt lat="43.35998" lon="5.53422">
        <ele>416.696472</ele>
        <time>2011-02-06T12:21:32Z</time>
      </trkpt>
      <trkpt lat="43.35988" lon="5.53437">
        <ele>417.627747</ele>
        <time>2011-02-06T12:21:36Z</time>
      </trkpt>
      <trkpt lat="43.35973" lon="5.53458">
        <ele>418.580688</ele>
        <time>2011-02-06T12:21:42Z</time>
      </trkpt>
      <trkpt lat="43.35963" lon="5.53472">
        <ele>419.82132</ele>
        <time>2011-02-06T12:21:46Z</time>
      </trkpt>
      <trkpt lat="43.35952" lon="5.5349">
        <ele>422.301971</ele>
        <time>2011-02-06T12:21:50Z</time>
      </trkpt>
      <trkpt lat="43.35938" lon="5.535">
        <ele>423.224304</ele>
        <time>2011-02-06T12:21:54Z</time>
      </trkpt>
      <trkpt lat="43.35917" lon="5.53513">
        <ele>424.157074</ele>
        <time>2011-02-06T12:22:02Z</time>
      </trkpt>
      <trkpt lat="43.35902" lon="5.53522">
        <ele>424.602264</ele>
        <time>2011-02-06T12:22:08Z</time>
      </trkpt>
      <trkpt lat="43.35885" lon="5.53518">
        <ele>425.664642</ele>
        <time>2011-02-06T12:22:15Z</time>
      </trkpt>
      <trkpt lat="43.3587" lon="5.53502">
        <ele>423.774811</ele>
        <time>2011-02-06T12:22:23Z</time>
      </trkpt>
      <trkpt lat="43.35863" lon="5.53485">
        <ele>421.287598</ele>
        <time>2011-02-06T12:22:27Z</time>
      </trkpt>
      <trkpt lat="43.35848" lon="5.53447">
        <ele>420.409363</ele>
        <time>2011-02-06T12:22:37Z</time>
      </trkpt>
      <trkpt lat="43.3584" lon="5.53423">
        <ele>421.428223</ele>
        <time>2011-02-06T12:22:43Z</time>
      </trkpt>
      <trkpt lat="43.35833" lon="5.534">
        <ele>421.459717</ele>
        <time>2011-02-06T12:22:49Z</time>
      </trkpt>
      <trkpt lat="43.35823" lon="5.53365">
        <ele>424.475128</ele>
        <time>2011-02-06T12:22:57Z</time>
      </trkpt>
      <trkpt lat="43.35822" lon="5.53338">
        <ele>425.03949</ele>
        <time>2011-02-06T12:23:03Z</time>
      </trkpt>
      <trkpt lat="43.35828" lon="5.53317">
        <ele>424.339111</ele>
        <time>2011-02-06T12:23:09Z</time>
      </trkpt>
      <trkpt lat="43.35837" lon="5.53298">
        <ele>424.309265</ele>
        <time>2011-02-06T12:23:15Z</time>
      </trkpt>
      <trkpt lat="43.35845" lon="5.5328">
        <ele>424.913422</ele>
        <time>2011-02-06T12:23:24Z</time>
      </trkpt>
      <trkpt lat="43.35848" lon="5.53258">
        <ele>425.786285</ele>
        <time>2011-02-06T12:23:32Z</time>
      </trkpt>
      <trkpt lat="43.35845" lon="5.53238">
        <ele>426.112427</ele>
        <time>2011-02-06T12:23:40Z</time>
      </trkpt>
      <trkpt lat="43.35838" lon="5.5322">
        <ele>426.428711</ele>
        <time>2011-02-06T12:23:50Z</time>
      </trkpt>
      <trkpt lat="43.35825" lon="5.53213">
        <ele>427.323395</ele>
        <time>2011-02-06T12:23:54Z</time>
      </trkpt>
      <trkpt lat="43.3581" lon="5.53198">
        <ele>427.922455</ele>
        <time>2011-02-06T12:23:58Z</time>
      </trkpt>
      <trkpt lat="43.35802" lon="5.53165">
        <ele>424.245453</ele>
        <time>2011-02-06T12:24:02Z</time>
      </trkpt>
      <trkpt lat="43.35805" lon="5.53128">
        <ele>419.601746</ele>
        <time>2011-02-06T12:24:06Z</time>
      </trkpt>
      <trkpt lat="43.35812" lon="5.53112">
        <ele>418.862091</ele>
        <time>2011-02-06T12:24:08Z</time>
      </trkpt>
      <trkpt lat="43.3582" lon="5.53097">
        <ele>419.567261</ele>
        <time>2011-02-06T12:24:10Z</time>
      </trkpt>
      <trkpt lat="43.35832" lon="5.53075">
        <ele>419.301575</ele>
        <time>2011-02-06T12:24:12Z</time>
      </trkpt>
      <trkpt lat="43.3584" lon="5.5305">
        <ele>417.825592</ele>
        <time>2011-02-06T12:24:16Z</time>
      </trkpt>
      <trkpt lat="43.35845" lon="5.53032">
        <ele>418.271118</ele>
        <time>2011-02-06T12:24:41Z</time>
      </trkpt>
      <trkpt lat="43.35853" lon="5.53007">
        <ele>419.218475</ele>
        <time>2011-02-06T12:24:51Z</time>
      </trkpt>
      <trkpt lat="43.35858" lon="5.52987">
        <ele>419.938385</ele>
        <time>2011-02-06T12:24:57Z</time>
      </trkpt>
      <trkpt lat="43.35863" lon="5.52963">
        <ele>421.434662</ele>
        <time>2011-02-06T12:25:03Z</time>
      </trkpt>
      <trkpt lat="43.35872" lon="5.52925">
        <ele>425.945404</ele>
        <time>2011-02-06T12:25:11Z</time>
      </trkpt>
      <trkpt lat="43.3587" lon="5.529">
        <ele>425.174347</ele>
        <time>2011-02-06T12:25:15Z</time>
      </trkpt>
      <trkpt lat="43.3587" lon="5.52878">
        <ele>424.565033</ele>
        <time>2011-02-06T12:25:19Z</time>
      </trkpt>
      <trkpt lat="43.35868" lon="5.52837">
        <ele>422.546722</ele>
        <time>2011-02-06T12:25:28Z</time>
      </trkpt>
      <trkpt lat="43.35865" lon="5.5279">
        <ele>420.049103</ele>
        <time>2011-02-06T12:25:36Z</time>
      </trkpt>
      <trkpt lat="43.35862" lon="5.52763">
        <ele>418.682983</ele>
        <time>2011-02-06T12:25:40Z</time>
      </trkpt>
      <trkpt lat="43.35855" lon="5.52738">
        <ele>417.474396</ele>
        <time>2011-02-06T12:25:44Z</time>
      </trkpt>
      <trkpt lat="43.35853" lon="5.52718">
        <ele>417.952209</ele>
        <time>2011-02-06T12:25:48Z</time>
      </trkpt>
      <trkpt lat="43.35863" lon="5.52697">
        <ele>417.168091</ele>
        <time>2011-02-06T12:25:52Z</time>
      </trkpt>
      <trkpt lat="43.35877" lon="5.52673">
        <ele>416.058258</ele>
        <time>2011-02-06T12:25:56Z</time>
      </trkpt>
      <trkpt lat="43.35885" lon="5.52638">
        <ele>414.232178</ele>
        <time>2011-02-06T12:26:00Z</time>
      </trkpt>
      <trkpt lat="43.3589" lon="5.52605">
        <ele>411.56781</ele>
        <time>2011-02-06T12:26:02Z</time>
      </trkpt>
      <trkpt lat="43.35888" lon="5.5258">
        <ele>409.447357</ele>
        <time>2011-02-06T12:26:04Z</time>
      </trkpt>
      <trkpt lat="43.35885" lon="5.52553">
        <ele>405.256927</ele>
        <time>2011-02-06T12:26:06Z</time>
      </trkpt>
      <trkpt lat="43.35877" lon="5.5253">
        <ele>401.726379</ele>
        <time>2011-02-06T12:26:08Z</time>
      </trkpt>
      <trkpt lat="43.3586" lon="5.52483">
        <ele>398.095123</ele>
        <time>2011-02-06T12:26:12Z</time>
      </trkpt>
      <trkpt lat="43.35843" lon="5.5243">
        <ele>392.686859</ele>
        <time>2011-02-06T12:26:16Z</time>
      </trkpt>
      <trkpt lat="43.3584" lon="5.52403">
        <ele>387.727753</ele>
        <time>2011-02-06T12:26:18Z</time>
      </trkpt>
      <trkpt lat="43.35842" lon="5.52377">
        <ele>385.401611</ele>
        <time>2011-02-06T12:26:21Z</time>
      </trkpt>
      <trkpt lat="43.35843" lon="5.52352">
        <ele>383.480865</ele>
        <time>2011-02-06T12:26:23Z</time>
      </trkpt>
      <trkpt lat="43.3585" lon="5.52328">
        <ele>383.175446</ele>
        <time>2011-02-06T12:26:25Z</time>
      </trkpt>
      <trkpt lat="43.3586" lon="5.52305">
        <ele>378.189575</ele>
        <time>2011-02-06T12:26:27Z</time>
      </trkpt>
      <trkpt lat="43.35878" lon="5.52262">
        <ele>368.746216</ele>
        <time>2011-02-06T12:26:31Z</time>
      </trkpt>
      <trkpt lat="43.35885" lon="5.5224">
        <ele>365.965424</ele>
        <time>2011-02-06T12:26:33Z</time>
      </trkpt>
      <trkpt lat="43.3589" lon="5.52222">
        <ele>364.218719</ele>
        <time>2011-02-06T12:26:35Z</time>
      </trkpt>
      <trkpt lat="43.35907" lon="5.52192">
        <ele>359.155518</ele>
        <time>2011-02-06T12:26:39Z</time>
      </trkpt>
      <trkpt lat="43.35917" lon="5.52175">
        <ele>357.549957</ele>
        <time>2011-02-06T12:26:41Z</time>
      </trkpt>
      <trkpt lat="43.36" lon="5.52037">
        <ele>360.557404</ele>
        <time>2011-02-06T12:27:01Z</time>
      </trkpt>
      <trkpt lat="43.36013" lon="5.52017">
        <ele>359.422882</ele>
        <time>2011-02-06T12:27:05Z</time>
      </trkpt>
      <trkpt lat="43.36025" lon="5.52">
        <ele>359.442291</ele>
        <time>2011-02-06T12:27:09Z</time>
      </trkpt>
      <trkpt lat="43.36037" lon="5.51987">
        <ele>360.016174</ele>
        <time>2011-02-06T12:27:13Z</time>
      </trkpt>
      <trkpt lat="43.36048" lon="5.51972">
        <ele>358.730042</ele>
        <time>2011-02-06T12:27:18Z</time>
      </trkpt>
      <trkpt lat="43.36053" lon="5.51952">
        <ele>358.693085</ele>
        <time>2011-02-06T12:27:22Z</time>
      </trkpt>
      <trkpt lat="43.36062" lon="5.51913">
        <ele>358.693359</ele>
        <time>2011-02-06T12:27:28Z</time>
      </trkpt>
      <trkpt lat="43.36073" lon="5.51883">
        <ele>358.465454</ele>
        <time>2011-02-06T12:27:32Z</time>
      </trkpt>
      <trkpt lat="43.36092" lon="5.5186">
        <ele>357.24939</ele>
        <time>2011-02-06T12:27:36Z</time>
      </trkpt>
      <trkpt lat="43.36115" lon="5.51838">
        <ele>354.85318</ele>
        <time>2011-02-06T12:27:40Z</time>
      </trkpt>
      <trkpt lat="43.36152" lon="5.51805">
        <ele>354.039246</ele>
        <time>2011-02-06T12:27:46Z</time>
      </trkpt>
      <trkpt lat="43.36165" lon="5.51795">
        <ele>351.66153</ele>
        <time>2011-02-06T12:27:48Z</time>
      </trkpt>
      <trkpt lat="43.36195" lon="5.5178">
        <ele>347.725677</ele>
        <time>2011-02-06T12:27:52Z</time>
      </trkpt>
      <trkpt lat="43.36212" lon="5.51773">
        <ele>345.661102</ele>
        <time>2011-02-06T12:27:54Z</time>
      </trkpt>
      <trkpt lat="43.36227" lon="5.51767">
        <ele>344.082062</ele>
        <time>2011-02-06T12:27:56Z</time>
      </trkpt>
      <trkpt lat="43.36255" lon="5.51758">
        <ele>342.63028</ele>
        <time>2011-02-06T12:28:00Z</time>
      </trkpt>
      <trkpt lat="43.3627" lon="5.51763">
        <ele>340.37915</ele>
        <time>2011-02-06T12:28:02Z</time>
      </trkpt>
      <trkpt lat="43.36295" lon="5.51768">
        <ele>340.994904</ele>
        <time>2011-02-06T12:28:04Z</time>
      </trkpt>
      <trkpt lat="43.36338" lon="5.51778">
        <ele>339.187225</ele>
        <time>2011-02-06T12:28:10Z</time>
      </trkpt>
      <trkpt lat="43.36353" lon="5.51777">
        <ele>339.125641</ele>
        <time>2011-02-06T12:28:12Z</time>
      </trkpt>
      <trkpt lat="43.36367" lon="5.51773">
        <ele>339.165497</ele>
        <time>2011-02-06T12:28:14Z</time>
      </trkpt>
      <trkpt lat="43.36382" lon="5.5177">
        <ele>338.766418</ele>
        <time>2011-02-06T12:28:16Z</time>
      </trkpt>
      <trkpt lat="43.36395" lon="5.51765">
        <ele>339.136658</ele>
        <time>2011-02-06T12:28:18Z</time>
      </trkpt>
      <trkpt lat="43.3642" lon="5.5175">
        <ele>337.804871</ele>
        <time>2011-02-06T12:28:22Z</time>
      </trkpt>
      <trkpt lat="43.36433" lon="5.51738">
        <ele>336.616913</ele>
        <time>2011-02-06T12:28:25Z</time>
      </trkpt>
      <trkpt lat="43.36447" lon="5.51727">
        <ele>335.894073</ele>
        <time>2011-02-06T12:28:27Z</time>
      </trkpt>
      <trkpt lat="43.36458" lon="5.51712">
        <ele>334.966431</ele>
        <time>2011-02-06T12:28:29Z</time>
      </trkpt>
      <trkpt lat="43.36468" lon="5.51697">
        <ele>333.759399</ele>
        <time>2011-02-06T12:28:31Z</time>
      </trkpt>
      <trkpt lat="43.36488" lon="5.51665">
        <ele>329.449921</ele>
        <time>2011-02-06T12:28:35Z</time>
      </trkpt>
      <trkpt lat="43.36495" lon="5.51645">
        <ele>328.803436</ele>
        <time>2011-02-06T12:28:37Z</time>
      </trkpt>
      <trkpt lat="43.36498" lon="5.51625">
        <ele>329.241638</ele>
        <time>2011-02-06T12:28:39Z</time>
      </trkpt>
      <trkpt lat="43.365" lon="5.51603">
        <ele>330.32074</ele>
        <time>2011-02-06T12:28:41Z</time>
      </trkpt>
      <trkpt lat="43.36503" lon="5.51583">
        <ele>330.593414</ele>
        <time>2011-02-06T12:28:43Z</time>
      </trkpt>
      <trkpt lat="43.3651" lon="5.51563">
        <ele>329.68161</ele>
        <time>2011-02-06T12:28:45Z</time>
      </trkpt>
      <trkpt lat="43.3652" lon="5.51545">
        <ele>328.14566</ele>
        <time>2011-02-06T12:28:47Z</time>
      </trkpt>
      <trkpt lat="43.3653" lon="5.51528">
        <ele>327.187408</ele>
        <time>2011-02-06T12:28:49Z</time>
      </trkpt>
      <trkpt lat="43.3655" lon="5.51493">
        <ele>323.295837</ele>
        <time>2011-02-06T12:28:53Z</time>
      </trkpt>
      <trkpt lat="43.36555" lon="5.51475">
        <ele>321.988251</ele>
        <time>2011-02-06T12:28:55Z</time>
      </trkpt>
      <trkpt lat="43.36553" lon="5.51452">
        <ele>321.75824</ele>
        <time>2011-02-06T12:28:57Z</time>
      </trkpt>
      <trkpt lat="43.36547" lon="5.5143">
        <ele>320.926666</ele>
        <time>2011-02-06T12:28:59Z</time>
      </trkpt>
      <trkpt lat="43.36537" lon="5.51412">
        <ele>319.682739</ele>
        <time>2011-02-06T12:29:01Z</time>
      </trkpt>
      <trkpt lat="43.36528" lon="5.51395">
        <ele>318.446686</ele>
        <time>2011-02-06T12:29:03Z</time>
      </trkpt>
      <trkpt lat="43.3652" lon="5.51367">
        <ele>318.283722</ele>
        <time>2011-02-06T12:29:05Z</time>
      </trkpt>
      <trkpt lat="43.36527" lon="5.51348">
        <ele>317.465912</ele>
        <time>2011-02-06T12:29:07Z</time>
      </trkpt>
      <trkpt lat="43.36538" lon="5.51327">
        <ele>315.966553</ele>
        <time>2011-02-06T12:29:09Z</time>
      </trkpt>
      <trkpt lat="43.36562" lon="5.51292">
        <ele>312.216339</ele>
        <time>2011-02-06T12:29:13Z</time>
      </trkpt>
      <trkpt lat="43.36582" lon="5.51263">
        <ele>308.408691</ele>
        <time>2011-02-06T12:29:18Z</time>
      </trkpt>
      <trkpt lat="43.3659" lon="5.51245">
        <ele>306.782349</ele>
        <time>2011-02-06T12:29:20Z</time>
      </trkpt>
      <trkpt lat="43.36593" lon="5.51225">
        <ele>305.894287</ele>
        <time>2011-02-06T12:29:22Z</time>
      </trkpt>
      <trkpt lat="43.36597" lon="5.51197">
        <ele>305.41629</ele>
        <time>2011-02-06T12:29:26Z</time>
      </trkpt>
      <trkpt lat="43.3659" lon="5.51178">
        <ele>303.91803</ele>
        <time>2011-02-06T12:29:30Z</time>
      </trkpt>
      <trkpt lat="43.3658" lon="5.51143">
        <ele>301.549927</ele>
        <time>2011-02-06T12:29:34Z</time>
      </trkpt>
      <trkpt lat="43.36572" lon="5.51125">
        <ele>301.645966</ele>
        <time>2011-02-06T12:29:36Z</time>
      </trkpt>
      <trkpt lat="43.36563" lon="5.51108">
        <ele>301.653839</ele>
        <time>2011-02-06T12:29:38Z</time>
      </trkpt>
      <trkpt lat="43.36547" lon="5.51082">
        <ele>298.309937</ele>
        <time>2011-02-06T12:29:42Z</time>
      </trkpt>
      <trkpt lat="43.36533" lon="5.51055">
        <ele>294.465302</ele>
        <time>2011-02-06T12:29:46Z</time>
      </trkpt>
      <trkpt lat="43.36533" lon="5.51025">
        <ele>296.256317</ele>
        <time>2011-02-06T12:29:50Z</time>
      </trkpt>
      <trkpt lat="43.36537" lon="5.50995">
        <ele>299.664825</ele>
        <time>2011-02-06T12:29:54Z</time>
      </trkpt>
      <trkpt lat="43.36523" lon="5.50968">
        <ele>297.2323</ele>
        <time>2011-02-06T12:29:58Z</time>
      </trkpt>
      <trkpt lat="43.36508" lon="5.50932">
        <ele>292.016876</ele>
        <time>2011-02-06T12:30:03Z</time>
      </trkpt>
      <trkpt lat="43.36507" lon="5.50898">
        <ele>291.340607</ele>
        <time>2011-02-06T12:30:07Z</time>
      </trkpt>
      <trkpt lat="43.36523" lon="5.50878">
        <ele>292.990173</ele>
        <time>2011-02-06T12:30:11Z</time>
      </trkpt>
      <trkpt lat="43.36537" lon="5.50875">
        <ele>294.894562</ele>
        <time>2011-02-06T12:30:13Z</time>
      </trkpt>
      <trkpt lat="43.36552" lon="5.50863">
        <ele>296.108643</ele>
        <time>2011-02-06T12:30:16Z</time>
      </trkpt>
      <trkpt lat="43.36547" lon="5.50835">
        <ele>292.068878</ele>
        <time>2011-02-06T12:30:20Z</time>
      </trkpt>
      <trkpt lat="43.36543" lon="5.50815">
        <ele>291.194458</ele>
        <time>2011-02-06T12:30:24Z</time>
      </trkpt>
      <trkpt lat="43.36535" lon="5.508">
        <ele>288.732605</ele>
        <time>2011-02-06T12:30:30Z</time>
      </trkpt>
      <trkpt lat="43.36527" lon="5.50783">
        <ele>285.957794</ele>
        <time>2011-02-06T12:30:34Z</time>
      </trkpt>
      <trkpt lat="43.36517" lon="5.5077">
        <ele>282.041229</ele>
        <time>2011-02-06T12:30:36Z</time>
      </trkpt>
      <trkpt lat="43.36513" lon="5.50748">
        <ele>279.937042</ele>
        <time>2011-02-06T12:30:40Z</time>
      </trkpt>
      <trkpt lat="43.3653" lon="5.50728">
        <ele>282.891174</ele>
        <time>2011-02-06T12:30:45Z</time>
      </trkpt>
      <trkpt lat="43.36543" lon="5.5071">
        <ele>285.251923</ele>
        <time>2011-02-06T12:30:49Z</time>
      </trkpt>
      <trkpt lat="43.3654" lon="5.5069">
        <ele>283.323944</ele>
        <time>2011-02-06T12:30:53Z</time>
      </trkpt>
      <trkpt lat="43.36532" lon="5.5067">
        <ele>279.929779</ele>
        <time>2011-02-06T12:30:57Z</time>
      </trkpt>
      <trkpt lat="43.36518" lon="5.50642">
        <ele>275.1427</ele>
        <time>2011-02-06T12:31:03Z</time>
      </trkpt>
      <trkpt lat="43.3651" lon="5.50625">
        <ele>272.260284</ele>
        <time>2011-02-06T12:31:07Z</time>
      </trkpt>
      <trkpt lat="43.365" lon="5.50605">
        <ele>268.392792</ele>
        <time>2011-02-06T12:31:11Z</time>
      </trkpt>
      <trkpt lat="43.36502" lon="5.50577">
        <ele>267.435516</ele>
        <time>2011-02-06T12:31:17Z</time>
      </trkpt>
      <trkpt lat="43.36505" lon="5.5053">
        <ele>264.627136</ele>
        <time>2011-02-06T12:31:25Z</time>
      </trkpt>
      <trkpt lat="43.3651" lon="5.5051">
        <ele>263.80304</ele>
        <time>2011-02-06T12:31:30Z</time>
      </trkpt>
      <trkpt lat="43.36513" lon="5.50492">
        <ele>262.300903</ele>
        <time>2011-02-06T12:31:34Z</time>
      </trkpt>
      <trkpt lat="43.3652" lon="5.50453">
        <ele>261.117615</ele>
        <time>2011-02-06T12:31:42Z</time>
      </trkpt>
      <trkpt lat="43.36518" lon="5.5043">
        <ele>260.437378</ele>
        <time>2011-02-06T12:31:46Z</time>
      </trkpt>
      <trkpt lat="43.36518" lon="5.5041">
        <ele>260.260864</ele>
        <time>2011-02-06T12:31:50Z</time>
      </trkpt>
      <trkpt lat="43.36512" lon="5.50393">
        <ele>256.126373</ele>
        <time>2011-02-06T12:31:54Z</time>
      </trkpt>
      <trkpt lat="43.3651" lon="5.50372">
        <ele>252.977127</ele>
        <time>2011-02-06T12:31:58Z</time>
      </trkpt>
      <trkpt lat="43.36512" lon="5.5035">
        <ele>250.483429</ele>
        <time>2011-02-06T12:32:02Z</time>
      </trkpt>
      <trkpt lat="43.36508" lon="5.5033">
        <ele>246.972794</ele>
        <time>2011-02-06T12:32:06Z</time>
      </trkpt>
      <trkpt lat="43.36502" lon="5.5031">
        <ele>244.621109</ele>
        <time>2011-02-06T12:32:10Z</time>
      </trkpt>
      <trkpt lat="43.36497" lon="5.50285">
        <ele>243.158951</ele>
        <time>2011-02-06T12:32:14Z</time>
      </trkpt>
      <trkpt lat="43.3649" lon="5.50265">
        <ele>240.990891</ele>
        <time>2011-02-06T12:32:16Z</time>
      </trkpt>
      <trkpt lat="43.3648" lon="5.50242">
        <ele>236.788666</ele>
        <time>2011-02-06T12:32:20Z</time>
      </trkpt>
      <trkpt lat="43.3647" lon="5.5022">
        <ele>235.0224</ele>
        <time>2011-02-06T12:32:24Z</time>
      </trkpt>
      <trkpt lat="43.36458" lon="5.50202">
        <ele>235.004684</ele>
        <time>2011-02-06T12:32:29Z</time>
      </trkpt>
      <trkpt lat="43.36443" lon="5.50183">
        <ele>235.540604</ele>
        <time>2011-02-06T12:32:33Z</time>
      </trkpt>
      <trkpt lat="43.3643" lon="5.5017">
        <ele>234.885864</ele>
        <time>2011-02-06T12:32:37Z</time>
      </trkpt>
      <trkpt lat="43.36418" lon="5.50158">
        <ele>235.13179</ele>
        <time>2011-02-06T12:32:41Z</time>
      </trkpt>
      <trkpt lat="43.36395" lon="5.50152">
        <ele>230.119614</ele>
        <time>2011-02-06T12:32:59Z</time>
      </trkpt>
      <trkpt lat="43.3638" lon="5.50142">
        <ele>227.143829</ele>
        <time>2011-02-06T12:33:03Z</time>
      </trkpt>
      <trkpt lat="43.36365" lon="5.50133">
        <ele>223.858795</ele>
        <time>2011-02-06T12:33:07Z</time>
      </trkpt>
      <trkpt lat="43.36357" lon="5.50113">
        <ele>223.964127</ele>
        <time>2011-02-06T12:33:11Z</time>
      </trkpt>
      <trkpt lat="43.36355" lon="5.5008">
        <ele>226.290375</ele>
        <time>2011-02-06T12:33:15Z</time>
      </trkpt>
      <trkpt lat="43.36352" lon="5.50052">
        <ele>224.093796</ele>
        <time>2011-02-06T12:33:20Z</time>
      </trkpt>
      <trkpt lat="43.3635" lon="5.50022">
        <ele>221.90657</ele>
        <time>2011-02-06T12:33:24Z</time>
      </trkpt>
      <trkpt lat="43.36352" lon="5.4999">
        <ele>219.552734</ele>
        <time>2011-02-06T12:33:28Z</time>
      </trkpt>
      <trkpt lat="43.3635" lon="5.4996">
        <ele>216.559708</ele>
        <time>2011-02-06T12:33:32Z</time>
      </trkpt>
      <trkpt lat="43.36343" lon="5.49938">
        <ele>213.477509</ele>
        <time>2011-02-06T12:33:36Z</time>
      </trkpt>
      <trkpt lat="43.3634" lon="5.49912">
        <ele>211.84935</ele>
        <time>2011-02-06T12:33:40Z</time>
      </trkpt>
      <trkpt lat="43.36333" lon="5.49887">
        <ele>208.011536</ele>
        <time>2011-02-06T12:33:44Z</time>
      </trkpt>
      <trkpt lat="43.3633" lon="5.49862">
        <ele>205.478867</ele>
        <time>2011-02-06T12:33:48Z</time>
      </trkpt>
      <trkpt lat="43.36328" lon="5.49833">
        <ele>202.660873</ele>
        <time>2011-02-06T12:33:52Z</time>
      </trkpt>
      <trkpt lat="43.3633" lon="5.49802">
        <ele>198.562637</ele>
        <time>2011-02-06T12:33:56Z</time>
      </trkpt>
      <trkpt lat="43.36337" lon="5.49747">
        <ele>190.384186</ele>
        <time>2011-02-06T12:34:04Z</time>
      </trkpt>
      <trkpt lat="43.36342" lon="5.49697">
        <ele>184.099487</ele>
        <time>2011-02-06T12:34:12Z</time>
      </trkpt>
      <trkpt lat="43.3634" lon="5.4967">
        <ele>181.661255</ele>
        <time>2011-02-06T12:34:16Z</time>
      </trkpt>
      <trkpt lat="43.36327" lon="5.49652">
        <ele>180.961395</ele>
        <time>2011-02-06T12:34:22Z</time>
      </trkpt>
      <trkpt lat="43.36305" lon="5.4964">
        <ele>181.431473</ele>
        <time>2011-02-06T12:34:26Z</time>
      </trkpt>
      <trkpt lat="43.36288" lon="5.49627">
        <ele>181.472824</ele>
        <time>2011-02-06T12:34:30Z</time>
      </trkpt>
      <trkpt lat="43.36272" lon="5.49613">
        <ele>182.471268</ele>
        <time>2011-02-06T12:34:34Z</time>
      </trkpt>
      <trkpt lat="43.3626" lon="5.49598">
        <ele>182.779663</ele>
        <time>2011-02-06T12:34:38Z</time>
      </trkpt>
      <trkpt lat="43.36248" lon="5.49583">
        <ele>183.306061</ele>
        <time>2011-02-06T12:34:45Z</time>
      </trkpt>
      <trkpt lat="43.36233" lon="5.49572">
        <ele>183.71727</ele>
        <time>2011-02-06T12:34:51Z</time>
      </trkpt>
      <trkpt lat="43.36217" lon="5.49562">
        <ele>183.95343</ele>
        <time>2011-02-06T12:34:57Z</time>
      </trkpt>
      <trkpt lat="43.36195" lon="5.49547">
        <ele>183.724655</ele>
        <time>2011-02-06T12:35:03Z</time>
      </trkpt>
      <trkpt lat="43.3618" lon="5.49532">
        <ele>182.69136</ele>
        <time>2011-02-06T12:35:07Z</time>
      </trkpt>
      <trkpt lat="43.36165" lon="5.49513">
        <ele>181.493637</ele>
        <time>2011-02-06T12:35:11Z</time>
      </trkpt>
      <trkpt lat="43.36148" lon="5.49503">
        <ele>180.261292</ele>
        <time>2011-02-06T12:35:13Z</time>
      </trkpt>
      <trkpt lat="43.36122" lon="5.49493">
        <ele>178.120987</ele>
        <time>2011-02-06T12:35:17Z</time>
      </trkpt>
      <trkpt lat="43.36095" lon="5.49483">
        <ele>177.233063</ele>
        <time>2011-02-06T12:35:22Z</time>
      </trkpt>
      <trkpt lat="43.36082" lon="5.49475">
        <ele>176.600754</ele>
        <time>2011-02-06T12:35:24Z</time>
      </trkpt>
      <trkpt lat="43.3607" lon="5.49462">
        <ele>175.170914</ele>
        <time>2011-02-06T12:35:26Z</time>
      </trkpt>
      <trkpt lat="43.36047" lon="5.49428">
        <ele>175.738297</ele>
        <time>2011-02-06T12:35:32Z</time>
      </trkpt>
      <trkpt lat="43.36038" lon="5.49408">
        <ele>175.814926</ele>
        <time>2011-02-06T12:35:54Z</time>
      </trkpt>
      <trkpt lat="43.36023" lon="5.49407">
        <ele>176.194641</ele>
        <time>2011-02-06T12:35:58Z</time>
      </trkpt>
      <trkpt lat="43.35987" lon="5.494">
        <ele>177.008606</ele>
        <time>2011-02-06T12:36:05Z</time>
      </trkpt>
      <trkpt lat="43.35962" lon="5.49395">
        <ele>177.533463</ele>
        <time>2011-02-06T12:36:09Z</time>
      </trkpt>
      <trkpt lat="43.35937" lon="5.49383">
        <ele>177.97406</ele>
        <time>2011-02-06T12:36:13Z</time>
      </trkpt>
      <trkpt lat="43.35915" lon="5.49365">
        <ele>176.957001</ele>
        <time>2011-02-06T12:36:17Z</time>
      </trkpt>
      <trkpt lat="43.35903" lon="5.49352">
        <ele>175.901733</ele>
        <time>2011-02-06T12:36:19Z</time>
      </trkpt>
      <trkpt lat="43.35893" lon="5.49338">
        <ele>174.640015</ele>
        <time>2011-02-06T12:36:21Z</time>
      </trkpt>
      <trkpt lat="43.35885" lon="5.49323">
        <ele>174.055359</ele>
        <time>2011-02-06T12:36:23Z</time>
      </trkpt>
      <trkpt lat="43.35865" lon="5.49293">
        <ele>174.20192</ele>
        <time>2011-02-06T12:36:27Z</time>
      </trkpt>
      <trkpt lat="43.35857" lon="5.49275">
        <ele>174.148758</ele>
        <time>2011-02-06T12:36:29Z</time>
      </trkpt>
      <trkpt lat="43.35763" lon="5.49068">
        <ele>162.216415</ele>
        <time>2011-02-06T12:36:51Z</time>
      </trkpt>
      <trkpt lat="43.35757" lon="5.49048">
        <ele>162.896988</ele>
        <time>2011-02-06T12:36:53Z</time>
      </trkpt>
      <trkpt lat="43.35753" lon="5.4903">
        <ele>162.647598</ele>
        <time>2011-02-06T12:36:55Z</time>
      </trkpt>
      <trkpt lat="43.35733" lon="5.48933">
        <ele>160.645096</ele>
        <time>2011-02-06T12:37:06Z</time>
      </trkpt>
      <trkpt lat="43.35718" lon="5.48862">
        <ele>160</ele>
        <time>2011-02-06T12:37:14Z</time>
      </trkpt>
      <trkpt lat="43.35727" lon="5.4883">
        <ele>160</ele>
        <time>2011-02-06T12:37:18Z</time>
      </trkpt>
      <trkpt lat="43.35715" lon="5.48807">
        <ele>160.431808</ele>
        <time>2011-02-06T12:37:22Z</time>
      </trkpt>
      <trkpt lat="43.35693" lon="5.48792">
        <ele>160.2435</ele>
        <time>2011-02-06T12:37:26Z</time>
      </trkpt>
      <trkpt lat="43.35682" lon="5.48778">
        <ele>160.009491</ele>
        <time>2011-02-06T12:37:28Z</time>
      </trkpt>
      <trkpt lat="43.3567" lon="5.48763">
        <ele>160.011887</ele>
        <time>2011-02-06T12:37:30Z</time>
      </trkpt>
      <trkpt lat="43.35617" lon="5.48687">
        <ele>158.914978</ele>
        <time>2011-02-06T12:37:40Z</time>
      </trkpt>
      <trkpt lat="43.35603" lon="5.48663">
        <ele>158.553543</ele>
        <time>2011-02-06T12:37:44Z</time>
      </trkpt>
      <trkpt lat="43.3559" lon="5.48658">
        <ele>158.40657</ele>
        <time>2011-02-06T12:37:46Z</time>
      </trkpt>
      <trkpt lat="43.35565" lon="5.48642">
        <ele>158.158401</ele>
        <time>2011-02-06T12:37:50Z</time>
      </trkpt>
      <trkpt lat="43.35485" lon="5.48587">
        <ele>158.690598</ele>
        <time>2011-02-06T12:38:03Z</time>
      </trkpt>
      <trkpt lat="43.35473" lon="5.48573">
        <ele>158.827393</ele>
        <time>2011-02-06T12:38:05Z</time>
      </trkpt>
      <trkpt lat="43.35463" lon="5.48558">
        <ele>158.930176</ele>
        <time>2011-02-06T12:38:07Z</time>
      </trkpt>
      <trkpt lat="43.35457" lon="5.4854">
        <ele>158.798782</ele>
        <time>2011-02-06T12:38:09Z</time>
      </trkpt>
      <trkpt lat="43.35442" lon="5.48493">
        <ele>158.618973</ele>
        <time>2011-02-06T12:38:15Z</time>
      </trkpt>
      <trkpt lat="43.35433" lon="5.48457">
        <ele>158.936172</ele>
        <time>2011-02-06T12:38:21Z</time>
      </trkpt>
      <trkpt lat="43.35408" lon="5.4845">
        <ele>159</ele>
        <time>2011-02-06T12:38:25Z</time>
      </trkpt>
      <trkpt lat="43.35385" lon="5.48437">
        <ele>159.02034</ele>
        <time>2011-02-06T12:38:29Z</time>
      </trkpt>
      <trkpt lat="43.35355" lon="5.48415">
        <ele>159.308899</ele>
        <time>2011-02-06T12:38:33Z</time>
      </trkpt>
      <trkpt lat="43.35335" lon="5.48392">
        <ele>159.005829</ele>
        <time>2011-02-06T12:38:37Z</time>
      </trkpt>
      <trkpt lat="43.35317" lon="5.48363">
        <ele>158.520233</ele>
        <time>2011-02-06T12:38:41Z</time>
      </trkpt>
      <trkpt lat="43.353" lon="5.48333">
        <ele>157.693314</ele>
        <time>2011-02-06T12:38:45Z</time>
      </trkpt>
      <trkpt lat="43.35293" lon="5.48317">
        <ele>157.180405</ele>
        <time>2011-02-06T12:38:48Z</time>
      </trkpt>
      <trkpt lat="43.35288" lon="5.48298">
        <ele>156.849045</ele>
        <time>2011-02-06T12:38:50Z</time>
      </trkpt>
      <trkpt lat="43.35285" lon="5.4828">
        <ele>156.621948</ele>
        <time>2011-02-06T12:38:52Z</time>
      </trkpt>
      <trkpt lat="43.3528" lon="5.48262">
        <ele>156.474579</ele>
        <time>2011-02-06T12:38:54Z</time>
      </trkpt>
      <trkpt lat="43.35277" lon="5.48243">
        <ele>156.419296</ele>
        <time>2011-02-06T12:38:56Z</time>
      </trkpt>
      <trkpt lat="43.35272" lon="5.48225">
        <ele>156.67923</ele>
        <time>2011-02-06T12:38:58Z</time>
      </trkpt>
      <trkpt lat="43.35267" lon="5.48205">
        <ele>156.877243</ele>
        <time>2011-02-06T12:39:00Z</time>
      </trkpt>
      <trkpt lat="43.35212" lon="5.47968">
        <ele>154.071304</ele>
        <time>2011-02-06T12:39:25Z</time>
      </trkpt>
      <trkpt lat="43.35208" lon="5.4795">
        <ele>153.378525</ele>
        <time>2011-02-06T12:39:27Z</time>
      </trkpt>
      <trkpt lat="43.35207" lon="5.4793">
        <ele>152.778839</ele>
        <time>2011-02-06T12:39:29Z</time>
      </trkpt>
      <trkpt lat="43.35203" lon="5.47833">
        <ele>151.076172</ele>
        <time>2011-02-06T12:39:39Z</time>
      </trkpt>
      <trkpt lat="43.35178" lon="5.47315">
        <ele>143.464218</ele>
        <time>2011-02-06T12:40:30Z</time>
      </trkpt>
      <trkpt lat="43.35175" lon="5.47295">
        <ele>143.202957</ele>
        <time>2011-02-06T12:40:32Z</time>
      </trkpt>
      <trkpt lat="43.3517" lon="5.47277">
        <ele>142.83374</ele>
        <time>2011-02-06T12:40:34Z</time>
      </trkpt>
      <trkpt lat="43.35163" lon="5.4726">
        <ele>142.356567</ele>
        <time>2011-02-06T12:40:36Z</time>
      </trkpt>
      <trkpt lat="43.35155" lon="5.47243">
        <ele>142.063446</ele>
        <time>2011-02-06T12:40:38Z</time>
      </trkpt>
      <trkpt lat="43.35147" lon="5.47228">
        <ele>141.969009</ele>
        <time>2011-02-06T12:40:40Z</time>
      </trkpt>
      <trkpt lat="43.35137" lon="5.47213">
        <ele>141.889755</ele>
        <time>2011-02-06T12:40:42Z</time>
      </trkpt>
      <trkpt lat="43.35078" lon="5.4713">
        <ele>140.867508</ele>
        <time>2011-02-06T12:40:54Z</time>
      </trkpt>
      <trkpt lat="43.35058" lon="5.47107">
        <ele>140.638535</ele>
        <time>2011-02-06T12:40:58Z</time>
      </trkpt>
      <trkpt lat="43.35007" lon="5.47045">
        <ele>140.170593</ele>
        <time>2011-02-06T12:41:08Z</time>
      </trkpt>
      <trkpt lat="43.34997" lon="5.47032">
        <ele>140.123596</ele>
        <time>2011-02-06T12:41:11Z</time>
      </trkpt>
      <trkpt lat="43.3497" lon="5.46995">
        <ele>139.996857</ele>
        <time>2011-02-06T12:41:17Z</time>
      </trkpt>
      <trkpt lat="43.34955" lon="5.46968">
        <ele>139.547119</ele>
        <time>2011-02-06T12:41:21Z</time>
      </trkpt>
      <trkpt lat="43.34943" lon="5.46942">
        <ele>139.017166</ele>
        <time>2011-02-06T12:41:25Z</time>
      </trkpt>
      <trkpt lat="43.34927" lon="5.46902">
        <ele>137.956985</ele>
        <time>2011-02-06T12:41:35Z</time>
      </trkpt>
      <trkpt lat="43.34922" lon="5.46878">
        <ele>137.830688</ele>
        <time>2011-02-06T12:41:39Z</time>
      </trkpt>
      <trkpt lat="43.34915" lon="5.46852">
        <ele>137.665176</ele>
        <time>2011-02-06T12:41:43Z</time>
      </trkpt>
      <trkpt lat="43.34905" lon="5.46812">
        <ele>137.416916</ele>
        <time>2011-02-06T12:41:47Z</time>
      </trkpt>
      <trkpt lat="43.34895" lon="5.46788">
        <ele>137.121475</ele>
        <time>2011-02-06T12:41:51Z</time>
      </trkpt>
      <trkpt lat="43.34873" lon="5.46795">
        <ele>136.701889</ele>
        <time>2011-02-06T12:41:55Z</time>
      </trkpt>
      <trkpt lat="43.3486" lon="5.46798">
        <ele>136.407532</ele>
        <time>2011-02-06T12:41:57Z</time>
      </trkpt>
      <trkpt lat="43.34833" lon="5.46798">
        <ele>135.794815</ele>
        <time>2011-02-06T12:42:02Z</time>
      </trkpt>
      <trkpt lat="43.34795" lon="5.46798">
        <ele>134.927948</ele>
        <time>2011-02-06T12:42:08Z</time>
      </trkpt>
      <trkpt lat="43.34772" lon="5.468">
        <ele>134.975677</ele>
        <time>2011-02-06T12:42:12Z</time>
      </trkpt>
      <trkpt lat="43.34755" lon="5.46782">
        <ele>134.692902</ele>
        <time>2011-02-06T12:42:16Z</time>
      </trkpt>
      <trkpt lat="43.34747" lon="5.46752">
        <ele>134.10083</ele>
        <time>2011-02-06T12:42:20Z</time>
      </trkpt>
      <trkpt lat="43.34735" lon="5.4671">
        <ele>133.312347</ele>
        <time>2011-02-06T12:42:24Z</time>
      </trkpt>
      <trkpt lat="43.34723" lon="5.46677">
        <ele>133.004868</ele>
        <time>2011-02-06T12:42:28Z</time>
      </trkpt>
      <trkpt lat="43.34717" lon="5.4666">
        <ele>133</ele>
        <time>2011-02-06T12:42:30Z</time>
      </trkpt>
      <trkpt lat="43.34702" lon="5.4663">
        <ele>132.777481</ele>
        <time>2011-02-06T12:42:35Z</time>
      </trkpt>
      <trkpt lat="43.34693" lon="5.46615">
        <ele>132.582458</ele>
        <time>2011-02-06T12:42:37Z</time>
      </trkpt>
      <trkpt lat="43.34685" lon="5.466">
        <ele>132.387436</ele>
        <time>2011-02-06T12:42:39Z</time>
      </trkpt>
      <trkpt lat="43.34667" lon="5.46575">
        <ele>131.921066</ele>
        <time>2011-02-06T12:42:43Z</time>
      </trkpt>
      <trkpt lat="43.34643" lon="5.46552">
        <ele>130.355881</ele>
        <time>2011-02-06T12:42:47Z</time>
      </trkpt>
      <trkpt lat="43.34632" lon="5.4654">
        <ele>129.588303</ele>
        <time>2011-02-06T12:42:49Z</time>
      </trkpt>
      <trkpt lat="43.34618" lon="5.46528">
        <ele>129.156174</ele>
        <time>2011-02-06T12:42:51Z</time>
      </trkpt>
      <trkpt lat="43.34595" lon="5.4651">
        <ele>128.902313</ele>
        <time>2011-02-06T12:42:55Z</time>
      </trkpt>
      <trkpt lat="43.34572" lon="5.46493">
        <ele>128.657928</ele>
        <time>2011-02-06T12:42:59Z</time>
      </trkpt>
      <trkpt lat="43.3455" lon="5.46477">
        <ele>128.456924</ele>
        <time>2011-02-06T12:43:03Z</time>
      </trkpt>
      <trkpt lat="43.34538" lon="5.46467">
        <ele>128.494965</ele>
        <time>2011-02-06T12:43:05Z</time>
      </trkpt>
      <trkpt lat="43.34515" lon="5.46457">
        <ele>128.55928</ele>
        <time>2011-02-06T12:43:09Z</time>
      </trkpt>
      <trkpt lat="43.34492" lon="5.46443">
        <ele>128.557556</ele>
        <time>2011-02-06T12:43:13Z</time>
      </trkpt>
      <trkpt lat="43.34472" lon="5.4643">
        <ele>128.407288</ele>
        <time>2011-02-06T12:43:17Z</time>
      </trkpt>
      <trkpt lat="43.34448" lon="5.46408">
        <ele>128.000336</ele>
        <time>2011-02-06T12:43:23Z</time>
      </trkpt>
      <trkpt lat="43.34442" lon="5.46392">
        <ele>127.841278</ele>
        <time>2011-02-06T12:43:27Z</time>
      </trkpt>
      <trkpt lat="43.34435" lon="5.46372">
        <ele>127.680092</ele>
        <time>2011-02-06T12:43:31Z</time>
      </trkpt>
      <trkpt lat="43.34432" lon="5.4635">
        <ele>127.634773</ele>
        <time>2011-02-06T12:43:35Z</time>
      </trkpt>
      <trkpt lat="43.34437" lon="5.46328">
        <ele>128.33609</ele>
        <time>2011-02-06T12:43:40Z</time>
      </trkpt>
      <trkpt lat="43.34442" lon="5.46303">
        <ele>129.199432</ele>
        <time>2011-02-06T12:43:44Z</time>
      </trkpt>
      <trkpt lat="43.3445" lon="5.46258">
        <ele>129.912567</ele>
        <time>2011-02-06T12:43:52Z</time>
      </trkpt>
      <trkpt lat="43.3447" lon="5.46172">
        <ele>131.299347</ele>
        <time>2011-02-06T12:44:10Z</time>
      </trkpt>
      <trkpt lat="43.34483" lon="5.46183">
        <ele>131.55188</ele>
        <time>2011-02-06T12:44:19Z</time>
      </trkpt>
      <trkpt lat="43.34495" lon="5.46195">
        <ele>131.860367</ele>
        <time>2011-02-06T12:44:27Z</time>
      </trkpt>
      <trkpt lat="43.34483" lon="5.46185">
        <ele>131.543304</ele>
        <time>2011-02-06T13:01:52Z</time>
      </trkpt>
      <trkpt lat="43.34473" lon="5.4617">
        <ele>131.393585</ele>
        <time>2011-02-06T13:03:25Z</time>
      </trkpt>
      <trkpt lat="43.34478" lon="5.46145">
        <ele>131.497421</ele>
        <time>2011-02-06T13:03:31Z</time>
      </trkpt>
      <trkpt lat="43.34485" lon="5.46123">
        <ele>131.631699</ele>
        <time>2011-02-06T13:03:35Z</time>
      </trkpt>
      <trkpt lat="43.34492" lon="5.46103">
        <ele>131.747589</ele>
        <time>2011-02-06T13:03:39Z</time>
      </trkpt>
      <trkpt lat="43.345" lon="5.46082">
        <ele>131.911133</ele>
        <time>2011-02-06T13:03:43Z</time>
      </trkpt>
      <trkpt lat="43.34515" lon="5.46092">
        <ele>132.278442</ele>
        <time>2011-02-06T13:03:49Z</time>
      </trkpt>
      <trkpt lat="43.34528" lon="5.4611">
        <ele>132.586792</ele>
        <time>2011-02-06T13:03:53Z</time>
      </trkpt>
      <trkpt lat="43.34542" lon="5.46128">
        <ele>132.895157</ele>
        <time>2011-02-06T13:03:57Z</time>
      </trkpt>
      <trkpt lat="43.34562" lon="5.46152">
        <ele>133.354996</ele>
        <time>2011-02-06T13:04:03Z</time>
      </trkpt>
      <trkpt lat="43.34575" lon="5.4614">
        <ele>133.643982</ele>
        <time>2011-02-06T13:04:07Z</time>
      </trkpt>
      <trkpt lat="43.3459" lon="5.46123">
        <ele>133.966812</ele>
        <time>2011-02-06T13:04:11Z</time>
      </trkpt>
      <trkpt lat="43.34602" lon="5.46103">
        <ele>134.213364</ele>
        <time>2011-02-06T13:04:15Z</time>
      </trkpt>
      <trkpt lat="43.34623" lon="5.46065">
        <ele>134.670471</ele>
        <time>2011-02-06T13:04:23Z</time>
      </trkpt>
      <trkpt lat="43.34638" lon="5.4607">
        <ele>135.007294</ele>
        <time>2011-02-06T13:04:27Z</time>
      </trkpt>
      <trkpt lat="43.34652" lon="5.46085">
        <ele>135.313492</ele>
        <time>2011-02-06T13:04:31Z</time>
      </trkpt>
      <trkpt lat="43.34665" lon="5.46103">
        <ele>135.621857</ele>
        <time>2011-02-06T13:04:35Z</time>
      </trkpt>
      <trkpt lat="43.34742" lon="5.4621">
        <ele>138.395706</ele>
        <time>2011-02-06T13:04:58Z</time>
      </trkpt>
      <trkpt lat="43.34777" lon="5.46257">
        <ele>139.377182</ele>
        <time>2011-02-06T13:05:10Z</time>
      </trkpt>
      <trkpt lat="43.34797" lon="5.46278">
        <ele>140.003143</ele>
        <time>2011-02-06T13:05:18Z</time>
      </trkpt>
      <trkpt lat="43.34808" lon="5.46265">
        <ele>140.589874</ele>
        <time>2011-02-06T13:05:24Z</time>
      </trkpt>
      <trkpt lat="43.34848" lon="5.46227">
        <ele>142.866669</ele>
        <time>2011-02-06T13:05:43Z</time>
      </trkpt>
      <trkpt lat="43.34858" lon="5.46212">
        <ele>143.626709</ele>
        <time>2011-02-06T13:05:49Z</time>
      </trkpt>
      <trkpt lat="43.3487" lon="5.46198">
        <ele>144.572998</ele>
        <time>2011-02-06T13:05:55Z</time>
      </trkpt>
      <trkpt lat="43.34887" lon="5.46187">
        <ele>145.832916</ele>
        <time>2011-02-06T13:06:01Z</time>
      </trkpt>
      <trkpt lat="43.34902" lon="5.46178">
        <ele>146.9991</ele>
        <time>2011-02-06T13:06:07Z</time>
      </trkpt>
      <trkpt lat="43.34917" lon="5.4617">
        <ele>147.999725</ele>
        <time>2011-02-06T13:06:13Z</time>
      </trkpt>
      <trkpt lat="43.34932" lon="5.4616">
        <ele>149.056427</ele>
        <time>2011-02-06T13:06:19Z</time>
      </trkpt>
      <trkpt lat="43.34952" lon="5.46147">
        <ele>150.618973</ele>
        <time>2011-02-06T13:06:27Z</time>
      </trkpt>
      <trkpt lat="43.34965" lon="5.46133">
        <ele>151.666077</ele>
        <time>2011-02-06T13:06:33Z</time>
      </trkpt>
      <trkpt lat="43.3498" lon="5.46118">
        <ele>153.164185</ele>
        <time>2011-02-06T13:06:39Z</time>
      </trkpt>
      <trkpt lat="43.34992" lon="5.46103">
        <ele>154.757111</ele>
        <time>2011-02-06T13:06:45Z</time>
      </trkpt>
      <trkpt lat="43.35003" lon="5.4609">
        <ele>155.906387</ele>
        <time>2011-02-06T13:06:49Z</time>
      </trkpt>
      <trkpt lat="43.35013" lon="5.4607">
        <ele>156.854614</ele>
        <time>2011-02-06T13:06:56Z</time>
      </trkpt>
      <trkpt lat="43.35028" lon="5.46045">
        <ele>157.680801</ele>
        <time>2011-02-06T13:07:04Z</time>
      </trkpt>
      <trkpt lat="43.3504" lon="5.46025">
        <ele>158.53363</ele>
        <time>2011-02-06T13:07:10Z</time>
      </trkpt>
      <trkpt lat="43.35058" lon="5.45992">
        <ele>158.18335</ele>
        <time>2011-02-06T13:07:18Z</time>
      </trkpt>
      <trkpt lat="43.35068" lon="5.45978">
        <ele>158.116577</ele>
        <time>2011-02-06T13:07:21Z</time>
      </trkpt>
      <trkpt lat="43.35083" lon="5.45963">
        <ele>158.551575</ele>
        <time>2011-02-06T13:07:25Z</time>
      </trkpt>
      <trkpt lat="43.35113" lon="5.45933">
        <ele>159.771027</ele>
        <time>2011-02-06T13:07:35Z</time>
      </trkpt>
      <trkpt lat="43.35122" lon="5.45913">
        <ele>160.673203</ele>
        <time>2011-02-06T13:07:43Z</time>
      </trkpt>
      <trkpt lat="43.3513" lon="5.45888">
        <ele>161.850998</ele>
        <time>2011-02-06T13:07:54Z</time>
      </trkpt>
      <trkpt lat="43.3514" lon="5.45875">
        <ele>162.881027</ele>
        <time>2011-02-06T13:08:04Z</time>
      </trkpt>
      <trkpt lat="43.35155" lon="5.45867">
        <ele>164.682846</ele>
        <time>2011-02-06T13:08:14Z</time>
      </trkpt>
      <trkpt lat="43.35168" lon="5.45853">
        <ele>166.892242</ele>
        <time>2011-02-06T13:08:24Z</time>
      </trkpt>
      <trkpt lat="43.35182" lon="5.45838">
        <ele>169.619919</ele>
        <time>2011-02-06T13:08:35Z</time>
      </trkpt>
      <trkpt lat="43.35193" lon="5.45822">
        <ele>172.652725</ele>
        <time>2011-02-06T13:08:45Z</time>
      </trkpt>
      <trkpt lat="43.35202" lon="5.45807">
        <ele>174.996277</ele>
        <time>2011-02-06T13:08:53Z</time>
      </trkpt>
      <trkpt lat="43.35205" lon="5.45788">
        <ele>176.773499</ele>
        <time>2011-02-06T13:09:01Z</time>
      </trkpt>
      <trkpt lat="43.35202" lon="5.45767">
        <ele>177.795074</ele>
        <time>2011-02-06T13:09:09Z</time>
      </trkpt>
      <trkpt lat="43.35195" lon="5.45743">
        <ele>178.604858</ele>
        <time>2011-02-06T13:09:20Z</time>
      </trkpt>
      <trkpt lat="43.3519" lon="5.45723">
        <ele>179.563614</ele>
        <time>2011-02-06T13:09:28Z</time>
      </trkpt>
      <trkpt lat="43.35188" lon="5.45703">
        <ele>180.581741</ele>
        <time>2011-02-06T13:09:36Z</time>
      </trkpt>
      <trkpt lat="43.35187" lon="5.45682">
        <ele>181.411148</ele>
        <time>2011-02-06T13:09:44Z</time>
      </trkpt>
      <trkpt lat="43.35195" lon="5.45662">
        <ele>182.790726</ele>
        <time>2011-02-06T13:09:52Z</time>
      </trkpt>
      <trkpt lat="43.35202" lon="5.45642">
        <ele>183.002579</ele>
        <time>2011-02-06T13:10:00Z</time>
      </trkpt>
      <trkpt lat="43.35213" lon="5.456">
        <ele>182.163696</ele>
        <time>2011-02-06T13:10:08Z</time>
      </trkpt>
      <trkpt lat="43.3522" lon="5.4558">
        <ele>181.060974</ele>
        <time>2011-02-06T13:10:12Z</time>
      </trkpt>
      <trkpt lat="43.35233" lon="5.45565">
        <ele>179.702225</ele>
        <time>2011-02-06T13:10:17Z</time>
      </trkpt>
      <trkpt lat="43.35252" lon="5.45573">
        <ele>179.444748</ele>
        <time>2011-02-06T13:10:21Z</time>
      </trkpt>
      <trkpt lat="43.35268" lon="5.45567">
        <ele>177.881546</ele>
        <time>2011-02-06T13:10:25Z</time>
      </trkpt>
      <trkpt lat="43.35283" lon="5.45533">
        <ele>173.706009</ele>
        <time>2011-02-06T13:10:29Z</time>
      </trkpt>
      <trkpt lat="43.35293" lon="5.45515">
        <ele>170.412872</ele>
        <time>2011-02-06T13:10:31Z</time>
      </trkpt>
      <trkpt lat="43.35302" lon="5.45498">
        <ele>167.491852</ele>
        <time>2011-02-06T13:10:33Z</time>
      </trkpt>
      <trkpt lat="43.35322" lon="5.45462">
        <ele>161.554749</ele>
        <time>2011-02-06T13:10:39Z</time>
      </trkpt>
      <trkpt lat="43.35338" lon="5.4546">
        <ele>160.092545</ele>
        <time>2011-02-06T13:10:43Z</time>
      </trkpt>
      <trkpt lat="43.3535" lon="5.45432">
        <ele>157.018402</ele>
        <time>2011-02-06T13:10:45Z</time>
      </trkpt>
      <trkpt lat="43.35373" lon="5.45388">
        <ele>153.245331</ele>
        <time>2011-02-06T13:10:49Z</time>
      </trkpt>
      <trkpt lat="43.3539" lon="5.45385">
        <ele>153.080414</ele>
        <time>2011-02-06T13:10:51Z</time>
      </trkpt>
      <trkpt lat="43.35422" lon="5.45392">
        <ele>153.540695</ele>
        <time>2011-02-06T13:10:55Z</time>
      </trkpt>
      <trkpt lat="43.35435" lon="5.45387">
        <ele>153.891693</ele>
        <time>2011-02-06T13:10:57Z</time>
      </trkpt>
      <trkpt lat="43.35453" lon="5.4537">
        <ele>154.41478</ele>
        <time>2011-02-06T13:11:01Z</time>
      </trkpt>
      <trkpt lat="43.35465" lon="5.45357">
        <ele>154.863785</ele>
        <time>2011-02-06T13:11:05Z</time>
      </trkpt>
      <trkpt lat="43.35523" lon="5.45288">
        <ele>157.514511</ele>
        <time>2011-02-06T13:11:24Z</time>
      </trkpt>
      <trkpt lat="43.3554" lon="5.45272">
        <ele>158.359055</ele>
        <time>2011-02-06T13:11:28Z</time>
      </trkpt>
      <trkpt lat="43.35563" lon="5.45248">
        <ele>159.240967</ele>
        <time>2011-02-06T13:11:34Z</time>
      </trkpt>
      <trkpt lat="43.35572" lon="5.45228">
        <ele>159.664398</ele>
        <time>2011-02-06T13:11:38Z</time>
      </trkpt>
      <trkpt lat="43.35577" lon="5.45207">
        <ele>159.956161</ele>
        <time>2011-02-06T13:11:42Z</time>
      </trkpt>
      <trkpt lat="43.35578" lon="5.45183">
        <ele>160.022308</ele>
        <time>2011-02-06T13:11:46Z</time>
      </trkpt>
      <trkpt lat="43.35578" lon="5.4516">
        <ele>160.215118</ele>
        <time>2011-02-06T13:11:50Z</time>
      </trkpt>
      <trkpt lat="43.35567" lon="5.4514">
        <ele>159.791687</ele>
        <time>2011-02-06T13:11:54Z</time>
      </trkpt>
      <trkpt lat="43.35552" lon="5.45123">
        <ele>159.364548</ele>
        <time>2011-02-06T13:11:58Z</time>
      </trkpt>
      <trkpt lat="43.35535" lon="5.45103">
        <ele>158.885345</ele>
        <time>2011-02-06T13:12:02Z</time>
      </trkpt>
      <trkpt lat="43.35403" lon="5.44953">
        <ele>153.049667</ele>
        <time>2011-02-06T13:12:27Z</time>
      </trkpt>
      <trkpt lat="43.35393" lon="5.44935">
        <ele>152.292603</ele>
        <time>2011-02-06T13:12:29Z</time>
      </trkpt>
      <trkpt lat="43.35385" lon="5.44913">
        <ele>151.867554</ele>
        <time>2011-02-06T13:12:31Z</time>
      </trkpt>
      <trkpt lat="43.35377" lon="5.4489">
        <ele>151.667221</ele>
        <time>2011-02-06T13:12:33Z</time>
      </trkpt>
      <trkpt lat="43.35368" lon="5.4487">
        <ele>151.46904</ele>
        <time>2011-02-06T13:12:35Z</time>
      </trkpt>
      <trkpt lat="43.3536" lon="5.44853">
        <ele>151.409973</ele>
        <time>2011-02-06T13:12:37Z</time>
      </trkpt>
      <trkpt lat="43.35345" lon="5.44825">
        <ele>151.458786</ele>
        <time>2011-02-06T13:12:41Z</time>
      </trkpt>
      <trkpt lat="43.35337" lon="5.44797">
        <ele>151.481552</ele>
        <time>2011-02-06T13:12:45Z</time>
      </trkpt>
      <trkpt lat="43.35323" lon="5.44755">
        <ele>151.913452</ele>
        <time>2011-02-06T13:12:51Z</time>
      </trkpt>
      <trkpt lat="43.3531" lon="5.4471">
        <ele>152.906982</ele>
        <time>2011-02-06T13:12:57Z</time>
      </trkpt>
      <trkpt lat="43.35298" lon="5.4468">
        <ele>153.393539</ele>
        <time>2011-02-06T13:13:01Z</time>
      </trkpt>
      <trkpt lat="43.35268" lon="5.44608">
        <ele>154.156479</ele>
        <time>2011-02-06T13:13:10Z</time>
      </trkpt>
      <trkpt lat="43.3526" lon="5.44592">
        <ele>153.726776</ele>
        <time>2011-02-06T13:13:12Z</time>
      </trkpt>
      <trkpt lat="43.35253" lon="5.44573">
        <ele>153.27803</ele>
        <time>2011-02-06T13:13:14Z</time>
      </trkpt>
      <trkpt lat="43.35252" lon="5.44552">
        <ele>153.030579</ele>
        <time>2011-02-06T13:13:16Z</time>
      </trkpt>
      <trkpt lat="43.35247" lon="5.44512">
        <ele>151.745514</ele>
        <time>2011-02-06T13:13:20Z</time>
      </trkpt>
      <trkpt lat="43.35242" lon="5.4449">
        <ele>150.744598</ele>
        <time>2011-02-06T13:13:22Z</time>
      </trkpt>
      <trkpt lat="43.35232" lon="5.44452">
        <ele>148.103683</ele>
        <time>2011-02-06T13:13:26Z</time>
      </trkpt>
      <trkpt lat="43.35217" lon="5.44428">
        <ele>145.542908</ele>
        <time>2011-02-06T13:13:30Z</time>
      </trkpt>
      <trkpt lat="43.35195" lon="5.44442">
        <ele>144.555222</ele>
        <time>2011-02-06T13:13:34Z</time>
      </trkpt>
      <trkpt lat="43.35175" lon="5.44457">
        <ele>144.105331</ele>
        <time>2011-02-06T13:13:38Z</time>
      </trkpt>
      <trkpt lat="43.35163" lon="5.44442">
        <ele>142.561249</ele>
        <time>2011-02-06T13:14:09Z</time>
      </trkpt>
      <trkpt lat="43.3515" lon="5.4443">
        <ele>141.253616</ele>
        <time>2011-02-06T13:14:27Z</time>
      </trkpt>
    </trkseg>
  </trk>
</gpx>